[[{"header":{"parameterUnit":"m.s-1","parameterCategory":1,"la1":30.6,"la2":29.2853,"lo1":-89.7004,"lo2":-87.6739,"dy":0.0162,"dx":0.0183,"nx":112,"ny":82,"refTime":"2023-09-22T00:00:00:Z","depth":0,"parameterNumber":2,"parameterNumberName":"U-component_of_WINDS"},"data":[0.0,0.0,0.0,0.0,0.0,0.0,0.0,0.0,0.0,0.0,0.0,0.0,0.0,0.0,0.0,0.0,0.0,0.0,0.0,0.0,0.0,0.0,0.0,0.0,0.0,0.0,0.0,0.0,0.0,0.0,0.0,0.0,0.0,0.0,0.0,0.0,0.0,0.0,0.0,0.0,0.0,0.0,0.0,0.0,0.0,0.0,0.0,0.0,0.0,0.0,0.0,0.0,0.0,0.0,0.0,0.0,0.0,0.0,0.0,0.0,0.0,0.0,0.0,0.0,0.0,0.0,0.0,0.0,0.0,0.0,0.0,0.0,0.0,0.0,0.0,0.0,0.0,0.0,0.0,0.0,0.0,0.0,0.0,0.0,0.0,0.0,0.0,0.0,0.0,0.0,0.0,-2.7121,-3.0373,-3.1781,-3.0244,-3.0048,-2.7668,-2.2182,0.0,0.0,0.0,0.0,0.0,0.0,0.0,0.0,0.0,0.0,0.0,0.0,0.0,0.0,0.0,0.0,0.0,0.0,0.0,0.0,0.0,0.0,0.0,0.0,0.0,0.0,0.0,0.0,0.0,0.0,0.0,0.0,0.0,0.0,0.0,0.0,0.0,0.0,0.0,0.0,0.0,0.0,0.0,0.0,0.0,0.0,0.0,0.0,0.0,0.0,0.0,0.0,0.0,0.0,0.0,0.0,0.0,0.0,0.0,0.0,0.0,0.0,0.0,0.0,0.0,0.0,0.0,0.0,0.0,0.0,0.0,0.0,0.0,0.0,0.0,0.0,0.0,0.0,0.0,0.0,0.0,0.0,0.0,0.0,0.0,0.0,0.0,0.0,0.0,0.0,0.0,0.0,0.0,0.0,0.0,0.0,0.0,0.0,0.0,0.0,0.0,0.0,0.0,0.0,-2.4389,-2.8436,-2.9946,-3.0178,-2.8965,-2.7646,-2.4971,-2.0454,0.0,0.0,0.0,0.0,0.0,0.0,0.0,0.0,0.0,0.0,0.0,0.0,0.0,0.0,0.0,0.0,0.0,0.0,0.0,0.0,0.0,0.0,0.0,0.0,0.0,0.0,0.0,0.0,0.0,0.0,0.0,0.0,0.0,0.0,0.0,0.0,0.0,0.0,0.0,0.0,0.0,0.0,0.0,0.0,0.0,0.0,0.0,0.0,0.0,0.0,0.0,0.0,0.0,0.0,0.0,0.0,0.0,0.0,0.0,0.0,0.0,0.0,0.0,0.0,0.0,0.0,0.0,0.0,0.0,0.0,0.0,0.0,0.0,0.0,0.0,0.0,0.0,0.0,0.0,0.0,0.0,0.0,0.0,0.0,0.0,0.0,0.0,0.0,0.0,0.0,0.0,0.0,0.0,0.0,0.0,0.0,0.0,0.0,0.0,0.0,0.0,0.0,0.0,-2.3598,-2.5545,-2.9001,-2.9988,-3.0014,-2.9054,-2.7856,-2.5428,-2.1363,-1.9331,0.0,0.0,0.0,0.0,0.0,0.0,0.0,0.0,0.0,0.0,0.0,0.0,0.0,0.0,0.0,0.0,0.0,0.0,0.0,0.0,0.0,0.0,0.0,0.0,0.0,0.0,0.0,0.0,0.0,0.0,0.0,0.0,0.0,0.0,0.0,0.0,0.0,0.0,0.0,0.0,0.0,0.0,0.0,0.0,0.0,0.0,0.0,0.0,0.0,0.0,0.0,0.0,0.0,0.0,0.0,0.0,0.0,0.0,0.0,0.0,0.0,0.0,0.0,0.0,0.0,0.0,0.0,0.0,0.0,0.0,0.0,0.0,0.0,0.0,0.0,0.0,0.0,0.0,0.0,0.0,0.0,0.0,0.0,0.0,0.0,0.0,0.0,0.0,0.0,0.0,0.0,0.0,0.0,0.0,0.0,0.0,0.0,0.0,0.0,0.0,0.0,0.0,-2.5213,-2.6662,-2.8968,-2.9672,-2.9626,-2.8834,-2.7613,-2.5387,-2.1889,-1.8309,0.0,0.0,0.0,0.0,0.0,0.0,0.0,0.0,0.0,0.0,0.0,0.0,0.0,0.0,0.0,0.0,0.0,0.0,0.0,0.0,0.0,0.0,0.0,0.0,0.0,0.0,0.0,0.0,0.0,0.0,0.0,0.0,0.0,0.0,0.0,0.0,0.0,0.0,0.0,0.0,0.0,0.0,0.0,0.0,0.0,0.0,0.0,0.0,0.0,0.0,0.0,0.0,0.0,0.0,0.0,0.0,0.0,0.0,0.0,0.0,0.0,0.0,0.0,0.0,0.0,0.0,0.0,0.0,0.0,0.0,0.0,0.0,0.0,0.0,0.0,0.0,0.0,0.0,0.0,0.0,0.0,0.0,0.0,0.0,0.0,0.0,0.0,0.0,0.0,0.0,0.0,0.0,0.0,0.0,0.0,0.0,0.0,0.0,0.0,0.0,0.0,0.0,-2.4657,-2.667,-2.8224,-2.8375,-2.8039,-2.7237,-2.4921,-2.2545,-2.021,-1.6262,0.0,0.0,0.0,0.0,0.0,0.0,0.0,0.0,0.0,0.0,0.0,0.0,0.0,0.0,0.0,0.0,0.0,0.0,0.0,0.0,0.0,0.0,0.0,0.0,0.0,0.0,0.0,0.0,0.0,0.0,0.0,0.0,0.0,0.0,0.0,0.0,0.0,0.0,0.0,0.0,0.0,0.0,0.0,0.0,0.0,0.0,0.0,0.0,0.0,0.0,0.0,0.0,0.0,0.0,0.0,0.0,0.0,0.0,0.0,0.0,0.0,0.0,0.0,0.0,0.0,0.0,0.0,0.0,0.0,0.0,0.0,0.0,0.0,0.0,0.0,0.0,0.0,0.0,0.0,0.0,0.0,0.0,0.0,0.0,0.0,0.0,0.0,0.0,0.0,0.0,0.0,0.0,0.0,0.0,0.0,0.0,0.0,0.0,0.0,0.0,0.0,0.0,-2.4654,-2.665,0.0,-2.8358,-2.7973,-2.7077,-2.5659,-2.3413,-2.0115,0.0,0.0,0.0,0.0,0.0,0.0,0.0,0.0,0.0,0.0,0.0,0.0,0.0,0.0,0.0,0.0,0.0,0.0,0.0,0.0,0.0,0.0,0.0,0.0,0.0,0.0,0.0,0.0,0.0,0.0,0.0,0.0,0.0,0.0,0.0,0.0,0.0,0.0,0.0,0.0,0.0,0.0,0.0,0.0,0.0,0.0,0.0,0.0,0.0,0.0,0.0,0.0,0.0,0.0,0.0,0.0,0.0,0.0,0.0,0.0,0.0,0.0,0.0,0.0,0.0,0.0,0.0,0.0,0.0,0.0,0.0,0.0,0.0,0.0,0.0,0.0,0.0,0.0,0.0,0.0,0.0,0.0,0.0,0.0,0.0,0.0,0.0,0.0,0.0,0.0,0.0,0.0,0.0,0.0,0.0,0.0,0.0,0.0,0.0,0.0,0.0,0.0,-2.2786,-2.5067,-2.698,0.0,-2.8247,-2.7702,-2.6826,-2.5535,-2.3198,-1.9506,0.0,0.0,0.0,0.0,0.0,0.0,0.0,0.0,0.0,0.0,0.0,0.0,0.0,0.0,0.0,0.0,0.0,0.0,0.0,0.0,0.0,0.0,0.0,0.0,0.0,0.0,0.0,0.0,0.0,0.0,0.0,0.0,0.0,0.0,0.0,0.0,0.0,0.0,0.0,0.0,0.0,0.0,0.0,0.0,0.0,0.0,0.0,0.0,0.0,0.0,0.0,0.0,0.0,0.0,0.0,0.0,0.0,0.0,0.0,0.0,0.0,0.0,0.0,0.0,0.0,0.0,0.0,0.0,0.0,0.0,0.0,0.0,0.0,0.0,0.0,0.0,0.0,0.0,0.0,0.0,0.0,0.0,0.0,0.0,0.0,0.0,0.0,0.0,0.0,0.0,0.0,0.0,0.0,0.0,0.0,0.0,0.0,0.0,0.0,0.0,0.0,0.0,-2.351,-2.5919,-2.7728,-2.8502,-2.7832,-2.6995,-2.6246,-2.4002,-2.1278,0.0,0.0,0.0,0.0,0.0,0.0,0.0,0.0,0.0,0.0,0.0,0.0,0.0,0.0,0.0,0.0,0.0,0.0,0.0,0.0,0.0,0.0,0.0,0.0,0.0,0.0,0.0,0.0,0.0,0.0,0.0,0.0,0.0,0.0,0.0,0.0,0.0,0.0,0.0,0.0,0.0,0.0,0.0,0.0,0.0,0.0,0.0,0.0,0.0,0.0,0.0,0.0,0.0,0.0,0.0,0.0,0.0,0.0,0.0,0.0,0.0,0.0,0.0,0.0,0.0,0.0,0.0,0.0,0.0,0.0,0.0,0.0,0.0,0.0,0.0,0.0,0.0,0.0,0.0,0.0,0.0,0.0,0.0,0.0,0.0,0.0,0.0,0.0,0.0,0.0,0.0,0.0,0.0,0.0,0.0,0.0,0.0,0.0,0.0,0.0,0.0,0.0,0.0,-2.3787,-2.6615,-2.83,-2.7948,-2.7705,-2.7014,-2.5608,-2.4844,-2.2846,-1.9125,0.0,0.0,0.0,0.0,0.0,0.0,0.0,0.0,0.0,0.0,0.0,0.0,0.0,0.0,0.0,0.0,0.0,0.0,0.0,0.0,0.0,0.0,0.0,0.0,0.0,0.0,0.0,0.0,0.0,0.0,0.0,0.0,0.0,0.0,0.0,0.0,0.0,0.0,0.0,0.0,0.0,0.0,0.0,0.0,0.0,0.0,0.0,0.0,0.0,0.0,0.0,0.0,0.0,0.0,0.0,0.0,0.0,0.0,0.0,0.0,0.0,0.0,0.0,0.0,0.0,0.0,0.0,0.0,0.0,0.0,0.0,0.0,0.0,0.0,0.0,0.0,0.0,0.0,0.0,0.0,0.0,0.0,0.0,0.0,0.0,0.0,0.0,0.0,0.0,0.0,0.0,0.0,0.0,0.0,0.0,0.0,0.0,0.0,0.0,0.0,0.0,0.0,-2.3906,-2.6892,-2.8663,-2.8135,-2.7561,-2.6798,-2.5789,-2.486,-2.2896,-1.9551,0.0,0.0,0.0,0.0,0.0,0.0,0.0,0.0,0.0,0.0,0.0,0.0,0.0,0.0,0.0,0.0,0.0,0.0,0.0,0.0,0.0,0.0,0.0,0.0,0.0,0.0,0.0,0.0,0.0,0.0,0.0,0.0,0.0,0.0,0.0,0.0,0.0,0.0,0.0,0.0,0.0,0.0,0.0,0.0,0.0,0.0,0.0,0.0,0.0,0.0,0.0,0.0,0.0,0.0,0.0,0.0,0.0,0.0,0.0,0.0,0.0,0.0,0.0,0.0,0.0,0.0,0.0,0.0,0.0,0.0,0.0,0.0,0.0,0.0,0.0,0.0,0.0,0.0,0.0,0.0,0.0,0.0,0.0,0.0,0.0,0.0,0.0,0.0,0.0,0.0,0.0,0.0,0.0,0.0,0.0,0.0,0.0,0.0,0.0,0.0,0.0,0.0,-2.3884,-2.6794,-2.8694,-2.8609,-2.7346,-2.6449,-2.6324,-2.4347,-2.2093,-1.9686,0.0,0.0,0.0,0.0,0.0,0.0,0.0,0.0,0.0,0.0,0.0,0.0,0.0,0.0,0.0,0.0,0.0,0.0,0.0,0.0,0.0,0.0,0.0,0.0,0.0,0.0,0.0,0.0,0.0,0.0,0.0,0.0,0.0,0.0,0.0,0.0,0.0,0.0,0.0,0.0,0.0,0.0,0.0,0.0,0.0,0.0,0.0,0.0,0.0,0.0,0.0,0.0,0.0,0.0,0.0,0.0,0.0,0.0,0.0,0.0,-2.4137,0.0,0.0,0.0,0.0,0.0,0.0,0.0,0.0,0.0,0.0,0.0,0.0,0.0,0.0,0.0,0.0,0.0,0.0,0.0,0.0,0.0,0.0,0.0,0.0,0.0,0.0,0.0,0.0,0.0,0.0,0.0,0.0,0.0,0.0,0.0,0.0,0.0,0.0,0.0,0.0,0.0,-2.3753,-2.6458,-2.7878,-2.7094,-2.678,-2.6165,-2.4949,-2.434,-2.3044,-2.0736,0.0,0.0,0.0,0.0,0.0,0.0,0.0,0.0,0.0,0.0,0.0,0.0,0.0,0.0,0.0,0.0,0.0,0.0,0.0,0.0,0.0,0.0,0.0,0.0,0.0,0.0,0.0,0.0,0.0,0.0,0.0,0.0,0.0,0.0,0.0,0.0,0.0,0.0,0.0,0.0,0.0,0.0,0.0,0.0,0.0,0.0,0.0,0.0,0.0,0.0,0.0,0.0,0.0,0.0,0.0,0.0,0.0,0.0,0.0,0.0,0.0,-2.5688,0.0,0.0,0.0,0.0,0.0,0.0,0.0,0.0,0.0,0.0,0.0,0.0,0.0,0.0,0.0,0.0,0.0,0.0,0.0,0.0,0.0,0.0,0.0,0.0,0.0,0.0,0.0,0.0,0.0,0.0,0.0,0.0,0.0,0.0,0.0,0.0,0.0,0.0,0.0,0.0,-2.3755,-2.5962,-2.7261,-2.7053,-2.6489,-2.5808,-2.4996,-2.4289,-2.3202,-2.1625,-1.9904,0.0,0.0,0.0,0.0,0.0,0.0,0.0,0.0,0.0,0.0,0.0,0.0,0.0,0.0,0.0,0.0,0.0,0.0,0.0,0.0,0.0,0.0,0.0,0.0,0.0,0.0,0.0,0.0,0.0,0.0,0.0,0.0,0.0,0.0,0.0,0.0,0.0,0.0,0.0,0.0,0.0,0.0,0.0,0.0,0.0,0.0,0.0,0.0,0.0,0.0,0.0,0.0,0.0,-2.9384,-3.0285,-3.0894,-3.119,-3.1741,-3.2305,-3.0407,-2.9513,-2.92,0.0,0.0,0.0,0.0,0.0,0.0,0.0,0.0,0.0,0.0,0.0,0.0,0.0,0.0,0.0,0.0,0.0,0.0,0.0,0.0,0.0,0.0,0.0,0.0,0.0,-2.5018,-2.4702,0.0,0.0,0.0,0.0,0.0,0.0,0.0,0.0,0.0,0.0,0.0,0.0,-2.3619,-2.5352,-2.6606,-2.7166,-2.6185,-2.5448,-2.5328,-2.4253,-2.3203,-2.2288,-2.0364,-1.8695,0.0,0.0,0.0,0.0,0.0,0.0,0.0,0.0,0.0,0.0,0.0,0.0,0.0,0.0,0.0,0.0,0.0,0.0,0.0,0.0,0.0,0.0,0.0,0.0,0.0,0.0,0.0,0.0,0.0,0.0,0.0,0.0,-1.2744,-1.5241,0.0,0.0,0.0,0.0,0.0,0.0,0.0,0.0,0.0,0.0,0.0,0.0,0.0,0.0,-2.927,-3.1046,-3.1601,-3.1006,-3.3396,-3.4194,-3.3644,-3.5158,-3.5909,-3.6038,-3.6522,0.0,-3.1162,-3.0165,0.0,0.0,0.0,0.0,0.0,0.0,0.0,0.0,0.0,0.0,0.0,0.0,0.0,0.0,0.0,0.0,0.0,0.0,0.0,0.0,0.0,0.0,-2.8122,-2.7307,-2.7179,-2.7147,0.0,-2.3668,-2.0798,-2.0003,0.0,0.0,0.0,0.0,0.0,0.0,0.0,0.0,-2.2877,-2.4527,-2.5585,-2.5682,-2.5591,-2.5255,-2.4684,-2.4466,-2.3771,-2.2373,-2.2042,-2.0908,-1.8672,-1.7618,0.0,0.0,0.0,0.0,0.0,0.0,0.0,0.0,0.0,0.0,0.0,0.0,0.0,0.0,0.0,0.0,0.0,0.0,0.0,0.0,0.0,0.0,0.0,0.0,0.0,0.0,0.0,0.0,0.0,-1.1945,-1.4758,-1.6752,-1.7671,-1.7837,0.0,0.0,0.0,0.0,0.0,0.0,0.0,0.0,0.0,-2.8222,-2.9197,-3.0491,-3.2124,-3.3039,-3.3776,-3.4385,-3.5564,-3.619,-3.6316,-3.7074,-3.7441,-3.75,-3.7925,-3.7045,-3.5213,-3.3875,-3.2337,-3.0655,0.0,0.0,0.0,0.0,0.0,-2.858,-3.0404,-3.0171,0.0,0.0,0.0,0.0,0.0,0.0,0.0,0.0,0.0,0.0,0.0,0.0,0.0,-2.934,-2.9487,-2.9564,-2.8542,-2.6828,-2.4949,0.0,-2.2869,-2.214,-1.9867,0.0,0.0,0.0,0.0,0.0,-2.3447,-2.4293,-2.4966,-2.5465,-2.5171,-2.4824,-2.458,-2.4253,-2.3773,-2.3126,-2.2309,-2.1363,-2.0298,-1.9054,-1.7585,0.0,0.0,0.0,0.0,0.0,0.0,0.0,0.0,0.0,0.0,0.0,0.0,0.0,0.0,0.0,0.0,0.0,0.0,0.0,0.0,0.0,0.0,0.0,0.0,0.0,0.0,0.0,0.0,-1.4111,-1.6683,-1.8097,-2.0297,-2.0996,0.0,0.0,0.0,0.0,0.0,0.0,-2.5206,-2.7188,-2.9108,-3.0978,-3.1722,-3.2756,-3.4168,-3.4542,-3.5357,-3.6634,-3.6942,-3.7415,-3.806,-3.8285,-3.8402,-3.8473,-3.8685,-3.882,-3.8702,-3.675,-3.5204,-3.3924,-3.2469,-3.1893,-3.1985,-3.2623,-3.2459,-3.2203,-3.4318,-3.3945,-3.2546,-3.2542,0.0,-2.9998,-2.8459,0.0,0.0,0.0,0.0,-2.9014,-2.9163,-3.0662,-3.1815,-3.0611,-3.0989,-3.1175,-2.9589,-2.9236,-2.8458,0.0,-2.5425,-2.446,-2.1507,0.0,0.0,0.0,0.0,-2.2701,-2.3795,-2.4164,-2.457,-2.5255,-2.4842,-2.4543,-2.4615,-2.4247,-2.3827,-2.3417,-2.2329,-2.1522,-2.1105,-1.9961,-1.8516,-1.6764,0.0,0.0,0.0,0.0,0.0,0.0,0.0,0.0,0.0,0.0,0.0,0.0,0.0,0.0,0.0,0.0,0.0,0.0,0.0,0.0,0.0,0.0,0.0,0.0,0.0,0.0,0.0,0.0,0.0,-1.9966,-2.3134,0.0,0.0,0.0,0.0,-2.4466,-2.4745,-2.6299,-2.9517,-2.9923,-3.1228,-3.3716,-3.3918,-3.4369,-3.5224,-3.6173,-3.6664,-3.6706,-3.7675,-3.8144,-3.8228,-3.9051,-3.9435,-3.9478,-4.0304,-4.0676,-4.0472,-3.7885,-3.6779,-3.6629,-3.5771,-3.5447,-3.5461,-3.549,-3.547,-3.5574,-3.6458,-3.567,-3.4668,-3.7042,-3.5581,-3.2739,-3.1743,-3.0317,0.0,0.0,-2.9666,-3.1237,-2.9616,-3.1061,-3.2511,-3.0794,-3.102,-3.136,-3.0433,-3.0273,-2.9524,0.0,-2.6288,-2.5704,-2.3992,0.0,-2.3423,-2.2406,-2.2916,-2.3367,-2.3262,-2.3925,-2.4445,-2.4528,-2.4582,-2.4615,-2.47,-2.4782,-2.4182,-2.2652,-2.2544,-2.1861,-2.0318,-2.0236,-1.9404,-1.7674,-1.685,0.0,0.0,0.0,0.0,0.0,0.0,0.0,0.0,0.0,0.0,0.0,0.0,0.0,0.0,0.0,0.0,0.0,0.0,0.0,0.0,0.0,0.0,0.0,0.0,0.0,0.0,0.0,0.0,-2.2745,-2.5179,0.0,0.0,-2.5993,-2.6807,-2.6643,-2.8235,-2.9954,-3.1649,-3.2893,-3.394,-3.4818,-3.4939,-3.5385,-3.6183,-3.6639,-3.7411,-3.8511,-3.8877,-3.9338,-3.9871,-4.0194,-4.0341,-4.0344,-4.0674,-4.0826,-4.0789,-3.9862,-3.9439,-3.9331,-3.8519,-3.8209,-3.8204,-3.8214,-3.7841,-3.7487,-3.8345,-3.7531,-3.6183,-3.6444,-3.6466,-3.601,-3.3983,-3.3346,-3.315,-3.2325,-3.2339,-3.2494,-3.1862,-3.2389,-3.2629,-3.0888,-3.1113,-3.1474,-3.055,-2.9948,-2.9135,-2.766,-2.7319,-2.6567,-2.4358,-2.432,-2.4301,-2.3427,-2.3889,-2.4306,-2.4187,-2.4409,-2.4623,-2.469,-2.4718,-2.4768,-2.4884,-2.3948,-2.3371,-2.3389,-2.1933,-2.0803,-2.0225,-2.0253,-1.9243,-1.6967,-1.7206,-1.5816,0.0,0.0,0.0,0.0,0.0,0.0,0.0,0.0,0.0,0.0,0.0,0.0,0.0,0.0,0.0,0.0,0.0,0.0,0.0,0.0,0.0,0.0,0.0,0.0,0.0,0.0,-2.2085,-2.4395,-2.7003,-2.8096,-2.6733,-2.871,-2.9873,-2.9351,-3.1491,-3.3044,-3.3577,-3.5053,-3.5729,-3.5415,-3.5489,-3.5926,-3.6761,-3.7153,-3.8077,-3.9499,-3.9813,-4.0267,-4.0823,-4.0837,-4.0823,-4.0839,-4.0868,-4.0873,-4.0898,-4.0927,-4.0903,-4.081,-4.0262,-4.0043,-4.0048,-4.0058,-3.9694,-3.9214,-3.95,-3.8864,-3.7744,-3.6792,-3.706,-3.7497,-3.6057,-3.5612,-3.5527,-3.4952,-3.4406,-3.3834,-3.326,-3.3309,-3.3102,-3.136,-3.1384,-3.1558,-3.0628,-2.9995,-2.9263,-2.814,-2.7608,-2.6734,-2.4783,-2.481,-2.4908,-2.433,-2.4594,-2.4842,-2.4776,-2.4742,-2.476,-2.4836,-2.4839,-2.4757,-2.4588,-2.3585,-2.2994,-2.3056,-2.155,-2.0407,-1.9854,-1.9896,-1.8869,-1.658,-1.6818,-1.5984,-1.4002,0.0,0.0,0.0,0.0,0.0,0.0,0.0,0.0,0.0,0.0,0.0,0.0,0.0,0.0,0.0,0.0,0.0,0.0,0.0,0.0,0.0,0.0,0.0,-1.9603,-2.2509,-2.4679,-2.4903,-2.863,-3.0288,-2.7956,-3.0826,-3.2838,-3.2785,-3.4405,-3.542,-3.5489,-3.6362,-3.6473,-3.5675,-3.5642,-3.606,-3.6939,-3.7806,-3.8692,-3.9597,-4.0518,-4.0946,-4.0946,-4.0917,-4.0907,-4.0912,-4.0978,-4.0954,-4.0912,-4.0978,-4.1006,-4.0987,-4.0941,-4.0907,-4.0912,-4.0978,-4.0954,-4.0786,-3.9906,-3.9578,-3.9408,-3.8504,-3.7668,-3.717,-3.7963,-3.7093,-3.58,-3.567,-3.5668,-3.5298,-3.359,-3.375,-3.3924,-3.2216,-3.1806,-3.1569,-3.0689,-3.054,-3.0056,-2.8339,-2.7195,-2.6257,-2.5437,-2.5307,-2.5266,-2.5126,-2.505,0.0,-2.4912,-2.4846,-2.4824,-2.4872,-2.4888,-2.4561,-2.3739,-2.3795,-2.3163,-2.1507,-2.1411,-2.0723,-1.9154,-1.9169,-1.8397,-1.671,-1.5809,-1.5763,-1.6648,0.0,0.0,0.0,0.0,0.0,0.0,0.0,0.0,0.0,0.0,0.0,0.0,0.0,0.0,0.0,0.0,0.0,0.0,0.0,0.0,0.0,0.0,-2.2179,-2.2252,-2.3644,-2.5431,-2.7455,-2.9892,-3.1197,-3.0636,-3.2539,-3.409,-3.4751,-3.5213,-3.6016,-3.7301,-3.7649,-3.7423,-3.6574,-3.6588,-3.7011,-3.7825,-3.8769,-3.997,-4.1454,-4.1713,-4.1848,-4.1815,-4.1239,-4.0975,-4.0975,-4.0995,-4.0987,-4.0978,-4.1,-4.1003,-4.1003,-4.0982,-4.0967,-4.0975,-4.0995,-4.0984,-4.0856,-3.9967,-4.0047,-4.0262,-3.8767,-3.8976,-3.9602,-3.8526,-3.8341,-3.8241,-3.6928,-3.614,-3.544,-3.4336,-3.379,-3.3239,-3.2082,-3.1806,-3.1564,-3.0694,-3.0057,-2.9321,-2.8214,-2.7305,-2.6427,-2.5535,-2.5321,-2.5298,-2.5253,-2.514,0.0,-2.5057,-2.4998,-2.4704,-2.4106,-2.4639,-2.4479,-2.3095,-2.3015,-2.2575,-2.153,-2.035,-1.9482,-1.9046,-1.909,-1.8917,-1.8489,-1.7059,-1.6707,0.0,0.0,0.0,0.0,0.0,0.0,0.0,0.0,0.0,0.0,0.0,0.0,0.0,0.0,0.0,0.0,0.0,0.0,0.0,0.0,0.0,0.0,-2.2274,-2.4318,-2.5809,-2.655,-2.7801,-3.0183,-3.1734,-3.2641,-3.2777,-3.4307,-3.5522,-3.6098,-3.6774,-3.7456,-3.8118,-3.8547,-3.8396,-3.7519,-3.7529,-3.7938,-3.8785,-3.9335,-4.0315,-4.1694,-4.1691,-4.1898,-4.2201,-4.1385,-4.1198,0.0,-4.1182,-4.1023,-4.0996,-4.1036,-4.1046,0.0,0.0,0.0,0.0,0.0,-4.1048,-4.0974,-4.0458,-4.0333,-4.0295,-3.9637,-3.9593,-3.9755,-3.9432,-3.896,-3.8368,-3.7683,-3.6612,-3.5572,-3.5083,-3.4352,-3.3513,-3.2609,-3.2101,-3.1593,-3.0733,-3.0168,-2.9587,-2.8684,0.0,0.0,-2.6097,-2.5612,-2.5348,-2.5346,-2.5236,-2.5147,-2.5147,-2.5088,-2.4867,-2.4425,-2.4541,-2.4121,-2.2849,-2.2464,0.0,0.0,0.0,-1.9447,-1.9104,-1.9122,0.0,0.0,0.0,-1.9205,-1.9984,0.0,0.0,0.0,-1.893,-1.915,0.0,0.0,0.0,0.0,0.0,0.0,0.0,0.0,0.0,0.0,0.0,0.0,0.0,0.0,0.0,0.0,-2.434,-2.6218,-2.9626,-3.0292,-3.1039,-3.2612,-3.3576,-3.4218,-3.4433,-3.5885,-3.6927,-3.7189,-3.8649,-3.9228,-3.8543,0.0,0.0,0.0,0.0,-3.8878,-3.9732,-3.9853,-4.0418,-4.1424,-4.1443,-4.1836,-4.2556,-4.1696,-4.1653,-4.2268,-4.1542,-4.1143,-4.1007,-4.1073,-4.1091,-4.1096,-4.1039,-4.1003,-4.101,-4.1075,-4.1095,0.0,-4.1098,0.0,0.0,-4.0749,-3.9922,-3.8892,-4.0437,-3.9282,-3.7564,-3.8137,-3.7196,-3.596,-3.5762,-3.5189,-3.4406,-3.3425,-3.2615,-3.1781,-3.0817,-3.0601,-3.0332,-2.939,-2.858,-2.7745,-2.6874,-2.5989,-2.5394,-2.54,-2.5288,-2.5198,-2.5208,-2.517,-2.5134,-2.5172,0.0,0.0,-2.2739,-2.2168,-2.1448,-2.0514,-2.061,-2.0329,-1.9523,-1.9581,-1.9998,-2.0772,-2.1533,-2.2379,-2.3283,-2.3249,-2.3298,-2.3359,-2.0836,-2.0936,0.0,0.0,0.0,0.0,0.0,0.0,0.0,0.0,0.0,0.0,0.0,0.0,0.0,0.0,0.0,-2.4006,-2.6266,-2.8751,-3.1588,-3.2702,-3.3118,-3.2832,-3.3654,-3.456,-3.5355,-3.6367,-3.7554,-3.8975,-3.9392,-3.982,-4.0349,-4.0553,0.0,-3.9468,-3.9431,-3.982,-4.0634,-4.1399,-4.2544,-4.407,0.0,0.0,-4.4371,-4.3491,-4.2813,-4.2286,-4.2192,-4.1719,-4.1017,-4.106,-4.1106,-4.109,-4.1087,-4.1078,-4.1075,-4.1108,-4.109,-4.1103,-4.1103,-4.0983,-4.085,-4.0953,-4.0802,-4.0616,-4.089,-4.0621,0.0,-3.8654,-3.8097,-3.7544,-3.6148,-3.5676,-3.5161,-3.3565,-3.3066,-3.2523,-3.095,-3.0647,-3.0401,-2.9453,-2.8671,-2.7874,-2.7016,-2.6049,-2.5404,-2.5393,-2.5332,-2.5307,-2.5355,-2.5293,-2.5027,-2.4404,-2.4811,-2.4229,-2.2012,-2.2401,-2.2361,-2.149,-2.2102,-2.2119,-2.1255,-2.1898,-2.2347,-2.2504,-2.2674,-2.3515,-2.5004,-2.4324,-2.4675,-2.5944,-2.408,-2.3872,0.0,0.0,0.0,0.0,0.0,0.0,0.0,0.0,0.0,0.0,0.0,-2.166,0.0,0.0,-2.4472,-2.6218,-2.7988,-2.9952,-3.223,-3.3402,-3.4038,-3.4141,-3.5014,-3.5966,-3.6909,-3.7783,-3.882,-4.0091,-4.0223,-4.0636,-4.1489,-4.1552,-4.1386,-4.1019,-4.1432,-4.1646,-4.1595,-4.2506,-4.3378,-4.4198,-4.4237,-4.4474,-4.4874,-4.4039,-4.338,-4.2935,-4.2563,-4.1887,-4.1051,-4.1099,-4.1099,-4.1095,-4.1106,-4.1091,-4.1106,-4.1092,-4.1104,-4.1109,-4.1109,-4.1095,-4.1093,-4.1069,-4.1078,-4.1097,-4.1022,-4.0704,-4.0159,-3.9263,-3.8406,-3.7553,-3.6675,-3.6157,-3.5512,-3.4218,-3.3907,-3.3409,-3.1677,-3.1293,-3.1026,-3.0128,-2.9303,-2.8475,-2.7593,-2.6707,-2.5944,-2.553,-2.5397,-2.537,-2.5407,-2.5346,-2.5168,-2.4797,-2.4789,-2.4285,-2.3016,-2.2965,-2.2834,-2.2425,-2.2801,-2.2845,-2.2414,-2.3219,-2.3653,-2.3657,-2.4079,-2.4917,-2.6151,-2.5748,-2.6204,-2.743,-2.6595,-2.6209,0.0,0.0,0.0,0.0,0.0,0.0,0.0,0.0,-2.2248,-2.3722,-2.4077,-2.4532,-2.5838,-2.6115,-2.6684,-2.8415,-2.947,-3.0739,-3.2607,-3.3677,-3.4573,-3.5425,-3.6355,-3.7295,-3.8237,-3.9102,-3.9951,-4.0771,-4.1048,-4.1483,-4.2183,-4.238,-4.2498,-4.2545,-4.3229,-4.3256,-4.2551,-4.3256,-4.3689,-4.386,-4.3841,-4.4309,-4.5125,-4.4328,-4.3832,-4.3565,-4.2582,-4.1759,-4.1099,-4.1109,-4.1108,-4.1102,-4.1113,-4.1113,-4.1106,-4.1095,-4.1098,-4.1097,-4.1093,-4.1104,-4.1094,-4.1103,-4.1091,-4.11,-4.1033,-4.0512,-3.9914,-3.977,-3.8587,-3.7329,-3.716,-3.6506,-3.5687,-3.4818,-3.4607,-3.4175,-3.259,-3.2084,-3.1712,-3.1014,-3.0048,-2.9121,-2.8415,-2.76,-2.6715,-2.5665,-2.5448,-2.5421,-2.5421,-2.5379,-2.5351,-2.5407,-2.4837,-2.4393,-2.4221,-2.3631,-2.3281,-2.3337,-2.3486,-2.3655,-2.3827,-2.4464,-2.4886,-2.5055,-2.5753,-2.6515,-2.7317,-2.7209,-2.7579,-2.8445,-2.8449,-2.8037,-2.0909,-2.1587,-2.2703,-2.4404,-2.4958,-2.5594,0.0,0.0,-2.8011,-2.8027,-2.8283,-2.836,-2.7899,-2.7354,-2.7561,-2.9435,-3.0528,-3.1773,-3.3586,-3.4647,-3.5335,-3.5566,-3.6427,-3.7356,-3.8298,-3.9178,-4.0054,-4.0914,-4.1694,-4.2192,-4.2286,-4.3026,-4.3458,-4.3458,-4.3559,-4.3542,-4.3461,-4.3556,-4.3997,-4.4752,-4.4748,-4.5219,-4.6023,-4.5228,-4.4423,-4.3604,-4.1959,-4.1191,-4.1093,-4.1152,-4.1152,-4.1113,-4.1169,-4.1152,-4.1093,-4.1093,-4.1093,-4.1093,-4.1103,-4.1097,-4.1094,-4.1097,-4.1092,-4.1107,-4.1091,-4.0989,-4.0718,-3.9984,-3.9056,-3.8093,-3.7371,-3.6553,-3.569,-3.4811,-3.4589,-3.4328,-3.3359,-3.2533,-3.1963,-3.1863,-3.0559,-2.9454,-2.9348,-2.8612,-2.7451,-2.5754,-2.5487,-2.5484,-2.5484,-2.5484,-2.5468,-2.5417,-2.5372,-2.5075,-2.4358,-2.4202,-2.4151,-2.4163,-2.4892,-2.5678,-2.6437,-2.6561,-2.698,-2.7746,-2.7851,-2.8323,-2.9201,-2.8376,-2.8446,-2.9359,-2.9291,-2.9244,-2.3696,-2.4934,0.0,0.0,-2.7779,-2.8384,-2.9368,-2.9484,-2.9566,-3.0106,-3.0051,-2.9842,-2.9594,-2.9513,-2.9738,0.0,-3.1893,-3.3149,-3.3941,-3.487,-3.5514,-3.5637,-3.6904,-3.7919,-3.8302,-3.9163,-4.0269,-4.1643,-4.2097,-4.2746,-4.3752,-4.4167,-4.4365,-4.4356,-4.4858,-4.4874,-4.4364,-4.4855,-4.5323,-4.5714,-4.5712,-4.5641,-4.5499,-4.5159,-4.4257,-4.2871,-4.164,-4.1092,-4.1093,-4.1133,-4.1132,-4.1109,-4.1123,-4.1122,-4.1106,-4.1092,-4.1093,-4.1094,-4.1093,-4.1092,-4.109,-4.1101,-4.1097,-4.1094,-4.1094,-4.1079,-4.0994,-4.0645,-3.9533,-3.8377,-3.8043,-3.6932,-3.5816,-3.5434,-3.5383,-3.5173,-3.43,-3.3828,-3.3275,-3.2253,-3.1486,-3.0682,-2.9667,-2.9197,-2.8367,-2.6573,-2.6275,-2.6075,-2.5561,-2.5472,-2.5445,-2.5456,-2.548,-2.5582,-2.5798,-2.5814,-2.6024,-2.6544,-2.6918,-2.7275,-2.7632,-2.766,-2.7836,-2.8196,-2.8196,-2.8632,-2.9503,-2.9066,-2.9347,-3.0277,-3.0708,-3.0942,-2.5819,0.0,0.0,-2.9034,-2.9923,-3.0653,-3.0381,-3.0399,-3.0608,-3.1175,-3.1029,-3.075,-3.0675,-3.1156,-3.1558,-3.1583,-3.2953,-3.4133,-3.4422,-3.5086,-3.556,-3.5665,-3.6823,-3.7791,-3.8272,-3.9379,-4.059,-4.1869,-4.2417,-4.3244,-4.4502,-4.5013,-4.5287,-4.5263,-4.5898,-4.5813,-4.4947,-4.5558,-4.5892,-4.5947,-4.5949,-4.5603,-4.498,-4.4491,-4.3457,-4.201,-4.1361,-4.1104,-4.1107,-4.1092,-4.1109,-4.11,-4.1093,-4.1108,-4.1106,-4.11,-4.1108,-4.1092,-4.1092,-4.1093,-4.1094,-4.1091,-4.1108,-4.1107,-4.1093,-4.1103,-4.1099,-4.1092,-4.0028,-3.8792,-3.8567,-3.7392,-3.622,-3.598,-3.5958,-3.5822,-3.5188,-3.4676,-3.3965,-3.2707,-3.2075,-3.1345,-3.0089,-2.9864,-2.9357,-2.7836,-2.7587,-2.7132,-2.5998,-2.6033,-2.6169,-2.6214,-2.6225,-2.6508,-2.7193,-2.7267,-2.7539,-2.8152,-2.8207,-2.8312,-2.8542,-2.8562,-2.8673,-2.8914,-2.892,-2.9236,-2.9862,-2.9808,-3.0263,-3.1164,-3.1756,-3.2304,-2.6796,0.0,-3.01,-2.9996,-3.1247,-3.2279,-3.137,-3.1756,-3.2123,-3.1446,-3.1531,-3.1559,-3.0905,-3.1703,-3.248,-3.2561,-3.3421,-3.4391,-3.5244,-3.5496,-3.5601,-3.5606,-3.5762,-3.6534,0.0,-3.9958,-4.1008,-4.1131,-4.2703,-4.3684,-4.3723,-4.5332,-4.623,-4.6163,-4.6249,-4.587,-4.5014,-4.502,-4.5031,-4.5033,-4.5038,-4.5036,-4.4938,-4.3248,-4.1997,-4.115,-4.1109,-4.109,-4.1091,-4.1099,-4.1093,-4.1095,-4.1106,-4.1103,-4.1092,-4.11,-4.1097,-4.1101,-4.111,-4.1092,-4.1092,-4.1093,-4.1092,-4.1091,-4.1108,-4.1103,-4.1098,-4.1098,-4.045,-3.957,-3.8721,-3.7876,-3.7031,-3.6203,-3.6002,-3.5994,-3.5963,-3.4629,-3.3427,-3.3368,-3.2002,-3.0812,-3.0771,-3.0757,-3.0463,-2.9553,-2.9413,-2.8768,-2.6992,-2.7492,-2.8023,-2.8018,-2.8021,-2.8051,-2.8153,-2.8162,-2.8179,-2.8205,-2.8207,-2.8582,-2.9428,-2.9452,-2.9856,-3.07,-3.0719,-3.0739,-3.0758,-3.0754,-3.1215,-3.2069,-3.2082,-3.2996,-2.9065,-3.0302,-3.113,-3.1982,-3.272,-3.3017,-3.2021,-3.2077,-3.2324,-3.2299,-3.1607,-3.1177,-3.1765,-3.1789,-3.1935,-3.2625,-3.3942,-3.5242,-3.6189,-3.6899,-3.7132,-3.658,-3.7117,0.0,0.0,0.0,0.0,-4.1833,-4.3032,-4.3956,-4.4528,-4.5662,-4.6287,-4.6266,-4.6287,-4.6167,-4.5864,-4.5856,-4.5859,-4.5868,-4.5276,-4.468,-4.4038,-4.291,-4.1905,-4.1044,-4.1074,-4.1072,-4.1025,-4.104,-4.1035,-4.1037,-4.1022,-4.0716,-4.0231,-4.0187,-4.0198,-4.0325,-4.0902,-4.1091,-4.1101,-4.1091,-4.1093,-4.1094,-4.1092,-4.1091,-4.0994,-4.0448,-3.9685,-3.8807,-3.7929,-3.7069,-3.6363,-3.6074,-3.5993,-3.5833,-3.5253,-3.4686,-3.3922,-3.2751,-3.2063,-3.1474,-3.0908,-3.0809,-3.0513,-2.9691,-2.9044,-2.8424,-2.7814,-2.7984,-2.8159,-2.817,-2.8177,-2.8403,-2.9002,-2.906,-2.9307,-2.9897,-2.9961,-3.0099,-3.035,-3.0366,-3.0495,-3.0799,-3.0809,-3.0792,-3.0807,-3.1379,-3.1812,-3.2122,-3.328,-3.4142,-3.0552,-3.1523,-3.1965,-3.2833,-3.313,-3.2967,-3.206,-3.1688,-3.161,-3.1873,-3.101,-3.0466,-3.1358,-3.1416,-3.1752,-3.3013,-3.4447,-3.5836,-3.709,-3.7832,-3.8054,-3.7566,-3.8042,-3.8352,0.0,0.0,0.0,-4.1378,-4.2572,-4.3612,-4.449,-4.5351,-4.5976,-4.6287,-4.6307,-4.6308,-4.6308,-4.6307,-4.6297,-4.6259,-4.5377,-4.4643,-4.4036,-4.2875,-4.2039,-4.1451,-4.1172,-4.1029,-4.0993,-4.0994,-4.099,-4.0993,-4.1,-4.0484,-3.9753,-3.9724,-3.9731,-3.9856,-4.044,-4.0832,-4.1106,-4.1095,-4.1105,-4.1091,-4.1094,-4.1093,-4.0995,-4.0468,-3.9726,-3.8866,-3.7986,-3.7128,-3.6387,-3.6073,-3.5996,-3.576,-3.4882,-3.4453,-3.3808,-3.2383,-3.1855,-3.1463,-3.0935,-3.0834,-3.0657,-3.0131,-2.955,-2.9058,-2.8739,-2.895,-2.9123,-2.9123,-2.9131,-2.9352,-2.9923,-2.9999,-3.0242,-3.081,-3.0871,-3.0871,-3.0847,-3.0804,-3.0798,-3.0792,-3.0798,-3.0801,-3.0804,-3.1675,-3.226,-3.2602,-3.4023,-3.4865,-3.1207,-3.1963,-3.2588,-3.2588,-3.2517,-3.2235,-3.1486,-3.0686,-3.0167,-3.0327,-2.9857,-2.9543,-2.9796,0.0,-3.1893,-3.3611,-3.4885,-3.6233,-3.7873,-3.8329,-3.8503,0.0,0.0,0.0,0.0,0.0,0.0,-3.996,0.0,-4.2851,-4.3714,-4.4582,-4.5442,-4.6272,-4.6297,-4.6283,-4.6285,-4.6299,-4.6257,-4.6189,-4.5368,-4.4939,-4.4835,-4.3146,-4.233,-4.2248,-4.1376,-4.0995,-4.0992,-4.0956,-4.0933,-4.0933,-4.0878,-4.0324,-3.9562,-3.956,-3.9567,-3.9588,-3.9641,-4.0294,-4.1092,-4.1055,-4.1054,-4.1087,-4.099,-4.1009,-4.101,-4.0934,-4.0347,-3.9563,-3.8684,-3.7847,-3.7029,-3.6209,-3.5996,-3.5761,-3.4882,-3.4023,-3.3144,-3.2265,-3.1405,-3.0819,-3.0878,-3.0897,-3.0877,-3.0839,-3.0877,-3.06,-2.977,-3.0331,-3.0815,-3.0815,-3.0819,-3.0801,-3.0801,-3.0853,-3.0897,-3.0897,-3.0897,-3.0896,-3.0895,-3.0848,-3.0805,-3.0791,-3.0806,-3.0828,-3.0875,-3.1731,-3.2612,-3.3494,-3.4369,-3.5209,-3.1992,-3.2283,-3.2434,-3.2338,-3.1946,-3.1342,-3.0358,-3.0198,-3.0134,-2.9744,-2.9205,-2.8915,-2.9188,-2.9965,0.0,-3.209,-3.4704,0.0,-3.8028,-3.9971,0.0,-3.9517,0.0,-4.0728,-3.8999,-4.0585,0.0,0.0,-4.2393,-4.3736,-4.4551,-4.5418,-4.5998,-4.6211,-4.623,-4.6238,-4.6236,-4.6228,-4.622,-4.6204,-4.5967,-4.55,-4.4794,-4.374,-4.2887,-4.2183,-4.1357,-4.098,-4.0887,-4.0271,-4.0034,-3.9974,-3.9321,-3.8537,-3.7751,-3.7759,-3.7759,-3.7778,-3.7848,-3.9285,-4.0983,-4.0331,-4.0561,-4.0866,-3.9554,-3.9612,-3.9865,-3.8553,-3.8043,-3.7708,-3.6881,-3.6495,-3.6286,-3.6052,-3.6003,-3.5756,-3.4896,-3.4015,-3.3136,-3.2274,-3.1392,-3.0804,-3.0826,-3.083,-3.0617,-2.9953,-3.0407,-3.0762,-3.0581,-3.0754,-3.0871,-3.0871,-3.0871,-3.0872,-3.0872,-3.0895,-3.0897,-3.0898,-3.0897,-3.0897,-3.0898,-3.0875,-3.0855,-3.08,-3.0859,-3.1172,-3.1777,-3.2636,-3.3514,-3.4391,-3.5252,-3.5798,-3.2926,-3.3193,-3.3101,-3.272,-3.2053,-3.1152,-2.9892,-2.9507,-2.9241,-2.8615,-2.8005,-2.7756,-2.8332,-2.8881,0.0,0.0,0.0,0.0,-3.9117,-4.1061,-4.2091,0.0,-4.2343,0.0,-4.0912,-4.208,-4.2872,0.0,-4.3342,-4.404,-4.4869,-4.5,-4.5225,-4.5621,-4.563,-4.5816,-4.6195,-4.6209,-4.618,-4.616,-4.616,-4.5676,-4.4773,-4.3931,-4.3071,-4.2135,0.0,-4.0399,-4.0305,-3.9468,-3.9134,-3.9082,-3.86,-3.7871,-3.709,-3.7094,-3.7094,-3.7152,-3.7591,-3.8942,-4.0409,-3.9911,-4.0108,-4.0413,-3.9796,-3.9681,-3.9607,-3.8623,-3.781,-3.7133,-3.6659,-3.6253,-3.6006,-3.5991,-3.5708,-3.5303,-3.481,-3.3716,-3.2462,-3.1194,-3.0567,-3.012,-2.9725,-2.9656,-2.9489,-2.9005,-2.9363,-2.9702,-2.9706,-3.041,-3.0896,-3.0896,-3.0897,-3.0897,-3.0898,-3.0898,-3.0898,-3.0898,-3.0879,-3.0859,-3.0859,-3.0859,-3.084,-3.0797,-3.0877,-3.1111,-3.1537,-3.2401,-3.3085,-3.3573,-3.4458,-3.5059,-3.3819,-3.4111,-3.3899,-3.3314,-3.2445,-3.1336,-2.9824,-2.8961,-2.8257,-2.7331,0.0,-2.6543,-2.7266,-2.7764,-2.9122,-3.2341,0.0,-3.7136,-4.0451,-4.1802,-4.2776,-4.3589,-4.3887,-4.3939,-4.3704,-4.3831,-4.4192,-4.4832,-4.4214,-4.4182,-4.5005,-4.4343,-4.4281,-4.5029,-4.5059,-4.5416,-4.6185,-4.6185,-4.6134,-4.609,-4.609,-4.5619,-4.4764,-4.3884,-4.301,-4.2081,0.0,0.0,-3.9607,-3.8626,-3.8203,-3.8203,-3.8086,-3.7571,-3.6923,-3.6925,-3.691,-3.7039,-3.7925,-3.873,-3.9373,-3.962,-3.9828,-4.0054,-4.0503,-4.0259,-3.9747,-3.9513,-3.8417,-3.7244,-3.7068,-3.6506,-3.5986,-3.5995,-3.5416,-3.4833,-3.4704,-3.3319,-3.1615,-2.9985,-2.9656,-2.9392,-2.8524,-2.8367,-2.8283,-2.8056,-2.818,-2.8222,-2.8041,-2.9606,-3.0703,-3.0703,-3.082,-3.0897,-3.0896,-3.0894,-3.0892,-3.0892,-3.0831,-3.0792,-3.0795,-3.0796,-3.0793,-3.08,-3.0853,-3.0929,-3.0967,-3.1727,-3.2215,-3.2469,-3.321,-3.4025,-3.3981,-3.363,-3.3245,-3.3008,-3.2452,-3.1485,-2.9727,-2.9476,0.0,0.0,-2.639,-2.6339,-2.5888,-2.758,-2.9725,-3.1763,0.0,0.0,0.0,0.0,-4.3435,0.0,0.0,0.0,0.0,0.0,0.0,0.0,0.0,0.0,-4.5839,-4.575,-4.574,-4.5896,-4.5837,-4.5915,-4.6119,-4.6056,-4.6032,-4.6014,-4.6014,-4.5562,-4.4688,-4.3804,-4.2939,-4.2022,0.0,0.0,-3.9409,-3.789,-3.724,-3.7162,-3.644,-3.6072,-3.594,-3.6017,-3.5993,-3.6085,-3.6992,-3.7396,-3.77,-3.9209,-4.0205,-4.0545,-3.9259,-3.9296,-3.9493,-3.8056,-3.7445,-3.7047,-3.6315,-3.6022,-3.5928,-3.5911,-3.5799,-3.5484,-3.4764,-3.3254,-3.1719,-3.0695,-3.0486,-3.023,-2.9424,-2.9227,-2.8724,-2.7337,-2.7749,-2.7956,-2.7213,-2.8668,-2.9734,-2.9749,-3.0392,-3.0821,-3.082,-3.0819,-3.0817,-3.0817,-3.0806,-3.0808,-3.0805,-3.0793,-3.0792,-3.0795,-3.0801,-3.117,-3.1877,-3.2025,-3.2847,-3.4245,-3.4394,-3.4907,-3.429,-3.4561,-3.4663,-3.4678,-3.4059,-3.292,-3.0863,0.0,0.0,0.0,-2.5841,-2.588,-2.5526,-2.6877,0.0,-3.038,-3.283,0.0,0.0,0.0,0.0,0.0,0.0,0.0,0.0,0.0,0.0,0.0,0.0,0.0,-4.6019,-4.5578,-4.5318,-4.5315,-4.5283,-4.5504,-4.5991,-4.596,-4.5925,-4.5893,-4.5893,-4.5209,-4.3961,-4.3536,-4.2631,-4.1336,-3.964,0.0,-3.8686,-3.7015,-3.6575,-3.6869,-3.5998,-3.6206,-3.6955,-3.6531,-3.6642,-3.713,-3.7994,-3.8274,-3.8471,-3.9799,-4.0248,-4.0196,-3.9781,-3.9388,-3.8902,-3.805,-3.7203,-3.6434,-3.6017,-3.5894,-3.5908,-3.5897,-3.5543,-3.4852,-3.3526,-3.2583,-3.1615,-3.0286,-3.0027,-2.9619,-2.8365,-2.8126,-2.7662,-2.6409,-2.697,-2.7217,-2.634,-2.8131,-2.9497,-2.9497,-2.9869,-3.0317,-3.0758,-3.0792,-3.0788,-3.0743,-3.0773,-3.0774,-3.0749,-3.0788,-3.0807,-3.081,-3.0807,-3.1003,-3.1426,-3.1841,-3.2483,-3.3314,-3.3713,-3.4377,-3.465,-3.5552,-3.6168,-3.6273,-3.5723,-3.4537,-3.221,-3.0405,0.0,-2.6107,-2.5561,-2.5511,-2.552,-2.643,-2.7747,0.0,-3.1394,-3.4306,0.0,0.0,0.0,0.0,0.0,0.0,0.0,0.0,0.0,0.0,0.0,0.0,-4.5938,-4.5054,-4.4647,-4.4841,-4.4821,-4.5156,-4.5847,-4.5845,-4.581,-4.577,-4.577,-4.4873,-4.3253,-4.3265,-4.2331,-4.0665,-3.9168,0.0,0.0,-3.6543,-3.6201,-3.6557,-3.588,-3.6551,-3.7815,-3.7125,-3.7434,-3.8292,-3.9129,-3.9393,-3.9535,-4.0398,-4.0304,-3.992,-4.041,-3.9656,-3.8574,-3.8225,-3.7179,-3.6108,-3.5924,-3.5876,-3.5889,-3.5885,-3.5067,-3.3913,-3.2558,-3.1968,-3.1291,-2.9945,-2.9534,-2.8923,-2.7433,-2.7,-2.6592,-2.5732,-2.6174,-2.6379,-2.5699,-2.7544,-2.8996,-2.9203,-2.9538,-3.0022,-3.0713,-3.0777,-3.0764,-3.0695,-3.0753,-3.0753,-3.0698,-3.076,-3.0786,-3.0801,-3.0985,-3.0985,-3.0772,-3.1585,-3.208,-3.2276,-3.271,-3.3487,-3.4962,-3.5581,-3.6273,-3.6301,-3.6288,-3.5615,-3.3146,0.0,-2.9562,-2.708,-2.6051,-2.5596,-2.5598,-2.6952,-2.8648,0.0,-3.2754,-3.5616,-3.9201,0.0,0.0,0.0,0.0,0.0,0.0,0.0,0.0,0.0,0.0,0.0,0.0,-4.4901,-4.4812,-4.5667,-4.5573,-4.5587,-4.5723,-4.5662,-4.562,-4.5612,-4.5612,-4.4749,-4.3115,-4.3123,-4.221,-4.0579,0.0,0.0,0.0,-3.7063,-3.6305,-3.57,-3.5623,-3.6138,-3.6922,-3.6845,-3.7366,-3.8234,-3.9102,-3.9404,-3.9527,-4.0351,-4.0591,-4.0492,-3.9892,-3.9602,-3.9179,-3.7644,-3.7106,-3.6806,-3.6004,-3.5817,-3.5801,-3.5803,-3.4539,-3.3285,-3.3126,-3.1849,-3.0692,-3.0605,-2.9947,-2.9121,-2.822,-2.7366,-2.6531,-2.5715,-2.5665,-2.5685,-2.5604,-2.6459,-2.7362,-2.824,-2.9672,-3.0611,-3.0709,-3.071,-3.0714,-3.0701,-3.0701,-3.0707,-3.0698,-3.0716,-3.0739,-3.0799,-3.1583,-3.1554,-3.0706,-3.1527,-3.2318,-3.3075,-3.235,-3.288,-3.5698,-3.6937,-3.8004,-3.8082,-3.7671,-3.6481,-3.3603,0.0,-2.9621,-2.6656,-2.5802,-2.5603,-2.5647,-2.6654,-2.7869,-2.9043,-3.0523,-3.2713,-3.6148,0.0,0.0,0.0,0.0,0.0,0.0,0.0,0.0,0.0,0.0,0.0,0.0,-4.5177,-4.5238,-4.5671,-4.5547,-4.5521,-4.5584,-4.5514,-4.5477,-4.5458,-4.4959,-4.4084,-4.2951,-4.2481,-4.1631,-4.0492,0.0,0.0,0.0,-3.7018,-3.6517,-3.6213,-3.5668,-3.661,-3.818,-3.7661,-3.8319,-3.9469,-3.928,-3.9211,-3.9189,-3.9031,-3.8991,-3.9082,-3.9392,-3.8797,-3.7909,-3.7225,-3.6667,-3.6187,-3.5875,-3.576,-3.5737,-3.5694,-3.4371,-3.3146,-3.3141,-3.18,-3.0595,-3.0582,-3.0333,-2.9695,-2.8319,-2.7794,-2.7126,-2.5748,-2.5984,-2.6311,-2.6276,-2.7468,-2.8452,-2.8822,-2.9502,-3.0128,-3.0656,-3.0694,-3.0672,-3.0641,-3.0649,-3.0638,-3.0642,-3.1141,-3.1453,-3.1524,-3.2331,-3.2574,-3.22,-3.3013,-3.3598,-3.3971,-3.3587,-3.3766,-3.5861,-3.7506,-3.8777,-3.8917,-3.8214,-3.6733,0.0,0.0,-2.9447,-2.6909,-2.6175,-2.6095,-2.6387,-2.7145,-2.7899,-2.8499,-2.9497,-3.1222,-3.414,-3.545,0.0,0.0,0.0,0.0,0.0,0.0,0.0,0.0,0.0,0.0,0.0,-4.5258,-4.539,-4.5542,-4.5429,-4.54,-4.5429,-4.536,-4.5213,-4.4954,-4.4303,-4.3464,-4.2449,-4.1883,-4.1172,-4.0362,0.0,0.0,0.0,-3.6908,-3.6462,-3.622,-3.5614,-3.6612,-3.8369,-3.7996,-3.8597,-3.955,-3.9225,-3.8916,-3.858,-3.8033,-3.7709,-3.7663,-3.8346,-3.7797,-3.6897,-3.6629,-3.6126,-3.5629,-3.5403,-3.5345,-3.5355,-3.5538,-3.4118,-3.2774,-3.3026,-3.1753,-3.055,-3.0514,-3.0356,-2.9743,-2.8266,-2.7838,-2.7209,-2.5728,-2.602,-2.6404,-2.6347,-2.7857,-2.8916,-2.8938,-2.94,-2.9986,-3.0626,-3.0645,-3.0613,-3.0568,-3.0544,-3.067,-3.0933,-3.1536,-3.2003,-3.2346,-3.3161,-3.3468,-3.3207,-3.4031,-3.4308,-3.4075,-3.3771,-3.3488,-3.5164,-3.6742,-3.7942,-3.8073,-3.746,-3.6151,0.0,-3.1195,-2.9187,-2.834,-2.7546,-2.7226,-2.8037,-2.8822,-2.9392,-2.9469,-3.0824,-3.2464,-3.4153,-3.5787,0.0,0.0,0.0,0.0,0.0,0.0,0.0,0.0,0.0,0.0,0.0,-4.4914,-4.5068,-4.5398,-4.5338,-4.5307,-4.5307,-4.5243,-4.477,-4.3915,-4.3851,-4.296,-4.1416,-4.1416,-4.0959,0.0,0.0,0.0,0.0,-3.6807,-3.6028,-3.5312,-3.5293,-3.5802,-3.664,-3.7494,-3.7776,-3.7857,-3.8778,-3.8491,-3.7719,-3.77,-3.7239,-3.6684,-3.6569,-3.6661,-3.6614,-3.5766,-3.5554,-3.5391,-3.4538,-3.4355,-3.4608,-3.5409,-3.3655,-3.2033,-3.2829,-3.1678,-3.0504,-3.0504,-2.9864,-2.9031,-2.8147,-2.7342,-2.6501,-2.5628,-2.5513,-2.5506,-2.5511,-2.6989,-2.8036,-2.8109,-2.9544,-3.052,-3.0595,-3.0534,-3.0501,-3.0509,-3.0444,-3.0827,-3.1748,-3.1727,-3.2169,-3.3167,-3.4031,-3.4061,-3.3203,-3.4061,-3.4018,-3.3088,-3.2236,-3.1365,-3.4392,-3.5616,-3.6269,-3.578,-3.5391,-3.4361,-3.1273,-2.9959,-2.9012,-2.7656,-2.6673,-2.6499,-2.7922,-2.7851,-2.8123,-2.9908,-3.0602,-3.1507,0.0,0.0,0.0,0.0,0.0,0.0,0.0,0.0,0.0,0.0,0.0,0.0,0.0,-4.3321,-4.407,-4.5095,-4.5049,-4.4775,-4.4282,-4.4201,-4.3726,-4.286,-4.2332,-4.1789,-4.1176,-4.0663,0.0,0.0,0.0,0.0,0.0,-3.6407,-3.5845,-3.5153,-3.5117,-3.5595,-3.6329,-3.6539,-3.6977,-3.7384,-3.707,-3.6814,-3.6511,-3.597,-3.5672,-3.542,-3.4831,-3.5216,-3.5787,-3.5451,-3.4979,-3.4629,-3.4909,-3.4636,-3.4327,-3.4526,-3.3114,-3.1794,-3.1993,-3.1191,-3.039,-3.0311,-3.016,-2.9566,-2.8068,-2.815,-2.7947,-2.6466,-2.6728,-2.7267,-2.7811,-2.8359,-2.891,-2.9459,-3.0028,-3.0419,-3.0583,-3.0545,-3.0486,-3.0433,-3.0411,-3.0521,-3.0827,-3.1391,-3.2119,-3.3053,-3.395,-3.4594,-3.4904,-3.5141,-3.4789,-3.3892,-3.3067,-3.2201,-3.2964,-3.4162,-3.4641,-3.4198,-3.3535,0.0,-2.9571,-2.8686,-2.8164,-2.717,-2.6476,-2.6481,-2.7874,-2.7618,-2.7706,-2.9272,-2.9757,0.0,0.0,0.0,0.0,0.0,0.0,0.0,0.0,0.0,0.0,0.0,0.0,0.0,0.0,0.0,-4.2838,-4.3686,-4.436,-4.4373,-4.3691,-4.3603,-4.298,-4.1862,-4.1056,-4.0465,-4.0083,-3.9329,0.0,0.0,0.0,0.0,0.0,-3.5718,-3.5322,-3.4908,-3.4879,-3.5172,-3.5665,-3.5937,-3.6113,-3.623,-3.6031,-3.5788,-3.5442,-3.4602,-3.4159,-3.3866,-3.34,-3.3737,-3.4209,-3.3884,-3.3681,-3.3576,-3.375,-3.3494,-3.3236,-3.3475,-3.2294,-3.1162,-3.1455,-3.09,-3.0305,-3.0219,-3.0299,-2.9904,-2.8462,-2.875,-2.8673,-2.7271,-2.7465,-2.7958,-2.8479,-2.8811,-2.9194,-2.9724,-3.0088,-3.0349,-3.0504,-3.049,-3.0444,-3.04,-3.0377,-3.0525,-3.0883,-3.1397,-3.2223,-3.3433,-3.4055,-3.4789,-3.5657,-3.5292,-3.4839,-3.4272,-3.3109,-3.2257,0.0,-3.2189,-3.2861,-3.2925,-3.1723,-3.0095,-2.8398,-2.7432,0.0,-2.6889,-2.6775,-2.6977,-2.7908,-2.7929,-2.7879,-2.8102,-2.8664,0.0,0.0,0.0,0.0,0.0,0.0,0.0,0.0,0.0,0.0,0.0,0.0,0.0,0.0,0.0,-4.1449,-4.1449,-4.3212,-4.3885,-4.329,-4.3169,-4.236,-4.0877,-3.9939,-3.913,-3.8445,-3.7626,0.0,0.0,0.0,0.0,0.0,-3.4847,-3.4591,-3.4572,-3.4559,-3.4599,-3.476,-3.5493,-3.5221,-3.4589,-3.548,-3.5286,-3.4524,-3.3665,-3.284,-3.2203,-3.226,-3.2295,-3.2167,-3.1548,-3.1908,-3.2328,-3.1577,-3.1427,-3.1642,-3.234,-3.1271,-3.0324,-3.1142,-3.072,-3.0181,-3.0181,-3.0248,-3.0035,-2.9227,-2.9139,-2.8877,-2.8011,-2.7888,-2.7891,-2.7947,-2.8612,-2.9104,-2.9152,-2.9832,-3.0311,-3.0361,-3.0383,-3.0389,-3.0398,-3.0324,-3.0701,-3.1555,-3.1533,-3.2327,-3.4077,-3.4297,-3.4789,-3.5575,-3.477,-3.4384,-3.4334,-3.267,-3.1846,-2.5659,0.0,-2.93,-2.8652,-2.869,-2.8396,0.0,-2.6492,-2.6748,-2.6751,-2.6122,-2.6256,-2.8439,-2.7206,-2.6876,-3.0001,0.0,0.0,0.0,0.0,0.0,0.0,0.0,0.0,0.0,0.0,0.0,0.0,0.0,0.0,0.0,0.0,-3.9993,-3.9993,-4.1174,-4.1582,-4.1118,-4.1196,-4.0718,-3.9682,-3.8964,-3.8421,-3.8085,-3.7281,0.0,0.0,0.0,0.0,-3.4678,-3.4468,-3.4363,-3.4381,-3.4309,-3.4298,-3.4335,-3.4521,-3.446,-3.4318,-3.4587,-3.4519,-3.4197,-3.3485,-3.2745,-3.2009,-3.1314,-3.1252,-3.1509,-3.2005,-3.1815,-3.1552,-3.2022,-3.1711,-3.1332,-3.1557,-3.0803,-3.0113,-3.0412,-3.0297,-3.013,-3.013,-3.0187,-2.9947,-2.9098,-2.9493,-2.9653,-2.8772,-2.9199,-2.9553,-2.941,-2.9668,-2.9804,-2.9711,-3.0065,-3.0266,-3.0173,-3.0254,-3.0311,-3.0254,-3.0279,-3.0382,-3.0554,-3.0599,-3.1424,-3.3173,-3.4575,-3.5339,-3.5457,-3.5344,-3.5243,-3.5115,-3.4201,-3.3329,-2.3338,-2.5599,-2.7693,-2.7614,-2.7626,-2.7403,-2.6424,-2.5865,-2.5536,-2.5503,-2.5042,-2.5187,-2.6902,-2.6358,-2.6618,0.0,0.0,0.0,0.0,0.0,0.0,0.0,0.0,0.0,0.0,0.0,0.0,0.0,0.0,0.0,0.0,0.0,-3.7718,-3.7802,-3.8318,-3.915,-4.0247,-3.9946,-3.9375,-3.8606,-3.7505,-3.6889,-3.6692,-3.59,0.0,0.0,0.0,0.0,-3.4074,-3.4036,-3.4049,-3.4074,-3.4036,-3.4036,-3.4074,-3.4099,-3.4111,-3.4056,-3.3722,-3.3086,-3.2358,-3.2024,-3.1381,-3.0637,-3.0111,-3.0077,-3.0282,-3.0838,-3.0678,-3.0471,-3.0951,-3.0798,-3.0538,-3.0606,-3.0243,-2.9945,-3.0083,-3.0049,-3.0034,-3.0094,-3.0123,-3.0011,-2.9567,-2.9865,-2.9985,-2.9525,-2.9805,-3.0022,-2.9907,-3.0022,-3.0042,-2.9905,-3.0109,-3.0213,-3.0109,-3.0171,-3.0206,-3.0207,-3.0266,-3.0273,-3.0195,-3.0266,-3.1117,-3.2878,-3.4641,-3.5521,-3.5483,-3.552,-3.5496,-3.5326,-3.4186,-3.3327,-2.2122,-2.4322,-2.6562,-2.7478,-2.7209,-2.6694,-2.6695,-2.5393,-2.4192,-2.4248,-2.4096,-2.4249,-2.5189,-2.5908,0.0,0.0,0.0,0.0,0.0,0.0,0.0,0.0,0.0,0.0,0.0,0.0,0.0,0.0,0.0,0.0,0.0,0.0,0.0,-3.5686,-3.5718,-3.6916,-3.9399,-3.874,-3.8099,-3.7507,-3.6041,-3.5262,-3.5108,-3.4354,-3.3895,0.0,0.0,0.0,-3.3611,-3.3529,-3.3529,-3.357,-3.3684,-3.3688,-3.3676,-3.3871,-3.3934,-3.381,-3.3043,-3.1759,-3.0475,-3.0392,-2.986,-2.9244,-2.9104,-2.9052,-2.9071,-2.9188,-2.9332,-2.9463,-2.9482,-2.9579,-2.9692,-2.9773,-2.978,-2.9815,-2.9967,-2.994,-2.9929,-3.0057,-3.0076,-3.0076,-3.0128,-3.011,-3.0065,-3.0057,-2.9978,-2.9885,-2.9868,-3.0002,-3.0022,-2.988,-3.0034,-3.0101,-3.0023,-3.0026,-3.0068,-3.0111,-3.0207,-3.0234,-3.0194,-3.0476,-3.1353,-3.284,-3.4558,-3.5469,-3.5515,-3.5476,-3.5395,-3.5228,-3.3698,-3.2843,-2.0097,-2.1947,-2.3611,-2.4727,-2.54,-2.579,-2.5809,-2.4884,-2.4221,-2.4884,-2.4343,-2.4396,-2.6548,-2.7003,-2.7766,0.0,0.0,0.0,0.0,0.0,0.0,0.0,0.0,0.0,0.0,0.0,0.0,0.0,0.0,0.0,0.0,0.0,0.0,-3.5205,-3.5375,-3.577,-3.6375,-3.6474,-3.6461,-3.6343,-3.5482,-3.4986,-3.4822,-3.3966,-3.3488,0.0,0.0,-3.277,-3.324,-3.2732,-3.2515,-3.2584,-3.3223,-3.3092,-3.263,-3.3392,-3.3633,-3.3482,-3.2802,-3.2015,-3.1206,-3.0471,-3.0135,-2.9885,-2.9153,-2.8893,-2.8839,-2.8863,-2.9052,-2.9262,-2.9392,-2.9472,-2.956,-2.9681,-2.9717,-2.9753,-2.9899,-2.9916,-2.9916,-2.9921,-2.9921,-2.9916,-2.9876,-2.9893,-2.9901,-2.9859,-2.9874,-2.9866,-2.9744,-2.9839,-2.9872,-2.9753,-2.9811,-2.9801,-2.9689,-2.9725,-2.9734,-2.9707,-2.9977,-3.013,-3.0123,-3.1497,-3.2367,-3.2645,-3.4307,-3.5166,-3.5179,-3.5226,-3.5207,-3.5111,-3.4236,-3.3387,-1.8761,-2.0263,-2.1636,-2.303,-2.5171,-2.706,-2.7502,-2.6078,-2.4861,-2.5594,-2.4941,0.0,0.0,0.0,0.0,0.0,0.0,0.0,0.0,0.0,0.0,0.0,0.0,0.0,0.0,0.0,0.0,0.0,0.0,0.0,0.0,0.0,0.0,0.0,-3.3821,-3.3758,-3.3492,-3.4122,-3.4706,-3.5233,-3.4411,-3.3753,-3.3207,-3.2864,-3.239,-3.184,0.0,-3.1603,-3.1935,-3.162,-3.15,-3.1578,-3.1916,-3.184,-3.161,-3.2024,-3.2169,-3.2051,-3.1341,-3.0586,-2.9862,-2.9503,-2.9387,-2.9302,-2.887,-2.8749,-2.8749,-2.87,-2.8863,-2.9064,-2.9203,-2.9318,-2.9421,-2.957,-2.9626,-2.9682,-2.9849,-2.983,-2.9822,-2.994,-2.9916,-2.9893,-2.9851,-2.9825,-2.9771,-2.9699,-2.9617,-2.9561,-2.9494,-2.9542,-2.9514,-2.9397,-2.9476,-2.9504,-2.9436,-2.9494,-2.9589,-2.969,-2.9839,-2.9956,-2.9984,-3.1189,-3.2061,-3.2542,-3.3767,-3.4641,-3.5108,-3.5088,-3.5062,-3.4972,-3.4205,-3.3597,-1.7744,-1.8916,-2.0123,-2.2051,-2.4723,-2.7237,-2.8621,-2.6819,-2.5172,-2.6241,-2.5665,0.0,0.0,-2.8264,0.0,0.0,0.0,0.0,0.0,0.0,0.0,0.0,0.0,0.0,0.0,0.0,0.0,0.0,0.0,0.0,0.0,0.0,0.0,0.0,-3.1942,-3.1725,-3.1255,-3.1918,-3.2731,-3.3571,-3.3124,-3.2418,-3.1548,-3.159,-3.1252,-3.0606,-3.0456,-3.0528,-3.0725,-3.0549,-3.0492,-3.0548,-3.0714,-3.08,-3.086,-3.0884,-3.0785,-3.0595,-3.0033,-2.9277,-2.8587,-2.8644,-2.87,-2.87,-2.8625,-2.865,-2.87,-2.8625,-2.8712,-2.887,-2.9033,-2.9163,-2.9246,-2.917,-2.9371,-2.9495,-2.9238,-2.9294,-2.9369,-2.9265,-2.9346,-2.9436,-2.9409,-2.9476,-2.956,-2.9668,-2.9425,-2.9286,-2.9439,-2.932,-2.9158,-2.906,-2.9129,-2.9183,-2.9198,-2.927,-2.9423,-2.9645,-2.97,-2.9754,-2.9832,-3.0823,-3.1718,-3.2393,-3.3437,-3.4281,-3.4954,-3.4926,-3.4898,-3.4841,-3.4036,-3.3639,-1.6997,-1.7857,-1.9041,-2.1963,-2.2988,-2.4078,-2.7115,-2.5788,-2.4525,-2.6764,-2.643,0.0,0.0,0.0,0.0,0.0,0.0,0.0,0.0,0.0,0.0,0.0,0.0,0.0,0.0,0.0,0.0,0.0,0.0,0.0,0.0,0.0,0.0,0.0,0.0,-3.0128,-3.0223,-3.0144,-3.0388,-3.0889,-3.1646,-3.1461,-3.0508,-3.0508,-3.0445,-3.0297,-2.9739,-2.9828,-3.0295,-2.9718,-2.949,-2.9562,-3.0181,-3.0558,-3.0711,-3.057,-3.0177,-2.9688,-2.9642,-2.9125,-2.8505,-2.8587,-2.865,-2.87,-2.8625,-2.865,-2.87,-2.8625,-2.8612,-2.8687,-2.8934,-2.9055,-2.8931,-2.8275,-2.8825,-2.9043,-2.7381,-2.7793,-2.8194,-2.7214,-2.7581,-2.8028,-2.7959,-2.8563,-2.9242,-2.9789,-2.939,-2.9258,-2.9862,-2.9342,-2.8936,-2.8922,-2.8875,-2.8857,-2.8922,-2.9055,-2.9156,-2.9243,-2.9412,-2.956,-2.9626,-3.1112,-3.2004,-3.2135,-3.3652,-3.4475,-3.455,-3.4604,-3.4666,-3.4689,-3.3892,-3.3515,-1.4988,-1.6608,-1.8646,-2.0791,-2.1845,-2.3244,-2.6667,-2.6626,-2.6346,-2.8119,-2.7676,0.0,0.0,0.0,0.0,0.0,0.0,0.0,0.0,0.0,0.0,0.0,0.0,0.0,0.0,0.0,0.0,0.0,0.0,0.0,0.0,0.0,0.0,0.0,0.0,-2.9597,-2.911,-2.963,-2.9481,-2.8675,-3.0019,-3.0229,-2.9409,-2.9455,-2.919,-2.8684,-2.8523,-2.862,-2.885,-2.8607,-2.8529,-2.8546,-2.8802,-2.9286,-2.9765,-2.9205,-2.9208,-2.9414,-2.8954,-2.8631,-2.8445,-2.8523,-2.8607,-2.87,-2.8625,-2.865,-2.8669,-2.8574,-2.8549,-2.8569,-2.8767,-2.8803,-2.8724,-2.8496,-2.873,-2.8842,-2.8191,-2.8399,-2.8614,-2.8278,-2.8429,-2.8544,-2.8439,-2.8642,-2.8894,-2.9113,-2.8919,-2.8852,-2.915,-2.8907,-2.87,-2.8657,-2.8632,-2.8644,-2.8712,-2.881,-2.8851,-2.8887,-2.9149,-2.9328,-2.9349,-3.0456,-3.1336,-3.1907,-3.3011,-3.3832,-3.4393,-3.4351,-3.4393,-3.4443,-3.418,-3.407,-1.4514,-1.6186,-1.8305,-1.9991,-2.1105,-2.2629,-2.5798,-2.6523,-2.6954,-2.8424,-2.8061,-2.7574,-2.7934,0.0,0.0,0.0,0.0,0.0,0.0,0.0,0.0,0.0,0.0,0.0,0.0,0.0,0.0,0.0,0.0,0.0,0.0,0.0,0.0,0.0,0.0,-2.8623,-2.8007,-2.8622,-2.8395,-2.7359,-2.8445,-2.8752,-2.8388,-2.8434,-2.8167,-2.7657,-2.7768,-2.7827,-2.7868,-2.7868,-2.7882,-2.7911,-2.7986,-2.8362,-2.8831,-2.8266,-2.8436,-2.8884,-2.8388,-2.8246,-2.8331,-2.838,-2.8497,-2.86,-2.8523,-2.8574,-2.8594,-2.8453,-2.8414,-2.8453,-2.8518,-2.8543,-2.8471,-2.8286,-2.8183,-2.8038,-2.7556,-2.747,-2.7479,-2.7321,-2.767,-2.7917,-2.7834,-2.8196,-2.8554,-2.8765,-2.8576,-2.8486,-2.877,-2.8589,-2.8432,-2.8406,-2.8419,-2.8427,-2.8497,-2.8574,-2.8607,-2.8607,-2.8839,-2.8991,-2.9026,-2.9863,-3.0731,-3.1626,-3.2403,-3.3241,-3.4111,-3.4061,-3.4086,-3.4173,-3.4245,-3.4269,-1.5984,-1.679,-1.7933,-1.9732,-2.0825,-2.2022,-2.4278,-2.5052,-2.576,-2.7372,-2.7332,-2.6991,-2.6908,0.0,0.0,0.0,0.0,0.0,0.0,0.0,0.0,0.0,0.0,0.0,0.0,0.0,0.0,0.0,0.0,0.0,0.0,0.0,0.0,0.0,0.0,0.0,-2.6893,-2.6893,-2.6926,-2.7008,-2.6926,-2.7105,-2.7496,-2.7496,-2.7542,-2.7602,-2.7602,-2.7602,-2.7602,-2.7602,-2.763,-2.7716,-2.7925,-2.8,-2.8,-2.8,-2.8,-2.8014,-2.8014,-2.8042,-2.8112,-2.8168,-2.8291,-2.8367,-2.8313,-2.8393,-2.8453,-2.8242,-2.8228,-2.8286,-2.8201,-2.83,-2.8182,-2.7392,-2.7107,-2.6535,-2.4876,-2.4515,-2.429,-2.3554,-2.4663,-2.5699,-2.5699,-2.6978,-2.8219,-2.8878,-2.8423,-2.8237,-2.8913,-2.8478,-2.8126,-2.82,-2.8191,-2.8214,-2.8286,-2.8362,-2.8401,-2.8401,-2.8453,-2.8556,-2.8682,-2.947,-3.0347,-3.1283,-3.2022,-3.2826,-3.3698,-3.3698,-3.3766,-3.3895,-3.3959,-3.3998,-1.4817,-1.6524,-1.8479,-1.9409,-2.1556,-2.3632,-2.4281,-2.5147,-2.6206,0.0,-2.7727,-2.7391,-2.6869,0.0,0.0,0.0,0.0,0.0,0.0,0.0,0.0,0.0,0.0,0.0,0.0,0.0,0.0,0.0,0.0,0.0,0.0,0.0,0.0,0.0,0.0,0.0,-2.6332,-2.6487,-2.6607,-2.6725,-2.6708,-2.6859,-2.7153,-2.72,-2.723,-2.7261,-2.7308,-2.7324,-2.734,-2.7434,-2.7511,-2.7554,-2.7632,-2.7677,-2.7721,-2.7721,-2.7748,-2.7806,-2.7832,-2.7821,-2.7777,-2.7879,-2.7904,-2.7918,-2.7933,-2.8017,-2.8055,-2.7947,-2.7993,-2.8067,-2.795,-2.7879,-2.7797,-2.7649,-2.7088,-2.6437,-2.5939,-2.5392,-2.4927,-2.4704,-2.5425,-2.605,-2.5993,-2.6827,-2.7574,-2.777,-2.7797,-2.8103,-2.8953,-2.8489,-2.8269,-2.8718,-2.8347,-2.8067,-2.8081,-2.815,-2.8191,-2.8191,-2.8205,-2.83,-2.8484,-2.9342,-3.0244,-3.1154,-3.1874,-3.272,-3.3633,-3.3534,-3.3534,-3.3633,-3.3629,-3.3661,-1.5798,-1.7328,-1.9052,-2.0321,-2.1901,-2.3406,-2.4361,0.0,0.0,0.0,0.0,-2.7195,0.0,0.0,0.0,0.0,0.0,0.0,0.0,0.0,0.0,0.0,0.0,0.0,0.0,0.0,0.0,0.0,0.0,0.0,0.0,0.0,0.0,0.0,0.0,0.0,-2.5259,-2.5413,-2.5548,-2.5664,-2.5916,-2.6152,-2.6385,-2.6755,-2.694,-2.6924,-2.7022,-2.7104,-2.7119,-2.723,-2.734,-2.7465,-2.7465,-2.7526,-2.7602,-2.7572,-2.7585,-2.7612,-2.7644,-2.76,-2.7539,-2.7552,-2.7519,-2.7489,-2.7522,-2.7565,-2.7607,-2.7565,-2.7612,-2.7674,-2.7659,-2.7524,-2.7361,-2.7274,-2.642,-2.556,-2.5237,-2.4488,-2.3979,-2.4302,-2.4986,-2.5622,-2.593,-2.6649,-2.7195,-2.7258,-2.7428,-2.7787,-2.8381,-2.8106,-2.8015,-2.8428,-2.8059,-2.781,-2.7839,-2.7853,-2.7853,-2.7853,-2.7882,-2.7954,-2.8081,-2.8734,-2.9656,-3.0888,-3.1258,-3.2093,-3.3401,-3.3271,-3.3241,-3.3345,-3.3345,-3.3345,-1.7856,-1.8618,-1.9459,-2.1735,-2.1907,0.0,-2.4434,-2.5706,-2.6651,-2.7481,0.0,0.0,0.0,0.0,0.0,0.0,0.0,0.0,0.0,0.0,0.0,0.0,0.0,0.0,0.0,0.0,0.0,0.0,0.0,0.0,0.0,0.0,0.0,0.0,0.0,0.0,-2.3935,-2.4,-2.4065,0.0,-2.4747,-2.5096,-2.5263,-2.6219,-2.664,-2.6572,-2.6759,-2.6893,-2.6958,-2.7006,-2.7166,-2.7357,-2.7357,-2.745,-2.7557,-2.7496,-2.7481,-2.7465,-2.7388,-2.7341,-2.731,-2.7165,-2.7117,-2.7101,-2.7053,-2.7085,-2.7149,-2.7149,-2.7165,-2.7181,-2.7308,-2.7198,-2.6928,-2.6328,-2.5305,-2.4242,-2.3439,-2.2534,-2.2099,-2.2909,-2.3816,-2.4695,-2.5581,-2.6413,-2.699,-2.7151,-2.7277,-2.7405,-2.7521,-2.7485,-2.7544,-2.77,-2.7559,-2.7481,-2.7557,-2.7511,-2.7481,-2.7496,-2.7557,-2.7572,-2.7557,-2.7824,-2.8766,-3.041,-3.0346,-3.1169,-3.2947,-3.2912,-3.2948,-3.3055,-3.3055,-3.3055,-1.6449,-1.7558,-1.8683,-2.0289,-2.1768,-2.3102,-2.4284,-2.4762,-2.5409,-2.6966,0.0,0.0,0.0,0.0,0.0,0.0,0.0,0.0,0.0,0.0,0.0,0.0,0.0,0.0,0.0,0.0,0.0,0.0,0.0,0.0,0.0,0.0,0.0,0.0,0.0,-2.2929,-2.336,-2.3548,-2.3667,0.0,-2.3814,-2.3879,-2.3962,-2.5627,-2.6348,-2.6294,-2.6329,-2.6434,-2.6521,-2.6539,-2.6758,-2.7088,-2.7088,-2.7201,-2.736,-2.7345,-2.728,-2.7182,-2.7119,-2.6957,-2.6742,-2.6607,-2.6539,-2.6504,-2.6539,-2.6641,-2.6741,-2.6791,-2.6858,-2.6873,-2.6923,-2.6858,-2.6419,-2.4936,-2.4405,-2.3976,-2.3162,-2.2247,-2.1829,-2.2631,-2.3405,-2.4232,-2.5096,-2.5966,-2.6624,-2.6925,-2.7087,-2.7326,-2.776,-2.7448,-2.7374,-2.7877,-2.7448,-2.7152,-2.7293,-2.726,-2.7308,-2.7419,-2.7434,-2.7355,-2.7214,-2.7567,-2.8262,-2.9319,-2.9909,-3.0767,-3.1864,-3.2387,-3.2688,-3.2721,-3.2721,-3.2721,-1.6412,-1.7658,-1.88,-2.034,0.0,-2.2637,-2.346,-2.3689,-2.4086,-2.5372,0.0,0.0,0.0,0.0,0.0,0.0,0.0,0.0,0.0,0.0,0.0,0.0,0.0,0.0,0.0,0.0,0.0,0.0,0.0,0.0,0.0,0.0,0.0,0.0,-2.1972,-2.1956,-2.2242,-2.2376,-2.2442,-2.2459,-2.2815,-2.3121,-2.3444,-2.4419,-2.5118,-2.5519,-2.512,-2.5274,-2.578,-2.5848,-2.632,-2.6957,-2.6516,-2.6444,-2.6585,-2.6131,-2.5866,-2.5805,-2.6097,-2.6067,-2.5949,-2.6144,-2.6173,-2.6154,-2.6154,-2.6207,-2.6295,-2.6418,-2.6435,-2.6435,-2.6539,-2.647,-2.5947,-2.4265,-2.3918,-2.3636,-2.2326,-2.1662,-2.1648,-2.2769,-2.3306,-2.3995,-2.5303,-2.5905,-2.6278,-2.6434,-2.6607,-2.6843,-2.7232,-2.713,-2.7144,-2.747,-2.7213,-2.7024,-2.7104,-2.7086,-2.7136,-2.72,-2.7217,-2.7153,-2.7006,-2.7509,-2.8113,-2.8751,-2.9522,-3.0373,-3.131,-3.1949,-3.2301,-3.2404,-3.2404,-3.2421,-1.6368,-1.7822,-1.9085,-2.0734,-2.1309,0.0,-2.2278,-2.252,-2.2748,0.0,0.0,0.0,0.0,0.0,0.0,0.0,0.0,0.0,0.0,0.0,0.0,0.0,0.0,0.0,0.0,0.0,0.0,0.0,0.0,0.0,0.0,0.0,-2.1761,-2.1135,-2.1167,-2.1167,-2.1119,-2.1183,-2.1199,-2.1135,-2.1794,-2.2421,-2.3011,-2.2881,-2.3442,-2.4485,-2.3811,-2.3996,-2.481,-2.501,-2.5648,-2.6385,-2.5696,-2.5489,-2.551,-2.4711,-2.4334,-2.4308,-2.4813,-2.5046,-2.5177,-2.556,-2.5766,-2.5899,-2.5826,-2.5826,-2.5897,-2.6063,-2.6028,-2.5992,-2.6136,-2.6046,-2.5502,-2.3987,-2.3747,-2.3356,-2.1456,-2.1102,-2.1565,-2.293,-2.3414,-2.4103,-2.5651,-2.5919,-2.5919,-2.5992,-2.6136,-2.6329,-2.6503,-2.6691,-2.6809,-2.6876,-2.6876,-2.6892,-2.6925,-2.6925,-2.6925,-2.6909,-2.6909,-2.6859,-2.6742,-2.7418,-2.7947,-2.8268,-2.9213,-3.011,-3.0907,-3.153,-3.1894,-3.2055,-3.2108,-3.2161,-1.4484,-1.6516,-1.8562,0.0,-2.0762,-2.0974,0.0,0.0,-2.1391,0.0,0.0,0.0,0.0,0.0,0.0,0.0,0.0,0.0,0.0,0.0,0.0,0.0,0.0,0.0,0.0,0.0,0.0,0.0,0.0,0.0,-2.1854,-2.1319,-2.0938,-2.0776,-2.0776,-2.0776,-2.0776,-2.0827,-2.086,-2.0844,-2.0905,-2.1266,-2.1897,-2.1178,-2.1791,-2.3399,-2.3248,-2.3319,-2.3589,-2.4116,-2.4299,-2.4265,-2.459,-2.4596,-2.4407,-2.4161,-2.4064,-2.4016,-2.38,-2.419,-2.471,-2.4448,-2.4845,-2.5473,-2.5473,-2.5562,-2.5656,-2.5754,-2.5756,-2.5738,-2.5717,-2.5586,-2.5169,-2.3961,-2.3696,-2.3196,-2.1254,-2.1167,-2.1706,-2.26,-2.3903,-2.5038,-2.5554,-2.557,-2.5591,-2.5956,-2.601,-2.6099,-2.6239,-2.6329,-2.6383,-2.6383,-2.64,-2.6452,-2.664,-2.664,-2.6589,-2.6487,-2.647,-2.6366,-2.6134,-2.6884,-2.7321,-2.7378,-2.9178,-3.0142,-3.0136,-3.109,-3.1504,-3.143,-3.1727,-3.1873,-1.4719,-1.6638,-1.8343,0.0,-2.0248,-2.0646,-2.0527,0.0,0.0,0.0,0.0,0.0,0.0,0.0,0.0,0.0,0.0,0.0,0.0,0.0,0.0,0.0,0.0,0.0,0.0,0.0,0.0,0.0,0.0,-2.1591,-2.1199,-2.0799,-2.0543,-2.0491,-2.0491,-2.0491,-2.0491,-2.0509,-2.051,-2.051,-2.0444,-2.0583,-2.0895,-2.0516,-2.1077,-2.2334,-2.185,-2.1982,-2.2539,-2.2912,-2.3506,-2.4139,-2.3566,-2.347,-2.3537,-2.2606,-2.2216,-2.2198,-2.245,-2.2803,-2.3236,-2.3806,-2.4286,-2.475,-2.5115,-2.5336,-2.5429,-2.547,-2.5473,-2.5454,-2.5359,-2.4901,-2.4328,-2.3686,-2.3173,-2.2532,-2.1526,-2.1587,-2.2133,-2.312,-2.4274,-2.5166,-2.5394,-2.532,-2.5323,-2.5584,-2.5642,-2.5752,-2.5989,-2.6151,-2.6259,-2.6295,-2.6365,-2.6434,-2.6434,-2.6434,-2.6365,-2.6189,-2.6189,-2.6066,-2.583,-2.6926,-2.7516,-2.7473,-2.8985,-2.9736,-2.9716,-3.0549,-3.0918,-3.0858,-3.0998,-3.1176,-1.4321,-1.5857,-1.7106,-1.8556,-1.95,-2.0122,0.0,0.0,0.0,0.0,0.0,0.0,0.0,0.0,0.0,0.0,0.0,0.0,0.0,0.0,0.0,0.0,0.0,0.0,0.0,0.0,0.0,0.0,0.0,-2.0992,-2.0292,-2.0297,-2.0116,-1.9677,-1.9882,-1.9899,-1.973,-1.9931,-2.0066,-2.0148,-2.0102,-2.01,-2.0098,-2.01,-2.0501,-2.1157,-2.0677,-2.0875,-2.1583,-2.1877,-2.2701,-2.3694,-2.2757,-2.2576,-2.2665,-2.1461,-2.0853,-2.0705,-2.1177,-2.1525,-2.1937,-2.3117,-2.3692,-2.4087,-2.4748,-2.5084,-2.5178,-2.5123,-2.5158,-2.5091,-2.4709,-2.4253,-2.374,-2.3277,-2.2772,-2.2319,-2.2049,-2.2178,-2.267,-2.3725,-2.4489,-2.5029,-2.522,-2.5107,-2.5088,-2.5352,-2.5394,-2.5511,-2.586,-2.6041,-2.6133,-2.6154,-2.6241,-2.6241,-2.6136,-2.6136,-2.6046,-2.5864,-2.6026,-2.6069,-2.5902,-2.7207,-2.7943,-2.7881,-2.8869,-2.9436,-2.9539,-3.0079,-3.03,-3.0295,-3.0405,-3.0555,-1.2007,-1.2917,0.0,-1.6879,-1.8302,-1.9131,0.0,0.0,0.0,0.0,0.0,0.0,0.0,0.0,0.0,0.0,0.0,0.0,0.0,0.0,0.0,0.0,0.0,0.0,0.0,0.0,0.0,0.0,0.0,-2.0058,-1.9133,-1.9747,-1.9434,-1.7977,-1.8733,-1.8847,-1.822,-1.8912,-1.9421,-1.9744,-1.9797,-1.9711,-1.9548,-1.9744,-1.9812,-1.9825,-2.0233,-2.0457,-2.062,-2.1206,-2.1588,-2.1871,-2.2238,-2.2137,-2.1749,-2.1459,-2.0969,-2.0393,-2.025,-2.0696,-2.1448,-2.2139,-2.2894,-2.3658,-2.4407,-2.4726,-2.4802,-2.467,-2.4726,-2.4585,-2.3562,-2.3631,-2.3749,-2.2781,-2.291,-2.314,-2.2819,-2.2915,-2.3284,-2.4117,-2.4456,-2.4731,-2.5052,-2.4946,-2.5001,-2.5521,-2.547,-2.5511,-2.586,-2.5915,-2.5881,-2.5738,-2.5738,-2.5701,-2.5642,-2.5642,-2.5586,-2.5435,-2.6079,-2.6469,-2.6466,-2.7698,-2.8372,-2.835,-2.8988,-2.9438,-2.9677,-2.9788,-2.9804,-2.9764,-3.0135,-3.0225,0.0,0.0,0.0,-1.4906,-1.6804,-1.8363,-1.8573,0.0,0.0,0.0,0.0,0.0,0.0,0.0,0.0,0.0,0.0,0.0,0.0,0.0,0.0,0.0,0.0,0.0,0.0,0.0,0.0,0.0,0.0,0.0,-1.9051,-1.9216,-1.8844,-1.7776,-1.8086,-1.8363,-1.8558,-1.8817,-1.9187,-1.9708,-1.9687,-1.9409,-1.8939,-1.9439,-1.9412,-1.9041,-1.9723,-2.0078,-2.0198,-2.0463,-2.0834,-2.1234,-2.0962,-2.0941,-2.0993,-2.0455,-2.008,-1.9884,-1.9795,-1.9999,-2.0452,-2.1614,-2.2301,-2.2875,-2.3948,-2.4467,-2.4645,-2.4564,-2.458,-2.4497,-2.403,-2.3626,-2.3181,-2.2425,-2.2782,-2.3282,-2.3147,-2.3456,-2.3886,-2.4333,-2.4584,-2.4786,-2.5005,-2.4906,-2.4902,-2.5162,-2.5103,-2.5103,-2.5359,-2.5397,-2.5378,-2.5323,-2.5346,-2.5346,-2.5266,-2.5282,-2.5435,-2.5759,-2.6029,-2.6343,-2.6757,-2.7778,-2.8249,-2.8079,-2.8797,-2.9213,-2.9305,-2.935,-2.9289,-2.9175,-2.925,-2.9371,-0.9846,0.0,0.0,0.0,0.0,-1.6819,-1.7711,0.0,0.0,0.0,0.0,0.0,0.0,0.0,0.0,0.0,0.0,0.0,0.0,0.0,0.0,0.0,0.0,0.0,0.0,0.0,0.0,0.0,0.0,0.0,-1.8534,-1.8537,-1.8221,-1.7462,-1.7208,-1.7508,-1.8388,-1.8438,-1.8822,-1.9508,-1.9505,-1.911,-1.8373,-1.8933,-1.8853,-1.8335,-1.9043,-1.9549,-1.9833,-1.9993,-2.0403,-2.0872,-2.0488,-2.0488,-2.0636,-2.0124,-1.9768,-1.9549,-1.9738,-1.9868,-2.0191,-2.158,-2.2199,-2.2609,-2.368,-2.4198,-2.4385,-2.438,-2.4317,-2.4188,-2.3798,-2.319,-2.2593,-2.2374,-2.2842,-2.3341,-2.3319,-2.3717,-2.4162,-2.438,-2.46,-2.4766,-2.4846,-2.4786,-2.4766,-2.4846,-2.4786,-2.4806,-2.4989,-2.4993,-2.4993,-2.4989,-2.5048,-2.5033,-2.4934,-2.4934,-2.519,-2.5796,-2.6125,-2.6566,-2.7143,-2.7989,-2.8306,-2.8038,-2.8475,-2.8646,-2.859,-2.8561,-2.8311,-2.7922,-2.7891,-2.8178,0.0,0.0,0.0,0.0,0.0,0.0,0.0,0.0,0.0,0.0,0.0,0.0,0.0,0.0,0.0,0.0,0.0,0.0,0.0,0.0,0.0,0.0,0.0,0.0,0.0,0.0,0.0,0.0,0.0,-1.8483,-1.7543,-1.7715,-1.7528,-1.6879,-1.6113,-1.6308,-1.7552,-1.7713,-1.8221,-1.9072,-1.9217,-1.8775,-1.7881,-1.8161,-1.8072,-1.7718,-1.8279,-1.8877,-1.9512,-1.9848,-2.0243,-2.067,-2.0869,-2.0816,-2.0647,-2.0567,-2.0068,-1.9446,-1.9967,-2.0288,-2.0669,-2.2025,-2.2601,-2.2908,-2.3586,-2.3882,-2.4024,-2.4078,-2.3952,-2.3603,-2.2742,-2.2276,-2.2142,-2.2587,-2.3105,-2.3466,-2.3319,-2.3717,-2.412,-2.4261,-2.4446,-2.4589,-2.4589,-2.4569,-2.4569,-2.4589,-2.4569,-2.463,-2.4755,-2.4775,-2.4771,-2.4782,-2.4782,-2.4726,-2.4589,-2.4605,-2.487,-2.5484,-2.6383,-2.7136,-2.7673,-2.8334,-2.8567,-2.8304,-2.8021,-2.779,-2.757,-2.745,-2.6919,-2.6024,-2.613,-2.6733,-0.8036,0.0,0.0,0.0,0.0,0.0,0.0,0.0,0.0,0.0,0.0,0.0,0.0,0.0,0.0,0.0,0.0,0.0,0.0,0.0,0.0,0.0,0.0,0.0,0.0,0.0,0.0,0.0,-1.8901,-1.8199,-1.7399,-1.6647,-1.6144,-1.5965,-1.5845,-1.6159,-1.6935,-1.7316,-1.7848,-1.8509,-1.8509,-1.8085,-1.7337,-1.7852,-1.7808,-1.7398,-1.8408,-1.8993,-1.9232,-1.9468,-1.9627,-1.9753,-1.9771,-1.9734,-1.9678,-1.9505,-1.929,-1.9121,-1.9171,-1.9214,-1.9527,-2.0994,-2.1624,-2.2021,-2.3287,-2.3882,-2.4124,-2.4046,-2.4003,-2.3809,-2.3228,-2.2798,-2.253,-2.2603,-2.2859,-2.3038,-2.2889,-2.3334,-2.3745,-2.3782,-2.4009,-2.4172,-2.4172,-2.4094,-2.4051,-2.4135,-2.3994,-2.3973,-2.4198,-2.4156,-2.4099,-2.4213,-2.4213,-2.4213,-2.4172,-2.4508,-2.5065,-2.581,-2.642,-2.7059,-2.7744,-2.8082,-2.8149,-2.7934,-2.7904,-2.7514,-2.6733,-2.7264,-2.7118,-2.6288,-2.624,-2.6305,0.0,0.0,0.0,0.0,0.0,0.0,-1.2255,-1.3292,0.0,0.0,0.0,0.0,0.0,0.0,0.0,0.0,0.0,0.0,0.0,0.0,0.0,0.0,0.0,0.0,0.0,0.0,0.0,-1.8976,-1.8241,-1.743,-1.6509,-1.5828,-1.5477,-1.5522,-1.558,-1.5921,-1.6558,-1.6752,-1.7163,-1.7766,-1.7713,-1.7277,-1.6505,-1.7131,-1.7167,-1.6831,-1.7888,-1.8489,-1.8741,-1.8946,-1.9078,-1.9157,-1.9265,-1.9191,-1.9021,-1.8889,-1.8827,-1.8812,-1.9034,-1.9159,-1.9471,-2.0913,-2.1507,-2.1871,-2.3052,-2.356,-2.3754,-2.3818,-2.3732,-2.3516,-2.3053,-2.2746,-2.2563,-2.2463,-2.2586,-2.2731,-2.2678,-2.2957,-2.3312,-2.3551,-2.376,-2.3973,-2.4152,-2.3891,-2.3758,-2.3962,-2.3702,-2.3545,-2.3769,-2.3711,-2.3711,-2.3818,-2.3839,-2.3924,-2.4145,-2.417,-2.4552,-2.544,-2.5914,-2.6255,-2.65,-2.7156,-2.732,-2.688,-2.6949,-2.6725,-2.6195,-2.676,-2.6579,-2.5732,-2.5773,-2.5828,0.0,0.0,0.0,0.0,0.0,0.0,-1.1418,-1.1988,-1.2679,0.0,0.0,0.0,0.0,0.0,0.0,0.0,0.0,0.0,0.0,0.0,0.0,0.0,0.0,0.0,0.0,-1.9203,-1.8903,-1.8171,-1.7309,-1.6364,-1.5295,-1.5268,-1.5298,-1.5329,-1.5313,-1.5604,-1.625,-1.6117,-1.6336,-1.6861,-1.6873,-1.6448,-1.5714,-1.6309,-1.6469,-1.6382,-1.7125,-1.7744,-1.8208,-1.84,-1.86,-1.8822,-1.9101,-1.9003,-1.8692,-1.8586,-1.8528,-1.8568,-1.9136,-1.9454,-1.9835,-2.1105,-2.1607,-2.1873,-2.2702,-2.2973,-2.3062,-2.345,-2.3312,-2.2971,-2.2532,-2.237,-2.2301,-2.2184,-2.2296,-2.2457,-2.2532,-2.2632,-2.2852,-2.3421,-2.361,-2.3834,-2.4282,-2.3829,-2.3518,-2.3923,-2.353,-2.3231,-2.3385,-2.3378,-2.3385,-2.3486,-2.3486,-2.371,-2.428,-2.3754,-2.3814,-2.4771,-2.5218,-2.5248,-2.4797,-2.5954,-2.6301,-2.5612,-2.5679,-2.5784,-2.5893,-2.5994,-2.5602,-2.4803,-2.5023,-2.5331,0.0,0.0,0.0,0.0,0.0,0.0,-0.8965,-0.932,-1.0245,0.0,0.0,0.0,0.0,0.0,0.0,0.0,0.0,0.0,0.0,0.0,0.0,0.0,0.0,0.0,0.0,-1.8592,-1.8238,-1.7026,-1.6275,-1.5565,-1.4852,-1.5071,-1.5132,-1.4918,-1.5117,-1.5235,-1.5275,-1.5723,-1.5938,-1.5954,-1.5954,-1.6064,-1.6249,-1.6328,-1.665,-1.7186,-1.7611,-1.7979,-1.8279,-1.8268,-1.8439,-1.8711,-1.8673,-1.8673,-1.8673,-1.8386,-1.8293,-1.8333,-1.8299,-1.8394,-1.8653,-1.9502,-1.9879,-2.0244,-2.1636,-2.2135,-2.2367,-2.3135,-2.3068,-2.2731,-2.2601,-2.2254,-2.1926,-2.1864,-2.1912,-2.2006,-2.2231,-2.2518,-2.2777,-2.3001,-2.3023,-2.3211,-2.3868,-2.3331,-2.2999,-2.3658,-2.3001,-2.2518,-2.2822,-2.2632,-2.2563,-2.2867,-2.2785,-2.3014,-2.3771,-2.3961,-2.4319,-2.5009,-2.5524,-2.5634,-2.5283,-2.5766,-2.5932,-2.5684,-2.5796,-2.5866,-2.5893,-2.53,-2.4894,-2.4729,-2.4673,-2.4755,0.0,0.0,0.0,-0.902,0.0,0.0,0.0,-0.9062,-0.9917,0.0,0.0,0.0,0.0,0.0,0.0,0.0,0.0,0.0,0.0,0.0,0.0,0.0,0.0,0.0,0.0,-1.7772,-1.7399,-1.5958,-1.5327,-1.4795,-1.4319,-1.4529,-1.4639,-1.4604,-1.473,-1.4825,-1.4904,-1.5103,-1.5145,-1.5047,-1.5015,-1.5048,-1.5171,-1.5788,-1.6245,-1.6646,-1.7382,-1.7814,-1.7996,-1.7895,-1.7989,-1.8208,-1.8347,-1.8372,-1.8375,-1.8514,-1.833,-1.8037,-1.8317,-1.8255,-1.8159,-1.8907,-1.9475,-2.0042,-2.1036,-2.1642,-2.2118,-2.2614,-2.2563,-2.2333,-2.2217,-2.1902,-2.1592,-2.152,-2.1496,-2.1568,-2.1746,-2.21,-2.2441,-2.2743,-2.248,-2.2489,-2.3445,-2.3131,-2.289,-2.3249,-2.2673,-2.2324,-2.2609,-2.2724,-2.2767,-2.2833,-2.3093,-2.3473,-2.4058,-2.3912,-2.4034,-2.4566,-2.4804,-2.4669,-2.415,-2.4901,-2.5286,-2.5146,-2.5286,-2.5314,-2.5258,-2.486,-2.4833,-2.5187,-2.4956,-2.4874,0.0,0.0,0.0,0.0,0.0,-0.9728,0.0,0.0,0.0,-1.1442,0.0,0.0,0.0,0.0,0.0,0.0,0.0,0.0,0.0,0.0,0.0,0.0,0.0,0.0,0.0,-1.6695,-1.6308,-1.5181,-1.4531,-1.4084,-1.3901,-1.4049,-1.4208,-1.4319,-1.4351,-1.4493,-1.4683,-1.4545,-1.4404,-1.4319,-1.4316,-1.4208,-1.4089,-1.5132,-1.5713,-1.5923,-1.6811,-1.7341,-1.7536,-1.7447,-1.7468,-1.7638,-1.8002,-1.8062,-1.7976,-1.8418,-1.8185,-1.7705,-1.8257,-1.8151,-1.7896,-1.8644,-1.9498,-2.0326,-2.0739,-2.1366,-2.1996,-2.2114,-2.2067,-2.1949,-2.1817,-2.1568,-2.1302,-2.1229,-2.1204,-2.1229,-2.1399,-2.1808,-2.2193,-2.241,-2.2136,-2.2182,-2.3133,-2.2996,-2.2796,-2.2981,-2.2651,-2.2488,-2.2715,-2.3023,-2.316,-2.3009,-2.3467,-2.3944,-2.4339,-2.3809,-2.3648,-2.4135,-2.4107,-2.3726,-2.3082,-2.4113,-2.4664,-2.4591,-2.4734,-2.475,-2.4649,-2.4607,-2.4878,-2.5481,-2.5202,-2.5144,0.0,0.0,0.0,0.0,-0.9661,0.0,0.0,0.0,-0.9187,-0.9557,0.0,0.0,0.0,0.0,0.0,0.0,0.0,0.0,0.0,0.0,0.0,0.0,0.0,0.0,0.0,0.0,-1.4644,-1.5069,-1.4006,-1.3493,-1.3881,-1.4138,-1.4222,-1.4049,-1.4222,-1.43,-1.4268,-1.4303,-1.4225,-1.4049,-1.4222,-1.4406,-1.4616,-1.4818,-1.5383,-1.6159,-1.6176,-1.6471,-1.6981,-1.7044,-1.7149,-1.7282,-1.7496,-1.7652,-1.7699,-1.7485,-1.7423,-1.7404,-1.7269,-1.7243,-1.7416,-1.8195,-1.9364,-2.0492,-2.0676,-2.1254,-2.1841,-2.1996,-2.1926,-2.1817,-2.1793,-2.1423,-2.1057,-2.118,-2.1204,-2.1277,-2.152,-2.2127,-2.241,-2.1708,-2.2255,-2.2958,-2.3338,-2.2734,-2.2456,-2.3243,-2.3205,-2.3152,-2.3283,-2.304,-2.2896,-2.2975,-2.2963,-2.3219,-2.3919,-2.3795,-2.3886,-2.4405,-2.45,-2.4343,-2.3987,-2.4211,-2.4421,-2.4591,-2.4734,-2.4778,-2.4778,-2.4593,-2.4593,-2.4734,-2.4706,-2.5032,0.0,0.0,0.0,0.0,0.0,0.0,0.0,0.0,-0.9829,0.0,0.0,0.0,0.0,0.0,0.0,0.0,0.0,0.0,0.0,0.0,0.0,0.0,0.0,0.0,0.0,0.0,0.0,0.0,0.0,-1.2981,-1.3412,-1.3539,-1.3581,-1.3539,-1.3698,-1.3812,-1.3848,-1.3881,-1.3848,-1.3769,-1.3765,-1.3808,-1.386,-1.4609,-1.5157,-1.549,-1.6202,-1.6624,-1.6799,-1.6812,-1.6867,-1.6918,-1.7094,-1.7308,-1.7534,-1.7578,-1.7414,-1.7201,-1.7411,-1.7295,-1.7292,-1.853,-1.9451,-2.021,-2.0806,-2.1113,-2.1304,-2.1399,-2.1375,-2.135,-2.135,-2.1144,-2.0936,-2.0871,-2.0797,-2.0864,-2.1321,-2.1333,-2.1322,-2.1525,-2.1159,-2.1117,-2.2109,-2.2232,-2.2287,-2.2711,-2.2778,-2.2831,-2.2977,-2.3259,-2.3338,-2.3092,-2.3521,-2.3908,-2.4019,-2.3848,-2.3882,-2.4247,-2.4173,-2.3998,-2.37,-2.391,-2.4086,-2.42,-2.4128,-2.4086,-2.4086,-2.4015,-2.4057,-2.4213,-2.4717,-2.5113,-0.9806,0.0,0.0,0.0,0.0,0.0,0.0,0.0,0.0,0.0,0.0,0.0,0.0,0.0,0.0,0.0,0.0,0.0,0.0,0.0,0.0,0.0,0.0,0.0,0.0,0.0,0.0,0.0,-1.2592,-1.2477,-1.2863,-1.3071,-1.3185,-1.3195,-1.3344,-1.3476,-1.3564,-1.3598,-1.3598,-1.3598,-1.3493,-1.334,-1.3253,-1.4273,-1.4771,-1.4869,-1.5964,-1.649,-1.6552,-1.6556,-1.659,-1.6654,-1.6684,-1.6876,-1.718,-1.7445,-1.7222,-1.6884,-1.7228,-1.737,-1.7574,-1.8726,-1.9501,-2.01,-2.0851,-2.0947,-2.0787,-2.0873,-2.086,-2.0899,-2.1133,-2.0955,-2.0739,-2.0832,-2.0757,-2.0758,-2.1004,-2.0849,-2.0757,-2.1024,-2.0333,-2.0042,-2.1036,-2.1592,-2.203,-2.2446,-2.2754,-2.2969,-2.3024,-2.3546,-2.3713,-2.329,-2.3882,-2.4216,-2.3995,-2.3835,-2.3822,-2.4024,-2.3865,-2.3658,-2.3433,-2.3599,-2.3824,-2.4111,-2.3906,-2.3846,-2.3906,-2.3816,-2.3752,-2.3785,-2.4657,-2.5191,0.0,0.0,0.0,-0.9578,0.0,0.0,0.0,0.0,-1.0517,0.0,0.0,0.0,0.0,0.0,0.0,-0.9808,0.0,0.0,0.0,0.0,0.0,0.0,0.0,0.0,0.0,0.0,0.0,-1.2736,-1.216,-1.1961,-1.2303,-1.2998,-1.3323,-1.3198,-1.3391,-1.3497,-1.3497,-1.3564,-1.3598,-1.3598,-1.3531,-1.3391,-1.3223,-1.3648,-1.4118,-1.4634,-1.5073,-1.5633,-1.6222,-1.6222,-1.634,-1.6479,-1.6297,-1.634,-1.6522,-1.6534,-1.6491,-1.6405,-1.63,-1.716,-1.8376,-1.8565,-1.9418,-2.0421,-2.0721,-2.0635,-2.0447,-2.0598,-2.051,-2.0602,-2.1457,-2.0952,-2.0425,-2.1264,-2.1485,-2.1277,-2.0564,-2.1171,-2.1364,-1.9775,-2.0311,-2.0896,-2.05,-2.0832,-2.1544,-2.2781,-2.3582,-2.3992,-2.3897,-2.3881,-2.3822,-2.3603,-2.3616,-2.3628,-2.3628,-2.3628,-2.3645,-2.3793,-2.3675,-2.3569,-2.3509,-2.3433,-2.3825,-2.4654,-2.4489,-2.4458,-2.4667,-2.4349,-2.3928,-2.3445,-2.4313,-2.5206,0.0,0.0,-1.0444,-0.9985,0.0,0.0,0.0,0.0,0.0,0.0,0.0,0.0,0.0,0.0,-1.0559,-1.0019,-1.0289,0.0,0.0,0.0,0.0,0.0,0.0,0.0,0.0,0.0,0.0,-1.1672,-1.1129,-1.1197,0.0,-1.2249,-1.2501,-1.2855,-1.2978,-1.3064,-1.3104,-1.322,-1.3267,-1.3267,-1.3116,-1.2978,-1.2892,-1.3658,-1.4049,-1.4177,-1.5123,-1.5602,-1.5736,-1.5836,-1.5925,-1.6022,-1.5969,-1.6022,-1.6154,-1.6066,-1.6066,-1.6132,-1.6088,-1.7035,-1.8284,-1.8331,-1.914,-2.0182,-2.0346,-2.0271,-2.0131,-2.0182,-2.0515,-2.09,-2.1106,-2.1246,-2.1358,-2.1468,-2.1506,-2.1502,-2.1514,-2.1272,-2.0978,-2.0767,-2.0493,-2.041,-2.0677,-2.0985,-2.155,-2.2638,-2.3085,-2.3258,-2.3133,-2.3241,-2.3271,-2.3042,-2.318,-2.3228,-2.315,-2.315,-2.303,-2.2757,-2.2957,-2.2975,-2.2787,-2.3257,-2.3648,-2.3904,-2.4286,-2.4318,-2.4029,-2.3842,-2.3567,-2.3223,-2.4204,-2.5039,-1.0226,-1.0552,0.0,-1.0365,-1.0591,0.0,-1.0036,0.0,0.0,0.0,0.0,0.0,0.0,0.0,0.0,-1.0111,-1.0372,-1.0465,0.0,-1.0404,0.0,0.0,0.0,0.0,0.0,0.0,-1.1213,-1.1207,-1.0837,-1.0813,0.0,0.0,-1.2143,-1.238,-1.263,-1.2785,-1.2838,-1.2938,-1.2973,-1.2908,-1.2768,-1.2722,-1.2793,-1.3646,-1.4011,-1.4039,-1.5038,-1.5458,-1.5435,-1.5525,-1.5649,-1.5748,-1.5703,-1.5736,-1.5824,-1.5792,-1.5792,-1.5836,-1.6074,-1.6921,-1.7954,-1.8188,-1.8946,-1.981,-1.9875,-1.9862,-1.9784,-1.9784,-2.0238,-2.0742,-2.0985,-2.1285,-2.1543,-2.1688,-2.1754,-2.1804,-2.1795,-2.1366,-2.0974,-2.1102,-2.0594,-2.0309,-2.0647,-2.1082,-2.1667,-2.2476,-2.2678,-2.2696,-2.2616,-2.2696,-2.2726,-2.2616,-2.2757,-2.2805,-2.2726,-2.2726,-2.2604,-2.234,-2.2531,-2.2733,-2.291,-2.3048,-2.3323,-2.3791,-2.4026,-2.3908,-2.3464,-2.3481,-2.3233,-2.2708,-2.3689,-2.4322]},{"header":{"parameterUnit":"m.s-1","parameterCategory":1,"la1":30.6,"la2":29.2853,"lo1":-89.7004,"lo2":-87.6739,"dy":0.0162,"dx":0.0183,"nx":112,"ny":82,"refTime":"2023-09-22T00:00:00:Z","depth":0,"parameterNumber":3,"parameterNumberName":"V-component_of_WINDS"},"data":[0.0,0.0,0.0,0.0,0.0,0.0,0.0,0.0,0.0,0.0,0.0,0.0,0.0,0.0,0.0,0.0,0.0,0.0,0.0,0.0,0.0,0.0,0.0,0.0,0.0,0.0,0.0,0.0,0.0,0.0,0.0,0.0,0.0,0.0,0.0,0.0,0.0,0.0,0.0,0.0,0.0,0.0,0.0,0.0,0.0,0.0,0.0,0.0,0.0,0.0,0.0,0.0,0.0,0.0,0.0,0.0,0.0,0.0,0.0,0.0,0.0,0.0,0.0,0.0,0.0,0.0,0.0,0.0,0.0,0.0,0.0,0.0,0.0,0.0,0.0,0.0,0.0,0.0,0.0,0.0,0.0,0.0,0.0,0.0,0.0,0.0,0.0,0.0,0.0,0.0,0.0,-1.2217,-1.3842,-1.4567,-1.3983,-1.3614,-1.2573,-1.0521,0.0,0.0,0.0,0.0,0.0,0.0,0.0,0.0,0.0,0.0,0.0,0.0,0.0,0.0,0.0,0.0,0.0,0.0,0.0,0.0,0.0,0.0,0.0,0.0,0.0,0.0,0.0,0.0,0.0,0.0,0.0,0.0,0.0,0.0,0.0,0.0,0.0,0.0,0.0,0.0,0.0,0.0,0.0,0.0,0.0,0.0,0.0,0.0,0.0,0.0,0.0,0.0,0.0,0.0,0.0,0.0,0.0,0.0,0.0,0.0,0.0,0.0,0.0,0.0,0.0,0.0,0.0,0.0,0.0,0.0,0.0,0.0,0.0,0.0,0.0,0.0,0.0,0.0,0.0,0.0,0.0,0.0,0.0,0.0,0.0,0.0,0.0,0.0,0.0,0.0,0.0,0.0,0.0,0.0,0.0,0.0,0.0,0.0,0.0,0.0,0.0,0.0,0.0,0.0,-1.0573,-1.2959,-1.3884,-1.4354,-1.4481,-1.3973,-1.3068,-1.172,0.0,0.0,0.0,0.0,0.0,0.0,0.0,0.0,0.0,0.0,0.0,0.0,0.0,0.0,0.0,0.0,0.0,0.0,0.0,0.0,0.0,0.0,0.0,0.0,0.0,0.0,0.0,0.0,0.0,0.0,0.0,0.0,0.0,0.0,0.0,0.0,0.0,0.0,0.0,0.0,0.0,0.0,0.0,0.0,0.0,0.0,0.0,0.0,0.0,0.0,0.0,0.0,0.0,0.0,0.0,0.0,0.0,0.0,0.0,0.0,0.0,0.0,0.0,0.0,0.0,0.0,0.0,0.0,0.0,0.0,0.0,0.0,0.0,0.0,0.0,0.0,0.0,0.0,0.0,0.0,0.0,0.0,0.0,0.0,0.0,0.0,0.0,0.0,0.0,0.0,0.0,0.0,0.0,0.0,0.0,0.0,0.0,0.0,0.0,0.0,0.0,0.0,0.0,-1.0383,-1.134,-1.2798,-1.3509,-1.3876,-1.3897,-1.3549,-1.2644,-1.1032,-0.977,0.0,0.0,0.0,0.0,0.0,0.0,0.0,0.0,0.0,0.0,0.0,0.0,0.0,0.0,0.0,0.0,0.0,0.0,0.0,0.0,0.0,0.0,0.0,0.0,0.0,0.0,0.0,0.0,0.0,0.0,0.0,0.0,0.0,0.0,0.0,0.0,0.0,0.0,0.0,0.0,0.0,0.0,0.0,0.0,0.0,0.0,0.0,0.0,0.0,0.0,0.0,0.0,0.0,0.0,0.0,0.0,0.0,0.0,0.0,0.0,0.0,0.0,0.0,0.0,0.0,0.0,0.0,0.0,0.0,0.0,0.0,0.0,0.0,0.0,0.0,0.0,0.0,0.0,0.0,0.0,0.0,0.0,0.0,0.0,0.0,0.0,0.0,0.0,0.0,0.0,0.0,0.0,0.0,0.0,0.0,0.0,0.0,0.0,0.0,0.0,0.0,0.0,-1.1127,-1.1905,-1.2483,-1.3018,-1.3268,-1.3027,-1.2693,-1.1737,-0.9947,-0.893,0.0,0.0,0.0,0.0,0.0,0.0,0.0,0.0,0.0,0.0,0.0,0.0,0.0,0.0,0.0,0.0,0.0,0.0,0.0,0.0,0.0,0.0,0.0,0.0,0.0,0.0,0.0,0.0,0.0,0.0,0.0,0.0,0.0,0.0,0.0,0.0,0.0,0.0,0.0,0.0,0.0,0.0,0.0,0.0,0.0,0.0,0.0,0.0,0.0,0.0,0.0,0.0,0.0,0.0,0.0,0.0,0.0,0.0,0.0,0.0,0.0,0.0,0.0,0.0,0.0,0.0,0.0,0.0,0.0,0.0,0.0,0.0,0.0,0.0,0.0,0.0,0.0,0.0,0.0,0.0,0.0,0.0,0.0,0.0,0.0,0.0,0.0,0.0,0.0,0.0,0.0,0.0,0.0,0.0,0.0,0.0,0.0,0.0,0.0,0.0,0.0,0.0,-1.0593,-1.1596,-1.2235,-1.2522,-1.2557,-1.2198,-1.1489,-1.0483,-0.9157,-0.7735,0.0,0.0,0.0,0.0,0.0,0.0,0.0,0.0,0.0,0.0,0.0,0.0,0.0,0.0,0.0,0.0,0.0,0.0,0.0,0.0,0.0,0.0,0.0,0.0,0.0,0.0,0.0,0.0,0.0,0.0,0.0,0.0,0.0,0.0,0.0,0.0,0.0,0.0,0.0,0.0,0.0,0.0,0.0,0.0,0.0,0.0,0.0,0.0,0.0,0.0,0.0,0.0,0.0,0.0,0.0,0.0,0.0,0.0,0.0,0.0,0.0,0.0,0.0,0.0,0.0,0.0,0.0,0.0,0.0,0.0,0.0,0.0,0.0,0.0,0.0,0.0,0.0,0.0,0.0,0.0,0.0,0.0,0.0,0.0,0.0,0.0,0.0,0.0,0.0,0.0,0.0,0.0,0.0,0.0,0.0,0.0,0.0,0.0,0.0,0.0,0.0,0.0,-0.9992,-1.1347,0.0,-1.222,-1.2272,-1.2126,-1.166,-1.0701,-0.9035,0.0,0.0,0.0,0.0,0.0,0.0,0.0,0.0,0.0,0.0,0.0,0.0,0.0,0.0,0.0,0.0,0.0,0.0,0.0,0.0,0.0,0.0,0.0,0.0,0.0,0.0,0.0,0.0,0.0,0.0,0.0,0.0,0.0,0.0,0.0,0.0,0.0,0.0,0.0,0.0,0.0,0.0,0.0,0.0,0.0,0.0,0.0,0.0,0.0,0.0,0.0,0.0,0.0,0.0,0.0,0.0,0.0,0.0,0.0,0.0,0.0,0.0,0.0,0.0,0.0,0.0,0.0,0.0,0.0,0.0,0.0,0.0,0.0,0.0,0.0,0.0,0.0,0.0,0.0,0.0,0.0,0.0,0.0,0.0,0.0,0.0,0.0,0.0,0.0,0.0,0.0,0.0,0.0,0.0,0.0,0.0,0.0,0.0,0.0,0.0,0.0,0.0,-0.8322,-1.0064,-1.1418,0.0,-1.1881,-1.1866,-1.1629,-1.1169,-1.0177,-0.8431,0.0,0.0,0.0,0.0,0.0,0.0,0.0,0.0,0.0,0.0,0.0,0.0,0.0,0.0,0.0,0.0,0.0,0.0,0.0,0.0,0.0,0.0,0.0,0.0,0.0,0.0,0.0,0.0,0.0,0.0,0.0,0.0,0.0,0.0,0.0,0.0,0.0,0.0,0.0,0.0,0.0,0.0,0.0,0.0,0.0,0.0,0.0,0.0,0.0,0.0,0.0,0.0,0.0,0.0,0.0,0.0,0.0,0.0,0.0,0.0,0.0,0.0,0.0,0.0,0.0,0.0,0.0,0.0,0.0,0.0,0.0,0.0,0.0,0.0,0.0,0.0,0.0,0.0,0.0,0.0,0.0,0.0,0.0,0.0,0.0,0.0,0.0,0.0,0.0,0.0,0.0,0.0,0.0,0.0,0.0,0.0,0.0,0.0,0.0,0.0,0.0,0.0,-0.9588,-1.0969,-1.1806,-1.1624,-1.1457,-1.1182,-1.0638,-0.9728,-0.8597,0.0,0.0,0.0,0.0,0.0,0.0,0.0,0.0,0.0,0.0,0.0,0.0,0.0,0.0,0.0,0.0,0.0,0.0,0.0,0.0,0.0,0.0,0.0,0.0,0.0,0.0,0.0,0.0,0.0,0.0,0.0,0.0,0.0,0.0,0.0,0.0,0.0,0.0,0.0,0.0,0.0,0.0,0.0,0.0,0.0,0.0,0.0,0.0,0.0,0.0,0.0,0.0,0.0,0.0,0.0,0.0,0.0,0.0,0.0,0.0,0.0,0.0,0.0,0.0,0.0,0.0,0.0,0.0,0.0,0.0,0.0,0.0,0.0,0.0,0.0,0.0,0.0,0.0,0.0,0.0,0.0,0.0,0.0,0.0,0.0,0.0,0.0,0.0,0.0,0.0,0.0,0.0,0.0,0.0,0.0,0.0,0.0,0.0,0.0,0.0,0.0,0.0,0.0,-0.937,-1.0451,-1.1076,-1.0904,-1.0774,-1.0505,-1.0023,-0.9724,-0.8827,-0.7127,0.0,0.0,0.0,0.0,0.0,0.0,0.0,0.0,0.0,0.0,0.0,0.0,0.0,0.0,0.0,0.0,0.0,0.0,0.0,0.0,0.0,0.0,0.0,0.0,0.0,0.0,0.0,0.0,0.0,0.0,0.0,0.0,0.0,0.0,0.0,0.0,0.0,0.0,0.0,0.0,0.0,0.0,0.0,0.0,0.0,0.0,0.0,0.0,0.0,0.0,0.0,0.0,0.0,0.0,0.0,0.0,0.0,0.0,0.0,0.0,0.0,0.0,0.0,0.0,0.0,0.0,0.0,0.0,0.0,0.0,0.0,0.0,0.0,0.0,0.0,0.0,0.0,0.0,0.0,0.0,0.0,0.0,0.0,0.0,0.0,0.0,0.0,0.0,0.0,0.0,0.0,0.0,0.0,0.0,0.0,0.0,0.0,0.0,0.0,0.0,0.0,0.0,-0.9117,-1.0222,-1.0895,-1.08,-1.0442,-1.0086,-0.9771,-0.9357,-0.8475,-0.7044,0.0,0.0,0.0,0.0,0.0,0.0,0.0,0.0,0.0,0.0,0.0,0.0,0.0,0.0,0.0,0.0,0.0,0.0,0.0,0.0,0.0,0.0,0.0,0.0,0.0,0.0,0.0,0.0,0.0,0.0,0.0,0.0,0.0,0.0,0.0,0.0,0.0,0.0,0.0,0.0,0.0,0.0,0.0,0.0,0.0,0.0,0.0,0.0,0.0,0.0,0.0,0.0,0.0,0.0,0.0,0.0,0.0,0.0,0.0,0.0,0.0,0.0,0.0,0.0,0.0,0.0,0.0,0.0,0.0,0.0,0.0,0.0,0.0,0.0,0.0,0.0,0.0,0.0,0.0,0.0,0.0,0.0,0.0,0.0,0.0,0.0,0.0,0.0,0.0,0.0,0.0,0.0,0.0,0.0,0.0,0.0,0.0,0.0,0.0,0.0,0.0,0.0,-0.89,-1.0151,-1.0979,-1.0982,-1.0292,-0.979,-0.9679,-0.8771,-0.7824,-0.6899,0.0,0.0,0.0,0.0,0.0,0.0,0.0,0.0,0.0,0.0,0.0,0.0,0.0,0.0,0.0,0.0,0.0,0.0,0.0,0.0,0.0,0.0,0.0,0.0,0.0,0.0,0.0,0.0,0.0,0.0,0.0,0.0,0.0,0.0,0.0,0.0,0.0,0.0,0.0,0.0,0.0,0.0,0.0,0.0,0.0,0.0,0.0,0.0,0.0,0.0,0.0,0.0,0.0,0.0,0.0,0.0,0.0,0.0,0.0,0.0,-0.5545,0.0,0.0,0.0,0.0,0.0,0.0,0.0,0.0,0.0,0.0,0.0,0.0,0.0,0.0,0.0,0.0,0.0,0.0,0.0,0.0,0.0,0.0,0.0,0.0,0.0,0.0,0.0,0.0,0.0,0.0,0.0,0.0,0.0,0.0,0.0,0.0,0.0,0.0,0.0,0.0,0.0,-0.897,-0.9597,-0.9975,-1.013,-0.9681,-0.9137,-0.8591,-0.844,-0.7823,-0.6588,0.0,0.0,0.0,0.0,0.0,0.0,0.0,0.0,0.0,0.0,0.0,0.0,0.0,0.0,0.0,0.0,0.0,0.0,0.0,0.0,0.0,0.0,0.0,0.0,0.0,0.0,0.0,0.0,0.0,0.0,0.0,0.0,0.0,0.0,0.0,0.0,0.0,0.0,0.0,0.0,0.0,0.0,0.0,0.0,0.0,0.0,0.0,0.0,0.0,0.0,0.0,0.0,0.0,0.0,0.0,0.0,0.0,0.0,0.0,0.0,0.0,-0.5402,0.0,0.0,0.0,0.0,0.0,0.0,0.0,0.0,0.0,0.0,0.0,0.0,0.0,0.0,0.0,0.0,0.0,0.0,0.0,0.0,0.0,0.0,0.0,0.0,0.0,0.0,0.0,0.0,0.0,0.0,0.0,0.0,0.0,0.0,0.0,0.0,0.0,0.0,0.0,0.0,-0.8911,-0.9417,-0.9788,-1.0182,-0.951,-0.8855,-0.8515,-0.798,-0.7343,-0.656,-0.6109,0.0,0.0,0.0,0.0,0.0,0.0,0.0,0.0,0.0,0.0,0.0,0.0,0.0,0.0,0.0,0.0,0.0,0.0,0.0,0.0,0.0,0.0,0.0,0.0,0.0,0.0,0.0,0.0,0.0,0.0,0.0,0.0,0.0,0.0,0.0,0.0,0.0,0.0,0.0,0.0,0.0,0.0,0.0,0.0,0.0,0.0,0.0,0.0,0.0,0.0,0.0,0.0,0.0,-0.6514,-0.6506,-0.6461,-0.6381,-0.6314,-0.628,-0.5704,-0.5703,-0.5974,0.0,0.0,0.0,0.0,0.0,0.0,0.0,0.0,0.0,0.0,0.0,0.0,0.0,0.0,0.0,0.0,0.0,0.0,0.0,0.0,0.0,0.0,0.0,0.0,0.0,-0.5632,-0.5703,0.0,0.0,0.0,0.0,0.0,0.0,0.0,0.0,0.0,0.0,0.0,0.0,-0.8772,-0.9322,-0.9816,-1.0326,-0.9433,-0.8762,-0.8629,-0.7647,-0.6873,-0.6523,-0.5647,-0.5163,0.0,0.0,0.0,0.0,0.0,0.0,0.0,0.0,0.0,0.0,0.0,0.0,0.0,0.0,0.0,0.0,0.0,0.0,0.0,0.0,0.0,0.0,0.0,0.0,0.0,0.0,0.0,0.0,0.0,0.0,0.0,0.0,-0.6652,-0.7557,0.0,0.0,0.0,0.0,0.0,0.0,0.0,0.0,0.0,0.0,0.0,0.0,0.0,0.0,-0.7095,-0.6776,-0.6609,-0.6591,-0.6605,-0.6492,-0.635,-0.6437,-0.6453,-0.6395,-0.6235,0.0,-0.5811,-0.5285,0.0,0.0,0.0,0.0,0.0,0.0,0.0,0.0,0.0,0.0,0.0,0.0,0.0,0.0,0.0,0.0,0.0,0.0,0.0,0.0,0.0,0.0,-0.5785,-0.5866,-0.5994,-0.6049,0.0,-0.5491,-0.5065,-0.4779,0.0,0.0,0.0,0.0,0.0,0.0,0.0,0.0,-0.8468,-0.9018,-0.9312,-0.9443,-0.9062,-0.8542,-0.7901,-0.7685,-0.7154,-0.6152,-0.588,-0.5431,-0.4634,-0.4088,0.0,0.0,0.0,0.0,0.0,0.0,0.0,0.0,0.0,0.0,0.0,0.0,0.0,0.0,0.0,0.0,0.0,0.0,0.0,0.0,0.0,0.0,0.0,0.0,0.0,0.0,0.0,0.0,0.0,-0.5939,-0.6941,-0.7701,-0.7456,-0.7049,0.0,0.0,0.0,0.0,0.0,0.0,0.0,0.0,0.0,-0.6939,-0.6808,-0.6934,-0.7416,-0.6985,-0.6795,-0.684,-0.6712,-0.6544,-0.6281,-0.637,-0.6307,-0.6191,-0.6134,-0.595,-0.5656,-0.5365,-0.5086,-0.4718,0.0,0.0,0.0,0.0,0.0,-0.3921,-0.4273,-0.4106,0.0,0.0,0.0,0.0,0.0,0.0,0.0,0.0,0.0,0.0,0.0,0.0,0.0,-0.5869,-0.5932,-0.5948,-0.6067,-0.604,-0.5846,0.0,-0.5306,-0.5162,-0.4678,0.0,0.0,0.0,0.0,0.0,-0.8447,-0.8692,-0.878,-0.8893,-0.8483,-0.7976,-0.7515,-0.704,-0.6509,-0.5981,-0.5382,-0.4883,-0.4454,-0.392,-0.3498,0.0,0.0,0.0,0.0,0.0,0.0,0.0,0.0,0.0,0.0,0.0,0.0,0.0,0.0,0.0,0.0,0.0,0.0,0.0,0.0,0.0,0.0,0.0,0.0,0.0,0.0,0.0,0.0,-0.6338,-0.7232,-0.7752,-0.7893,-0.7642,0.0,0.0,0.0,0.0,0.0,0.0,-0.6197,-0.6308,-0.6586,-0.7081,-0.6887,-0.7,-0.7497,-0.6949,-0.6753,-0.6831,-0.6555,-0.6345,-0.6156,-0.6107,-0.5996,-0.5793,-0.5825,-0.5715,-0.5439,-0.5288,-0.5065,-0.4768,-0.4311,-0.4199,-0.4246,-0.4186,-0.4237,-0.4383,-0.4632,-0.4469,-0.4176,-0.4356,0.0,-0.4216,-0.4348,0.0,0.0,0.0,0.0,-0.4336,-0.4652,-0.4925,-0.5253,-0.5673,-0.5778,-0.5848,-0.602,-0.6181,-0.6179,0.0,-0.5782,-0.5619,-0.504,0.0,0.0,0.0,0.0,-0.7431,-0.8222,-0.8291,-0.8311,-0.8419,-0.7922,-0.7503,-0.7262,-0.6554,-0.5996,-0.5703,-0.495,-0.4428,-0.4222,-0.3655,-0.3306,-0.3221,0.0,0.0,0.0,0.0,0.0,0.0,0.0,0.0,0.0,0.0,0.0,0.0,0.0,0.0,0.0,0.0,0.0,0.0,0.0,0.0,0.0,0.0,0.0,0.0,0.0,0.0,0.0,0.0,0.0,-0.8143,-0.8392,0.0,0.0,0.0,0.0,-0.6413,-0.6027,-0.6162,-0.6984,-0.6702,-0.6673,-0.709,-0.6785,-0.672,-0.6927,-0.6419,-0.6218,-0.6431,-0.5967,-0.5743,-0.5713,-0.5619,-0.5411,-0.5241,-0.5396,-0.5265,-0.5014,-0.5072,-0.5087,-0.5026,-0.4511,-0.4431,-0.4629,-0.4397,-0.4709,-0.5237,-0.5124,-0.4973,-0.4949,-0.5453,-0.5318,-0.5039,-0.5561,-0.5209,0.0,0.0,-0.4964,-0.4913,-0.4658,-0.5024,-0.5477,-0.543,-0.5609,-0.5812,-0.5881,-0.5679,-0.5539,0.0,-0.5948,-0.5875,-0.5209,0.0,-0.5246,-0.5561,-0.6087,-0.6728,-0.7474,-0.7774,-0.7943,-0.794,-0.7574,-0.7262,-0.7112,-0.6669,-0.6029,-0.5204,-0.4972,-0.4522,-0.3766,-0.3205,-0.2965,-0.3017,-0.2481,0.0,0.0,0.0,0.0,0.0,0.0,0.0,0.0,0.0,0.0,0.0,0.0,0.0,0.0,0.0,0.0,0.0,0.0,0.0,0.0,0.0,0.0,0.0,0.0,0.0,0.0,0.0,0.0,-0.761,-0.7758,0.0,0.0,-0.6752,-0.656,-0.6151,-0.6195,-0.6469,-0.6944,-0.6729,-0.6674,-0.6965,-0.6436,-0.6279,-0.6584,-0.6008,-0.5758,-0.5798,-0.5594,-0.5397,-0.5249,-0.5336,-0.5266,-0.5088,-0.5129,-0.5013,-0.4828,-0.485,-0.493,-0.5004,-0.473,-0.4691,-0.4733,-0.465,-0.4646,-0.4644,-0.4708,-0.4608,-0.4523,-0.5081,-0.5206,-0.5221,-0.5306,-0.5207,-0.5065,-0.4903,-0.4941,-0.4965,-0.4833,-0.4877,-0.4986,-0.4996,-0.5067,-0.5161,-0.5352,-0.5281,-0.517,-0.5095,-0.5217,-0.5194,-0.479,-0.5169,-0.5527,-0.5408,-0.615,-0.6855,-0.7193,-0.7405,-0.744,-0.7284,-0.7117,-0.6869,-0.6436,-0.5915,-0.5476,-0.5132,-0.4562,-0.4138,-0.384,-0.3344,-0.2983,-0.2744,-0.2476,-0.2117,0.0,0.0,0.0,0.0,0.0,0.0,0.0,0.0,0.0,0.0,0.0,0.0,0.0,0.0,0.0,0.0,0.0,0.0,0.0,0.0,0.0,0.0,0.0,0.0,0.0,0.0,-0.6858,-0.711,-0.7362,-0.7201,-0.6449,-0.6661,-0.6657,-0.6205,-0.6371,-0.6573,-0.6793,-0.6576,-0.6461,-0.6444,-0.6018,-0.5891,-0.611,-0.5635,-0.5394,-0.5376,-0.5241,-0.5078,-0.4877,-0.4924,-0.4877,-0.4743,-0.4656,-0.4612,-0.4569,-0.4482,-0.4525,-0.465,-0.4632,-0.4651,-0.4607,-0.452,-0.4435,-0.4338,-0.4588,-0.4643,-0.4634,-0.513,-0.5332,-0.5312,-0.5308,-0.5243,-0.5151,-0.5029,-0.4989,-0.4981,-0.486,-0.4793,-0.4726,-0.4757,-0.4725,-0.4752,-0.4885,-0.4885,-0.4766,-0.4488,-0.4713,-0.4834,-0.4537,-0.5019,-0.5408,-0.531,-0.599,-0.6598,-0.6842,-0.7036,-0.7041,-0.6771,-0.6685,-0.646,-0.5931,-0.5418,-0.5019,-0.4822,-0.4189,-0.3713,-0.3478,-0.2974,-0.2568,-0.2293,-0.2139,-0.1874,-0.1503,0.0,0.0,0.0,0.0,0.0,0.0,0.0,0.0,0.0,0.0,0.0,0.0,0.0,0.0,0.0,0.0,0.0,0.0,0.0,0.0,0.0,0.0,0.0,-0.6535,-0.707,-0.7252,-0.6673,-0.7238,-0.7202,-0.6006,-0.6307,-0.6606,-0.667,-0.6532,-0.6525,-0.6578,-0.6248,-0.594,-0.561,-0.5565,-0.555,-0.5479,-0.5355,-0.5223,-0.5081,-0.4796,-0.4665,-0.4665,-0.4391,-0.43,-0.4255,-0.3991,-0.4034,-0.4255,-0.3991,-0.3903,-0.3901,-0.4168,-0.43,-0.4255,-0.3991,-0.4034,-0.4332,-0.4812,-0.5079,-0.5319,-0.5712,-0.5629,-0.5389,-0.5631,-0.5378,-0.5031,-0.5251,-0.5132,-0.4961,-0.4758,-0.4743,-0.4768,-0.4707,-0.4682,-0.4683,-0.4621,-0.4428,-0.4224,-0.3951,-0.4459,-0.4837,-0.4543,-0.4605,-0.4825,-0.5226,-0.5582,0.0,-0.6327,-0.6657,-0.6739,-0.6404,-0.6263,-0.6039,-0.5699,-0.5194,-0.4686,-0.4205,-0.3872,-0.3375,-0.2649,-0.2036,-0.1711,-0.1701,-0.1487,-0.1344,-0.131,0.0,0.0,0.0,0.0,0.0,0.0,0.0,0.0,0.0,0.0,0.0,0.0,0.0,0.0,0.0,0.0,0.0,0.0,0.0,0.0,0.0,0.0,-0.7206,-0.7043,-0.7032,-0.6963,-0.6623,-0.6661,-0.6347,-0.554,-0.5884,-0.6088,-0.5932,-0.6011,-0.6067,-0.6075,-0.5879,-0.5676,-0.5548,-0.5183,-0.5119,-0.5358,-0.4932,-0.4775,-0.4861,-0.4292,-0.4122,-0.4257,-0.3925,-0.381,-0.381,-0.3812,-0.3901,-0.3991,-0.3542,-0.3497,-0.3723,-0.3946,-0.39,-0.381,-0.3812,-0.3721,-0.3619,-0.3892,-0.4077,-0.4276,-0.4631,-0.4527,-0.4381,-0.4987,-0.5048,-0.4907,-0.5149,-0.4999,-0.4784,-0.4787,-0.4599,-0.445,-0.4545,-0.4541,-0.4577,-0.4587,-0.4358,-0.4121,-0.3997,-0.3868,-0.3802,-0.3959,-0.4181,-0.4432,-0.468,-0.5258,0.0,-0.5814,-0.6146,-0.6274,-0.5927,-0.5802,-0.5539,-0.5014,-0.463,-0.4235,-0.3869,-0.3474,-0.3217,-0.3102,-0.2534,-0.2009,-0.1557,-0.1025,-0.1022,0.0,0.0,0.0,0.0,0.0,0.0,0.0,0.0,0.0,0.0,0.0,0.0,0.0,0.0,0.0,0.0,0.0,0.0,0.0,0.0,0.0,0.0,-0.7103,-0.7435,-0.7492,-0.7238,-0.6932,-0.6519,-0.6348,-0.5976,-0.5301,-0.5626,-0.5825,-0.5556,-0.566,-0.5723,-0.5654,-0.5417,-0.5225,-0.5148,-0.4774,-0.4658,-0.4805,-0.4482,-0.4326,-0.429,-0.3923,-0.3804,-0.3924,-0.3621,-0.3514,0.0,-0.3467,-0.3499,-0.3587,-0.3094,-0.296,0.0,0.0,0.0,0.0,0.0,-0.3186,-0.2865,-0.2962,-0.3307,-0.3747,-0.386,-0.39,-0.4047,-0.4667,-0.4827,-0.4838,-0.4961,-0.4861,-0.4683,-0.4658,-0.437,-0.4152,-0.4293,-0.4262,-0.4229,-0.4319,-0.4273,-0.4191,-0.4159,0.0,0.0,-0.39,-0.3971,-0.4015,-0.427,-0.4877,-0.5317,-0.5317,-0.5677,-0.577,-0.5331,-0.516,-0.488,-0.4364,-0.386,0.0,0.0,0.0,-0.2668,-0.243,-0.2115,0.0,0.0,0.0,-0.1427,-0.1946,0.0,0.0,0.0,-0.2241,-0.2373,0.0,0.0,0.0,0.0,0.0,0.0,0.0,0.0,0.0,0.0,0.0,0.0,0.0,0.0,0.0,0.0,-0.7297,-0.7487,-0.7834,-0.7518,-0.6988,-0.6339,-0.6185,-0.5803,-0.5069,-0.5403,-0.556,-0.5392,-0.5389,-0.5339,-0.516,0.0,0.0,0.0,0.0,-0.4172,-0.4088,-0.4057,-0.3892,-0.3624,-0.3626,-0.3614,-0.3676,-0.3419,-0.3461,-0.3605,-0.3133,-0.2967,-0.2957,-0.2557,-0.2243,-0.2154,-0.278,-0.3002,-0.2913,-0.2827,-0.2513,0.0,-0.2109,0.0,0.0,-0.3252,-0.3537,-0.4045,-0.4473,-0.4606,-0.4654,-0.464,-0.4608,-0.4575,-0.4431,-0.4126,-0.392,-0.4067,-0.3932,-0.3832,-0.3989,-0.4131,-0.4229,-0.4327,-0.3921,-0.3683,-0.3986,-0.3826,-0.371,-0.3938,-0.4487,-0.4869,-0.4814,-0.5207,-0.5285,-0.4694,0.0,0.0,-0.3754,-0.3091,-0.2729,-0.2792,-0.2508,-0.2025,-0.1365,-0.1369,-0.1289,-0.1089,-0.1718,-0.213,-0.2319,-0.206,-0.2166,-0.2532,-0.242,-0.2571,0.0,0.0,0.0,0.0,0.0,0.0,0.0,0.0,0.0,0.0,0.0,0.0,0.0,0.0,0.0,-0.7254,-0.7532,-0.7704,-0.7729,-0.725,-0.67,-0.6122,-0.5745,-0.5281,-0.4537,-0.4626,-0.4736,-0.4699,-0.4837,-0.4713,-0.4196,-0.4307,0.0,-0.3974,-0.3753,-0.379,-0.4092,-0.3895,-0.3816,-0.3856,0.0,0.0,-0.3541,-0.3518,-0.3416,-0.3142,-0.3089,-0.2552,-0.1746,-0.1658,-0.148,-0.139,-0.1929,-0.2467,-0.2827,-0.2289,-0.1884,-0.157,-0.157,-0.2058,-0.2677,-0.2594,-0.2808,-0.3197,-0.3667,-0.3822,0.0,-0.4063,-0.413,-0.4153,-0.4159,-0.3986,-0.3851,-0.4047,-0.395,-0.3885,-0.4178,-0.3933,-0.3699,-0.3878,-0.3362,-0.293,-0.3048,-0.3545,-0.391,-0.3852,-0.4353,-0.4605,-0.4215,-0.4574,-0.4723,-0.4331,-0.4152,-0.3838,-0.3216,-0.2825,-0.2498,-0.2188,-0.2347,-0.2374,-0.2187,-0.2036,-0.1832,-0.1574,-0.166,-0.1928,-0.238,-0.2691,-0.3057,-0.3444,-0.293,-0.2693,0.0,0.0,0.0,0.0,0.0,0.0,0.0,0.0,0.0,0.0,0.0,-0.8099,0.0,0.0,-0.7599,-0.7766,-0.7828,-0.7746,-0.7478,-0.7062,-0.6578,-0.602,-0.5663,-0.5255,-0.4695,-0.4639,-0.4681,-0.4745,-0.4627,-0.445,-0.4178,-0.4138,-0.4031,-0.3769,-0.3534,-0.3552,-0.3685,-0.3579,-0.3462,-0.3236,-0.3239,-0.3207,-0.3089,-0.3273,-0.3176,-0.2814,-0.251,-0.1966,-0.1389,-0.1076,-0.1076,-0.1211,-0.0762,-0.1345,-0.2334,-0.1839,-0.1525,-0.1391,-0.1391,-0.1749,-0.2199,-0.2287,-0.2467,-0.2784,-0.3274,-0.3561,-0.3734,-0.3867,-0.3994,-0.4071,-0.4017,-0.372,-0.3498,-0.3672,-0.3452,-0.3327,-0.3714,-0.3635,-0.3569,-0.3833,-0.3501,-0.3181,-0.3327,-0.3486,-0.3589,-0.3588,-0.4079,-0.4359,-0.4138,-0.4384,-0.4494,-0.4233,-0.3926,-0.3602,-0.3235,-0.2718,-0.2299,-0.2061,-0.202,-0.1974,-0.1961,-0.1955,-0.1913,-0.1862,-0.1974,-0.2262,-0.2691,-0.2791,-0.2928,-0.3034,-0.2766,-0.2697,0.0,0.0,0.0,0.0,0.0,0.0,0.0,0.0,-0.896,-0.9106,-0.8942,-0.8778,-0.8708,-0.8171,-0.7841,-0.8114,-0.7965,-0.7664,-0.7229,-0.689,-0.6486,-0.5928,-0.5555,-0.52,-0.478,-0.4628,-0.4596,-0.4645,-0.4269,-0.404,-0.4108,-0.3894,-0.3671,-0.3582,-0.3355,-0.3262,-0.3255,-0.3262,-0.2959,-0.2395,-0.2729,-0.2759,-0.2513,-0.276,-0.2873,-0.276,-0.172,-0.123,-0.1076,-0.0583,-0.0673,-0.0942,0.0224,-0.0224,-0.148,-0.1211,-0.1121,-0.1166,-0.13,-0.1525,-0.1794,-0.2019,-0.2243,-0.2424,-0.2869,-0.3277,-0.3624,-0.3479,-0.3758,-0.3965,-0.3701,-0.3354,-0.3083,-0.3161,-0.2876,-0.2652,-0.3066,-0.3231,-0.3403,-0.3671,-0.3523,-0.3382,-0.352,-0.3267,-0.3103,-0.3322,-0.3747,-0.4055,-0.4055,-0.419,-0.4242,-0.4138,-0.374,-0.3401,-0.3216,-0.2562,-0.2139,-0.217,-0.1797,-0.1628,-0.1692,-0.1818,-0.1931,-0.2027,-0.2338,-0.2582,-0.2811,-0.271,-0.2534,-0.227,-0.2458,-0.2669,-0.8875,-0.8667,-0.8488,-0.8612,-0.8685,-0.8938,0.0,0.0,-1.0577,-1.1288,-1.0575,-0.9662,-0.9132,-0.8461,-0.7903,-0.7715,-0.7541,-0.7372,-0.7139,-0.6617,-0.6111,-0.5673,-0.5201,-0.4587,-0.3899,-0.3729,-0.3592,-0.34,-0.319,-0.3089,-0.3142,-0.2914,-0.2896,-0.3182,-0.2855,-0.2806,-0.3134,-0.2903,-0.2402,-0.1709,-0.2247,-0.2221,-0.1708,-0.2024,-0.2474,-0.3049,-0.1053,-0.018,-0.0134,-0.009,0.0045,0.0224,0.0449,0.0224,-0.0224,-0.0179,-0.0134,-0.0269,-0.0897,-0.1166,-0.1256,-0.1705,-0.1839,-0.193,-0.2243,-0.2642,-0.2892,-0.2446,-0.2859,-0.3375,-0.2859,-0.2797,-0.2809,-0.2778,-0.2608,-0.2438,-0.2552,-0.2596,-0.2621,-0.2648,-0.2539,-0.2383,-0.2245,-0.2377,-0.2643,-0.3077,-0.3327,-0.3497,-0.3497,-0.3497,-0.3608,-0.3827,-0.3594,-0.3162,-0.256,-0.2144,-0.206,-0.2353,-0.2096,-0.2077,-0.2371,-0.2295,-0.2212,-0.2184,-0.2345,-0.2322,-0.2106,-0.2607,-0.2489,-0.1796,-0.2466,-0.2558,-0.9755,-0.9602,0.0,0.0,-1.0248,-1.0471,-1.0907,-1.1318,-1.1646,-1.1821,-1.0975,-0.9913,-0.9083,-0.8323,-0.7795,0.0,-0.7546,-0.7311,-0.6867,-0.6699,-0.6222,-0.5207,-0.4736,-0.432,-0.3857,-0.3469,-0.3125,-0.2821,-0.2759,-0.2708,-0.258,-0.2508,-0.2471,-0.2616,-0.24,-0.245,-0.2811,-0.2449,-0.2078,-0.1596,-0.1646,-0.1444,-0.0893,-0.1232,-0.1352,-0.131,-0.0136,0.0359,0.0269,0.009,0.0224,0.0583,0.0897,0.0942,0.0762,0.0359,0.0134,0.0,-0.0179,-0.0314,-0.0538,-0.0987,-0.1166,-0.1256,-0.1794,-0.2108,-0.2238,-0.2175,-0.2461,-0.2768,-0.2493,-0.2421,-0.2426,-0.2284,-0.2164,-0.2074,-0.1948,-0.1995,-0.2072,-0.2149,-0.2202,-0.2213,-0.2172,-0.217,-0.2264,-0.2588,-0.2994,-0.3346,-0.3507,-0.358,-0.3633,-0.3691,-0.3524,-0.3198,-0.2683,-0.2315,-0.2162,-0.2264,-0.2,-0.1937,-0.2144,-0.2025,-0.2038,-0.2188,-0.2188,-0.2128,-0.1998,-0.2575,-0.2503,-0.1819,-0.2383,-0.2401,-1.0073,0.0,0.0,-1.0964,-1.1374,-1.1652,-1.1815,-1.209,-1.225,-1.1928,-1.1026,-1.0028,-0.9086,-0.8239,-0.7686,-0.7582,-0.7381,-0.71,-0.6652,-0.6503,-0.607,-0.5012,-0.444,-0.4055,-0.3769,-0.3229,-0.2749,-0.2332,-0.2316,-0.2219,-0.2089,-0.2015,-0.2027,-0.2125,-0.1904,-0.205,-0.2552,-0.2089,-0.1552,-0.0952,-0.0852,-0.0497,0.0098,-0.0243,-0.0142,0.0321,0.0722,0.0852,0.0718,0.0403,0.0583,0.1031,0.13,0.1436,0.148,0.1031,0.0628,0.0314,0.0359,0.0269,0.0045,-0.0448,-0.0628,-0.0718,-0.13,-0.157,-0.166,-0.1839,-0.201,-0.2075,-0.1895,-0.1919,-0.1898,-0.161,-0.1649,-0.1642,-0.1383,-0.1476,-0.1631,-0.175,-0.1856,-0.1951,-0.2005,-0.1859,-0.1828,-0.2038,-0.2444,-0.2882,-0.3336,-0.3514,-0.3532,-0.3335,-0.3249,-0.302,-0.2678,-0.2296,-0.2077,-0.1999,-0.1756,-0.1639,-0.1714,-0.1716,-0.1817,-0.2022,-0.1927,-0.1884,-0.1892,-0.2379,-0.2315,-0.1701,-0.2255,-0.2259,-0.9522,0.0,-1.1067,-1.1402,-1.1683,-1.1988,-1.2396,-1.2429,-1.2291,-1.1875,-1.1011,-1.0064,-0.9338,-0.8384,-0.7611,-0.7256,-0.6876,-0.6607,-0.6612,-0.586,-0.5321,-0.5282,-0.4431,-0.3679,0.0,-0.2838,-0.2329,-0.1841,-0.1631,-0.1525,-0.1527,-0.1336,-0.1362,-0.1612,-0.1363,-0.1602,-0.2408,-0.1867,-0.0835,0.0737,0.0295,0.054,0.1422,0.1085,0.11,0.1347,0.1391,0.139,0.1345,0.1076,0.13,0.1749,0.148,0.157,0.1839,0.2064,0.1705,0.0987,0.0538,0.0403,0.0314,-0.0224,-0.0403,-0.0448,-0.0673,-0.0897,-0.1121,-0.1121,-0.1236,-0.1252,-0.0845,-0.1033,-0.1212,-0.075,-0.0982,-0.1257,-0.0981,-0.1171,-0.1423,-0.142,-0.1362,-0.1312,-0.1344,-0.1208,-0.123,-0.1484,-0.1541,-0.1854,-0.2718,-0.3011,-0.3007,-0.2667,-0.2636,-0.2516,-0.2247,-0.1846,-0.1569,-0.1447,-0.1417,-0.1342,-0.1221,-0.1543,-0.1663,-0.1609,-0.161,-0.1611,-0.1612,-0.2016,-0.1841,-0.1155,-0.2068,-0.2163,-1.0543,-1.1141,-1.1716,-1.276,-1.2806,-1.2633,-1.2978,-1.2838,-1.2368,-1.1359,-1.0422,-0.9383,-0.8067,-0.7559,-0.719,-0.6675,-0.6559,-0.6412,-0.6097,-0.535,-0.4806,-0.4654,-0.3737,0.0,0.0,0.0,0.0,-0.1369,-0.1127,-0.0863,-0.0534,-0.0448,-0.0454,-0.0555,-0.0454,-0.0655,-0.1151,-0.055,0.015,0.1001,0.1235,0.156,0.1971,0.1827,0.2013,0.2376,0.2198,0.2242,0.2374,0.2106,0.2195,0.251,0.2419,0.2312,0.224,0.2634,0.2459,0.1937,0.1696,0.1345,0.0987,0.0493,0.0224,0.0045,-0.0359,-0.0448,-0.0358,-0.0353,-0.039,-0.0381,-0.0124,-0.0323,-0.0516,-0.0118,-0.0432,-0.0704,-0.0192,-0.0303,-0.0481,-0.0464,-0.0665,-0.0824,-0.0776,-0.084,-0.0932,-0.0972,-0.149,-0.2019,-0.2311,-0.2387,-0.2402,-0.2279,-0.2187,-0.2048,-0.1869,-0.1555,-0.1312,-0.1207,-0.1079,-0.1051,-0.1126,-0.1226,-0.1398,-0.158,-0.1379,-0.1311,-0.1412,-0.1713,-0.1667,-0.1297,-0.1635,-0.1603,-1.1196,-1.1668,-1.1991,-1.2892,-1.2884,-1.2655,-1.2669,-1.2442,-1.1937,-1.0858,-1.0113,-0.9169,-0.7601,-0.7181,-0.693,-0.6529,-0.6307,-0.6077,-0.5791,-0.5023,-0.4336,-0.3948,-0.3286,-0.2556,0.0,0.0,0.0,-0.0858,-0.0743,-0.0381,0.0388,0.0247,0.0251,0.0404,0.0354,0.0152,-0.0152,0.0404,0.101,0.1666,0.218,0.2388,0.2404,0.2528,0.2755,0.3035,0.2834,0.2914,0.3136,0.2867,0.2911,0.3136,0.3047,0.2875,0.2693,0.3083,0.2996,0.2612,0.2341,0.1961,0.148,0.1211,0.0807,0.0448,0.009,0.0134,0.0224,0.0177,0.0173,0.0297,0.0414,0.0162,-0.004,0.0236,-0.0118,-0.0351,0.0152,0.0075,-0.0074,0.0035,-0.0104,-0.0309,-0.0405,-0.0572,-0.0669,-0.0559,-0.1096,-0.1586,-0.1695,-0.1771,-0.1813,-0.1813,-0.1686,-0.157,-0.1503,-0.1113,-0.0858,-0.0807,-0.0707,-0.0707,-0.0875,-0.1008,-0.1176,-0.1311,-0.1176,-0.1076,-0.1008,-0.1245,-0.1268,-0.0996,-0.1151,-0.1103,-1.1397,-1.1831,-1.1942,-1.1942,-1.2077,-1.2052,-1.1655,-1.1397,-1.1055,-1.0369,-0.999,-0.9315,-0.7879,0.0,-0.6743,-0.6724,-0.6073,-0.5577,-0.5576,-0.4834,-0.4004,0.0,0.0,0.0,0.0,0.0,0.0,-0.0218,0.0,0.0093,0.1192,0.0827,0.0793,0.1262,0.101,0.0757,0.0606,0.096,0.1716,0.2724,0.3023,0.2995,0.2791,0.3159,0.3331,0.3371,0.3256,0.3361,0.3631,0.3358,0.3401,0.3626,0.3352,0.3174,0.3157,0.3418,0.3331,0.3072,0.2598,0.2156,0.1839,0.1792,0.1299,0.0717,0.0715,0.0716,0.0671,0.0491,0.0616,0.0734,0.076,0.0578,0.0364,0.0355,0.0039,-0.0156,0.0152,0.0,-0.0145,0.0176,0.0308,0.0235,-0.0168,-0.0337,-0.0371,-0.0235,-0.0371,-0.0568,-0.0942,-0.1125,-0.1244,-0.1244,-0.1144,-0.1076,-0.1076,-0.0606,-0.0303,-0.027,-0.0303,-0.0371,-0.0472,-0.0841,-0.0975,-0.0773,-0.0941,-0.0841,-0.0472,-0.0658,-0.0605,-0.0329,-0.0637,-0.0615,-1.1921,-1.2311,-1.2409,-1.2657,-1.2263,-1.1874,-1.2035,-1.1366,-1.045,-0.9521,-0.8547,-0.7545,-0.6404,-0.6131,0.0,-0.5731,-0.5497,0.0,-0.5175,-0.4422,0.0,-0.298,0.0,-0.1645,-0.0596,-0.0221,0.0,0.0,0.0879,0.1098,0.1848,0.1685,0.1858,0.2321,0.1917,0.1716,0.1766,0.1968,0.2523,0.3383,0.3416,0.3631,0.387,0.3586,0.3705,0.4108,0.3482,0.354,0.4117,0.3789,0.3811,0.4025,0.3873,0.3668,0.3469,0.3386,0.3386,0.3388,0.2771,0.236,0.2058,0.1805,0.1416,0.1026,0.1122,0.1167,0.1174,0.1262,0.1328,0.1399,0.157,0.1434,0.1267,0.1259,0.0943,0.0624,0.0685,0.0742,0.0759,0.0845,0.0959,0.1008,0.0908,0.0774,0.0701,0.0686,0.0431,0.0034,-0.0567,-0.0671,-0.0707,-0.0707,-0.0674,-0.064,-0.064,-0.0438,-0.0236,-0.0101,-0.0303,-0.0337,-0.0135,-0.0472,-0.0505,-0.0202,-0.0101,-0.0068,-0.0139,-0.0178,-0.0329,-0.0488,0.0346,0.043,-1.1579,-1.1877,-1.1844,-1.1748,-1.1469,-1.1146,-1.0954,-1.0232,-0.936,-0.8476,-0.7471,-0.6536,-0.5829,-0.5255,0.0,0.0,0.0,0.0,-0.45,-0.3728,-0.2851,0.0,-0.1294,0.0,0.0669,0.0918,0.1263,0.0,0.1798,0.1923,0.2548,0.2654,0.2816,0.304,0.2591,0.2401,0.2623,0.2725,0.3179,0.3937,0.3937,0.4097,0.4311,0.4085,0.4052,0.4196,0.0,0.389,0.4236,0.3974,0.3984,0.4108,0.4014,0.3855,0.3612,0.3572,0.3572,0.3577,0.3289,0.3065,0.2826,0.2354,0.197,0.172,0.1955,0.1906,0.1816,0.194,0.1775,0.1621,0.1721,0.1622,0.1454,0.1335,0.1013,0.0809,0.0988,0.0993,0.1098,0.1498,0.1535,0.148,0.1558,0.136,0.1159,0.1045,0.0833,0.0551,0.0227,-0.0166,-0.0404,-0.0404,-0.0337,-0.0236,-0.0169,-0.0034,0.0101,0.0202,0.0135,0.0101,0.0202,0.0034,0.0101,0.047,0.0371,0.0373,0.0585,0.0318,0.0253,0.0293,0.1015,0.1148,-1.0948,-1.1124,-1.0892,-1.0344,-1.0308,-1.0182,-0.9332,-0.8751,-0.8169,-0.7419,0.0,-0.5884,-0.5485,-0.4491,-0.3996,-0.4797,0.0,-0.3739,-0.3539,-0.2786,-0.1774,-0.0618,0.0,0.0767,0.2004,0.2201,0.2413,0.284,0.2704,0.2896,0.3443,0.3636,0.3679,0.3643,0.325,0.3176,0.3381,0.3381,0.3783,0.4489,0.4489,0.4493,0.4409,0.4564,0.4473,0.4145,0.0,0.0,0.4338,0.4145,0.4057,0.4057,0.4045,0.3907,0.3718,0.3881,0.3839,0.373,0.3902,0.39,0.3748,0.3162,0.2741,0.2581,0.2877,0.2727,0.2475,0.246,0.2139,0.1748,0.174,0.1634,0.1453,0.1218,0.0966,0.0874,0.125,0.1164,0.1277,0.2097,0.2041,0.1894,0.1995,0.1704,0.1451,0.1286,0.1138,0.1078,0.1194,0.042,-0.01,-0.01,0.0067,0.0236,0.0404,0.0539,0.0607,0.0607,0.074,0.0739,0.0571,0.0538,0.0706,0.1109,0.064,0.0709,0.1352,0.0831,0.0879,0.1418,0.145,0.1597,-1.1452,-1.1211,-1.0562,-1.0725,-1.0154,-0.9513,-0.9444,-0.8522,0.0,0.0,-0.576,-0.4822,-0.41,-0.3876,-0.3749,-0.3654,0.0,0.0,0.0,0.0,-0.0426,0.0,0.0,0.0,0.0,0.0,0.0,0.0,0.0,0.0,0.502,0.4556,0.4253,0.4268,0.4666,0.4674,0.4187,0.4435,0.4686,0.5039,0.5039,0.504,0.4943,0.4942,0.494,0.4881,0.0,0.0,0.5013,0.4568,0.4408,0.4398,0.4353,0.4309,0.4254,0.4104,0.4141,0.4191,0.3806,0.3889,0.417,0.3819,0.3429,0.3102,0.3262,0.305,0.2762,0.287,0.2659,0.2469,0.2579,0.2558,0.2512,0.2472,0.2072,0.1743,0.205,0.2107,0.2218,0.2551,0.2701,0.2711,0.251,0.2525,0.245,0.2151,0.188,0.171,0.1694,0.1158,0.0844,0.1006,0.1061,0.1076,0.111,0.1144,0.1177,0.1177,0.0941,0.0874,0.0975,0.0672,0.0739,0.1244,0.1076,0.1157,0.1531,0.1293,0.1255,0.1495,0.1652,0.1944,-0.9873,-0.9992,-0.9776,-0.9576,-0.9325,-0.8898,-0.8198,0.0,0.0,0.0,-0.4615,-0.3897,-0.3332,-0.3062,0.0,-0.2792,-0.2296,0.0,0.0,0.0,0.0,0.0,0.0,0.0,0.0,0.0,0.0,0.0,0.0,0.0,0.5345,0.5243,0.5113,0.4963,0.541,0.5537,0.524,0.5338,0.5639,0.6042,0.6042,0.5852,0.5446,0.5538,0.5376,0.503,0.4736,0.0,0.5265,0.4791,0.4693,0.4854,0.4739,0.4807,0.4947,0.4728,0.4783,0.4971,0.4834,0.4954,0.5107,0.4887,0.4408,0.3959,0.4181,0.3793,0.3318,0.3413,0.301,0.2548,0.2637,0.2707,0.2787,0.2668,0.2408,0.2208,0.2418,0.2457,0.2558,0.295,0.299,0.295,0.2731,0.277,0.2694,0.2456,0.2093,0.1933,0.2131,0.1721,0.1417,0.1417,0.1402,0.1456,0.1612,0.1715,0.1782,0.188,0.1714,0.168,0.178,0.1412,0.1412,0.1749,0.1412,0.1421,0.1922,0.1843,0.1916,0.2074,0.2542,0.2819,-0.8279,-0.8782,-0.8976,-0.8458,-0.8494,-0.8331,-0.703,-0.6221,0.0,-0.4339,-0.3649,-0.3132,-0.271,-0.2225,-0.191,0.0,-0.1405,-0.0823,0.0,0.0,0.0,0.0,0.0,0.0,0.0,0.0,0.0,0.0,0.0,0.0,0.5691,0.5981,0.6076,0.5804,0.61,0.6246,0.6239,0.6392,0.6642,0.7045,0.7045,0.6706,0.6031,0.6225,0.5996,0.5354,0.52,0.0,0.0,0.5217,0.5128,0.526,0.5162,0.53,0.5567,0.5424,0.5469,0.568,0.5892,0.5975,0.5953,0.5857,0.5396,0.4857,0.4872,0.4431,0.3884,0.3849,0.3294,0.2723,0.2827,0.2942,0.3022,0.2824,0.276,0.2743,0.2777,0.2797,0.291,0.3213,0.3202,0.304,0.2823,0.2838,0.2795,0.2563,0.2232,0.2134,0.2503,0.2258,0.1964,0.1786,0.1742,0.1836,0.2047,0.2253,0.2421,0.2551,0.2555,0.2555,0.2517,0.2218,0.2119,0.2188,0.1759,0.1759,0.2321,0.2451,0.263,0.2859,0.3438,0.3704,-0.8232,-0.8583,-0.8458,-0.8423,-0.8128,-0.7733,-0.7045,0.0,-0.4748,-0.3926,-0.3227,-0.2549,-0.1846,-0.1471,-0.1157,0.0,0.0,0.0816,0.1712,0.0,0.0,0.0,0.0,0.0,0.0,0.0,0.0,0.0,0.0,0.0,0.0,0.7162,0.7098,0.6672,0.7167,0.7322,0.7089,0.759,0.7839,0.7889,0.7889,0.7488,0.6829,0.7023,0.6922,0.6609,0.0,0.0,0.0,0.6202,0.5872,0.5575,0.5562,0.5683,0.5848,0.5836,0.5918,0.6056,0.6193,0.6285,0.626,0.6301,0.6021,0.5466,0.4766,0.4381,0.4118,0.3957,0.3655,0.3504,0.3864,0.3962,0.3921,0.3724,0.3783,0.3756,0.3409,0.3594,0.3734,0.3284,0.3379,0.3382,0.281,0.2906,0.2993,0.2731,0.2641,0.2643,0.2663,0.2752,0.2755,0.2595,0.2596,0.2611,0.2619,0.2822,0.2991,0.3125,0.3125,0.3058,0.2956,0.2755,0.2487,0.2221,0.2208,0.2345,0.2653,0.3105,0.3432,0.3695,0.4008,0.4329,-0.7344,-0.7809,-0.7862,-0.7575,-0.7536,-0.7215,-0.5812,0.0,-0.4229,-0.2743,-0.2229,-0.1762,-0.0924,-0.0582,-0.0304,0.0032,0.0499,0.1178,0.2132,0.0,0.0,0.0,0.0,0.0,0.0,0.0,0.0,0.0,0.0,0.0,0.0,0.8322,0.7875,0.754,0.8031,0.818,0.7935,0.8435,0.8737,0.8733,0.8637,0.822,0.7573,0.7538,0.7294,0.7003,0.0,0.0,0.0,0.6903,0.6603,0.6304,0.6249,0.6414,0.6732,0.6641,0.6843,0.7182,0.7236,0.7179,0.7086,0.697,0.6744,0.6321,0.558,0.5022,0.4571,0.4365,0.4259,0.4163,0.3969,0.4114,0.4309,0.4501,0.4373,0.4253,0.429,0.4151,0.4028,0.4128,0.3926,0.3679,0.3508,0.329,0.3121,0.2962,0.2788,0.2852,0.3314,0.3221,0.321,0.3411,0.3133,0.2967,0.2986,0.3192,0.3393,0.3661,0.3594,0.3525,0.3491,0.3239,0.3063,0.2931,0.29,0.3029,0.3242,0.3725,0.3939,0.3946,0.4347,0.4633,-0.6162,-0.6951,-0.7274,-0.66,-0.6652,-0.6394,0.0,0.0,-0.3453,-0.1852,-0.1372,-0.0968,-0.0058,0.0444,0.0791,0.0964,0.1417,0.2046,0.2837,0.3531,0.0,0.0,0.0,0.0,0.0,0.0,0.0,0.0,0.0,0.0,0.0,0.962,0.8977,0.8389,0.8779,0.8928,0.8779,0.9229,0.9456,0.9453,0.9417,0.9041,0.8347,0.8189,0.7956,0.7617,0.0,0.0,0.0,0.7467,0.7211,0.6918,0.6761,0.6951,0.7328,0.73,0.759,0.8002,0.7936,0.7785,0.7674,0.7522,0.7244,0.6853,0.646,0.5818,0.5227,0.5026,0.4957,0.4849,0.4308,0.4301,0.4537,0.5074,0.4795,0.4533,0.4973,0.4639,0.4361,0.4731,0.4334,0.3916,0.391,0.3572,0.325,0.3131,0.2993,0.3067,0.3527,0.3575,0.3614,0.3746,0.3675,0.3549,0.3456,0.3627,0.3894,0.4228,0.4259,0.4208,0.4004,0.3907,0.3788,0.3542,0.3449,0.3518,0.3747,0.4103,0.425,0.4222,0.4596,0.4781,-0.4786,-0.5984,-0.6733,-0.569,-0.5431,-0.5201,0.0,-0.3279,-0.2297,-0.1485,-0.0842,-0.0148,0.0734,0.1605,0.2184,0.219,0.307,0.3878,0.4231,0.499,0.0,0.0,0.0,0.0,0.0,0.0,0.0,0.0,0.0,0.0,0.0,1.1198,1.056,0.9236,0.943,0.9579,0.9579,0.9875,1.0028,1.0088,1.0275,0.9968,0.9182,0.9182,0.908,0.0,0.0,0.0,0.0,0.795,0.7576,0.7184,0.698,0.7122,0.7413,0.7628,0.79,0.8176,0.7978,0.7919,0.7888,0.7885,0.7407,0.6882,0.7274,0.6795,0.6045,0.5905,0.575,0.5526,0.5162,0.479,0.4671,0.541,0.4992,0.4609,0.5347,0.5124,0.4797,0.4797,0.4463,0.408,0.3768,0.36,0.3401,0.3147,0.3274,0.333,0.3132,0.3733,0.4003,0.3451,0.4218,0.4561,0.4028,0.4189,0.4422,0.4764,0.5163,0.5124,0.4533,0.4812,0.4628,0.3926,0.3765,0.3843,0.4114,0.4182,0.4365,0.4687,0.471,0.4723,-0.3691,-0.4491,-0.4775,-0.4116,-0.4071,-0.3801,-0.2427,-0.1898,-0.133,-0.0121,0.0582,0.1128,0.1616,0.2345,0.2987,0.3375,0.3825,0.4428,0.0,0.0,0.0,0.0,0.0,0.0,0.0,0.0,0.0,0.0,0.0,0.0,0.0,1.232,1.1809,1.0359,1.0556,1.044,0.9969,1.0408,1.0548,1.0389,1.0163,1.0081,1.0123,0.9669,0.0,0.0,0.0,0.0,0.0,0.8573,0.8317,0.7834,0.7906,0.8095,0.8304,0.852,0.8792,0.9105,0.9071,0.8966,0.8808,0.8553,0.8195,0.7893,0.7842,0.7165,0.6471,0.657,0.6325,0.6067,0.6273,0.5913,0.5629,0.5971,0.5541,0.5142,0.5605,0.543,0.5359,0.5789,0.5318,0.4848,0.4918,0.4553,0.4208,0.4073,0.4293,0.4624,0.5029,0.5288,0.5423,0.546,0.5498,0.5193,0.4264,0.4395,0.4658,0.499,0.5123,0.5176,0.5124,0.5183,0.5087,0.4792,0.4583,0.4478,0.4518,0.4665,0.4928,0.5254,0.4831,0.4812,-0.2594,-0.3252,-0.3374,-0.2842,-0.2566,0.0,-0.1065,-0.0563,-0.0031,0.0978,0.159,0.2084,0.2531,0.3116,0.3678,0.4049,0.4514,0.0,0.0,0.0,0.0,0.0,0.0,0.0,0.0,0.0,0.0,0.0,0.0,0.0,0.0,0.0,1.2791,1.1808,1.1783,1.1424,1.0691,1.1124,1.1115,1.068,1.0522,1.0465,1.046,0.9943,0.0,0.0,0.0,0.0,0.0,0.932,0.9135,0.8784,0.8818,0.8933,0.9058,0.9252,0.9508,0.975,0.9739,0.9589,0.9372,0.911,0.8794,0.8522,0.8212,0.7634,0.7116,0.7048,0.6776,0.6602,0.6828,0.6511,0.6197,0.6507,0.6131,0.5811,0.615,0.5936,0.5822,0.6251,0.5752,0.5306,0.5372,0.5102,0.4862,0.4717,0.4966,0.5308,0.5697,0.5829,0.5906,0.5946,0.5917,0.5591,0.4797,0.4761,0.4924,0.519,0.5322,0.5382,0.5376,0.5501,0.5537,0.5407,0.509,0.4928,0.4932,0.4999,0.5129,0.5352,0.4948,0.4965,0.0,-0.2216,-0.2406,-0.169,-0.0969,-0.0361,-0.0124,0.0718,0.0,0.1851,0.2313,0.2865,0.3488,0.3925,0.426,0.4482,0.5248,0.0,0.0,0.0,0.0,0.0,0.0,0.0,0.0,0.0,0.0,0.0,0.0,0.0,0.0,0.0,1.3568,1.3568,1.3108,1.248,1.1701,1.1921,1.1698,1.1049,1.1217,1.099,1.0391,1.0126,0.0,0.0,0.0,0.0,0.0,1.0198,0.996,0.9954,0.9787,0.9717,0.9721,0.9927,1.01,1.0246,1.0048,0.9869,0.9696,0.9574,0.9262,0.8855,0.8493,0.8202,0.7908,0.7392,0.722,0.713,0.7,0.668,0.651,0.6985,0.6754,0.6515,0.6797,0.653,0.6243,0.6243,0.5914,0.5567,0.5318,0.5368,0.5385,0.5128,0.5358,0.5548,0.5464,0.5626,0.5657,0.5403,0.5697,0.5789,0.5524,0.5289,0.5256,0.5428,0.5723,0.5725,0.5387,0.5844,0.5955,0.5703,0.5317,0.5199,0.5356,0.5196,0.5139,0.5208,0.5101,0.5186,0.0504,0.0,-0.0991,0.0031,0.025,0.0403,0.0,0.194,0.2605,0.2959,0.3729,0.4394,0.46,0.4858,0.5346,0.6343,0.0,0.0,0.0,0.0,0.0,0.0,0.0,0.0,0.0,0.0,0.0,0.0,0.0,0.0,0.0,0.0,1.5003,1.5003,1.4732,1.3913,1.2473,1.235,1.211,1.1754,1.1219,1.1199,1.1507,1.1265,0.0,0.0,0.0,0.0,1.0561,1.0579,1.0588,1.0594,1.0694,1.0732,1.0743,1.0802,1.0865,1.0862,1.0657,1.0677,1.0659,1.0118,0.9661,0.9254,0.9127,0.8557,0.7966,0.7832,0.7785,0.7794,0.7762,0.7467,0.7198,0.7177,0.697,0.6745,0.6568,0.6544,0.6576,0.6576,0.6313,0.6025,0.5986,0.6,0.5999,0.5919,0.6073,0.6383,0.6925,0.6679,0.6607,0.6928,0.6322,0.602,0.6379,0.5984,0.5789,0.5984,0.5954,0.594,0.5974,0.5948,0.5895,0.5775,0.5437,0.5479,0.5973,0.5322,0.5464,0.6231,0.5302,0.5316,0.1683,0.0587,-0.0332,0.0392,0.0754,0.1017,0.1472,0.2405,0.3249,0.3499,0.4191,0.4924,0.5412,0.5633,0.6084,0.0,0.0,0.0,0.0,0.0,0.0,0.0,0.0,0.0,0.0,0.0,0.0,0.0,0.0,0.0,0.0,0.0,1.5143,1.4986,1.4901,1.4298,1.3223,1.3076,1.2746,1.2265,1.1601,1.1543,1.1966,1.1621,0.0,0.0,0.0,0.0,1.1484,1.1595,1.1558,1.1484,1.1595,1.1595,1.1484,1.1409,1.1372,1.1354,1.112,1.099,1.0827,1.0405,1.0045,0.9807,0.9784,0.9375,0.8898,0.8734,0.858,0.845,0.8474,0.8216,0.7898,0.7631,0.747,0.7293,0.6876,0.6937,0.7003,0.6741,0.6609,0.6482,0.6318,0.6416,0.651,0.6512,0.6778,0.7138,0.7526,0.7138,0.697,0.7456,0.6675,0.6284,0.6675,0.6482,0.6317,0.6214,0.602,0.5987,0.6178,0.602,0.5837,0.576,0.5642,0.5705,0.5938,0.5586,0.586,0.6707,0.5874,0.5914,0.2349,0.1275,0.0145,0.036,0.098,0.1545,0.1516,0.2613,0.3696,0.3841,0.4385,0.5127,0.6105,0.637,0.0,0.0,0.0,0.0,0.0,0.0,0.0,0.0,0.0,0.0,0.0,0.0,0.0,0.0,0.0,0.0,0.0,0.0,0.0,1.4645,1.4567,1.4356,1.3952,1.3766,1.3352,1.2732,1.219,1.2056,1.226,1.1871,1.2003,0.0,0.0,0.0,1.2776,1.2661,1.2494,1.2384,1.2469,1.2345,1.2091,1.1953,1.1892,1.189,1.1539,1.1129,1.0717,1.0539,1.0464,1.0392,1.0378,1.0288,1.0117,0.9837,0.946,0.9113,0.9049,0.8797,0.8479,0.8117,0.8014,0.7884,0.7368,0.7396,0.7358,0.6905,0.6909,0.6909,0.6679,0.6848,0.7045,0.7077,0.7405,0.7694,0.7759,0.7307,0.7138,0.7554,0.7003,0.6708,0.6966,0.7036,0.6942,0.6572,0.6214,0.6083,0.628,0.6166,0.6059,0.5975,0.6132,0.6135,0.5983,0.6096,0.644,0.7007,0.6588,0.6682,0.2668,0.192,0.1392,0.1377,0.1581,0.1888,0.2372,0.3414,0.4353,0.464,0.5341,0.6139,0.7021,0.7362,0.7896,0.0,0.0,0.0,0.0,0.0,0.0,0.0,0.0,0.0,0.0,0.0,0.0,0.0,0.0,0.0,0.0,0.0,0.0,1.5766,1.5381,1.4954,1.4558,1.3819,1.3406,1.3273,1.2783,1.2777,1.3106,1.2996,1.3149,0.0,0.0,1.3157,1.3557,1.2935,1.2685,1.2671,1.3129,1.3035,1.2607,1.2693,1.2826,1.2894,1.2264,1.1574,1.0936,1.0903,1.0857,1.0803,1.0755,1.0839,1.0926,1.0863,1.0288,0.9614,0.9338,0.9081,0.8791,0.8301,0.8172,0.8042,0.7559,0.7493,0.7493,0.7391,0.7391,0.7493,0.7727,0.7661,0.7629,0.7792,0.7657,0.7689,0.8074,0.7717,0.7587,0.8042,0.7744,0.7707,0.8199,0.8069,0.8037,0.8134,0.7162,0.6576,0.6609,0.6911,0.7138,0.7237,0.741,0.7595,0.7718,0.7407,0.7403,0.7663,0.7082,0.6944,0.3266,0.26,0.2298,0.2828,0.2479,0.2189,0.2921,0.3897,0.4861,0.5469,0.6132,0.0,0.0,0.0,0.0,0.0,0.0,0.0,0.0,0.0,0.0,0.0,0.0,0.0,0.0,0.0,0.0,0.0,0.0,0.0,0.0,0.0,0.0,0.0,1.5413,1.503,1.4519,1.4134,1.389,1.3834,1.3468,1.3381,1.3585,1.3445,1.3416,1.3515,0.0,1.3171,1.3187,1.2977,1.2807,1.2718,1.2976,1.2904,1.2691,1.2655,1.2712,1.2746,1.2149,1.1664,1.1314,1.1214,1.1134,1.1138,1.1227,1.1216,1.1216,1.1341,1.0863,1.0256,0.9913,0.9632,0.9312,0.8759,0.8565,0.8371,0.7754,0.7749,0.7782,0.7396,0.7493,0.7661,0.7824,0.7922,0.8047,0.8236,0.8458,0.8651,0.8877,0.8716,0.8742,0.9128,0.8801,0.8705,0.9,0.8877,0.8624,0.8269,0.7717,0.733,0.7129,0.738,0.7513,0.7513,0.7679,0.7799,0.7944,0.7859,0.7974,0.8275,0.7779,0.7718,0.3792,0.3399,0.3413,0.3839,0.3145,0.2623,0.3609,0.4458,0.5293,0.6239,0.6847,0.0,0.0,0.994,0.0,0.0,0.0,0.0,0.0,0.0,0.0,0.0,0.0,0.0,0.0,0.0,0.0,0.0,0.0,0.0,0.0,0.0,0.0,0.0,1.5193,1.492,1.445,1.4504,1.4359,1.4034,1.389,1.3803,1.3799,1.3654,1.3548,1.3467,1.3322,1.3155,1.3042,1.3007,1.2943,1.281,1.2919,1.2916,1.2822,1.2714,1.2594,1.2439,1.2058,1.1792,1.1622,1.1428,1.1341,1.1341,1.1529,1.1466,1.1341,1.1529,1.131,1.0902,1.046,1.0149,0.9786,0.9197,0.8945,0.8667,0.8074,0.809,0.811,0.7671,0.7898,0.8163,0.826,0.8522,0.8861,0.9177,0.949,0.9728,0.9886,0.981,0.9862,1.0148,0.9888,0.9729,0.9805,0.9652,0.9242,0.8501,0.8306,0.8112,0.7819,0.8043,0.8092,0.7889,0.8143,0.8309,0.8351,0.8466,0.8661,0.8889,0.8486,0.8465,0.4081,0.4431,0.508,0.3774,0.3154,0.325,0.4812,0.5305,0.5775,0.689,0.7454,0.0,0.0,0.0,0.0,0.0,0.0,0.0,0.0,0.0,0.0,0.0,0.0,0.0,0.0,0.0,0.0,0.0,0.0,0.0,0.0,0.0,0.0,0.0,0.0,1.4817,1.4578,1.4784,1.4413,1.3551,1.3719,1.3802,1.3783,1.3783,1.3874,1.4007,1.3396,1.3437,1.3966,1.3348,1.3091,1.3123,1.3556,1.3526,1.3274,1.3451,1.3082,1.2487,1.2544,1.2213,1.1771,1.1622,1.1466,1.1341,1.1529,1.1466,1.1341,1.1529,1.156,1.1373,1.0674,1.0396,1.0103,0.9426,0.9123,0.8949,0.8765,0.8497,0.8385,0.8711,0.9161,0.9548,0.9866,1.015,1.0571,1.1286,1.0734,1.0469,1.1091,1.0752,1.0496,1.0706,1.0832,1.0825,1.0706,1.0396,1.011,0.9856,0.9274,0.8861,0.8705,0.9327,0.948,0.9101,0.9689,1.0008,1.003,0.9841,0.9695,0.9539,0.9121,0.8941,0.581,0.5759,0.5879,0.579,0.5472,0.542,0.6218,0.6639,0.7245,0.8563,0.9059,0.0,0.0,0.0,0.0,0.0,0.0,0.0,0.0,0.0,0.0,0.0,0.0,0.0,0.0,0.0,0.0,0.0,0.0,0.0,0.0,0.0,0.0,0.0,0.0,1.4918,1.4713,1.4854,1.4538,1.3831,1.4278,1.4338,1.4106,1.401,1.3884,1.372,1.3376,1.3308,1.3415,1.315,1.3039,1.3047,1.324,1.3308,1.3291,1.3156,1.3004,1.2828,1.2515,1.2227,1.1965,1.1778,1.1522,1.1341,1.1529,1.1466,1.1365,1.1654,1.1716,1.1615,1.1115,1.1021,1.0954,1.0619,1.0492,1.0355,1.0087,0.9848,0.9644,0.9599,0.9823,1.0143,1.0492,1.0673,1.0947,1.1358,1.121,1.1111,1.1263,1.1241,1.1233,1.1397,1.1459,1.1428,1.131,1.1059,1.0895,1.08,1.0072,0.96,0.9536,0.9859,0.9993,0.9869,1.0329,1.0586,1.0556,1.0625,1.0556,1.0325,1.0043,0.9931,0.7177,0.6954,0.6867,0.7375,0.7396,0.7462,0.8072,0.8172,0.8498,0.9718,1.0387,1.1001,1.1821,0.0,0.0,0.0,0.0,0.0,0.0,0.0,0.0,0.0,0.0,0.0,0.0,0.0,0.0,0.0,0.0,0.0,0.0,0.0,0.0,0.0,0.0,1.5019,1.4931,1.4979,1.4781,1.4318,1.4768,1.4729,1.4192,1.41,1.3891,1.3601,1.3506,1.3385,1.3255,1.3255,1.3224,1.3164,1.305,1.3075,1.3177,1.2956,1.2959,1.3011,1.2639,1.2428,1.2282,1.212,1.184,1.1591,1.1778,1.1654,1.1553,1.1895,1.1988,1.1895,1.174,1.1677,1.1648,1.1428,1.1423,1.1364,1.0994,1.0786,1.0548,1.0249,1.0483,1.0821,1.1034,1.1392,1.1755,1.2062,1.2056,1.2018,1.2101,1.2025,1.1996,1.2058,1.2027,1.1957,1.184,1.1654,1.1522,1.1522,1.0926,1.0516,1.0421,1.0575,1.0694,1.0736,1.1118,1.1324,1.1372,1.1521,1.1446,1.1186,1.0962,1.0887,0.7904,0.7897,0.8125,0.8198,0.852,0.915,1.0337,0.9837,0.9344,1.0166,1.1182,1.1982,1.2263,0.0,0.0,0.0,0.0,0.0,0.0,0.0,0.0,0.0,0.0,0.0,0.0,0.0,0.0,0.0,0.0,0.0,0.0,0.0,0.0,0.0,0.0,0.0,1.5215,1.5215,1.5156,1.5009,1.5156,1.4793,1.401,1.401,1.392,1.3799,1.3799,1.3799,1.3799,1.3799,1.37,1.348,1.3133,1.3019,1.3019,1.3019,1.3019,1.2989,1.2989,1.2928,1.2775,1.2652,1.2375,1.2151,1.2274,1.2089,1.1895,1.239,1.2421,1.2336,1.2482,1.2305,1.2035,1.1698,1.1716,1.171,1.1304,1.1108,1.0942,1.0672,1.1207,1.1712,1.1712,1.2437,1.3196,1.3813,1.3405,1.3205,1.383,1.3242,1.2744,1.2629,1.2552,1.2451,1.2336,1.2112,1.2019,1.2019,1.1895,1.1646,1.1334,1.1571,1.1687,1.1696,1.2172,1.2477,1.2599,1.2599,1.2415,1.2003,1.1818,1.1706,0.8319,0.8397,0.8666,0.9258,1.0109,1.0926,1.129,1.0934,1.0788,0.0,1.249,1.2846,1.2672,0.0,0.0,0.0,0.0,0.0,0.0,0.0,0.0,0.0,0.0,0.0,0.0,0.0,0.0,0.0,0.0,0.0,0.0,0.0,0.0,0.0,0.0,0.0,1.5979,1.5797,1.5594,1.543,1.5459,1.5196,1.4704,1.4577,1.4478,1.4419,1.433,1.43,1.427,1.413,1.398,1.3851,1.3739,1.3649,1.3558,1.3558,1.3459,1.3338,1.3238,1.3307,1.3398,1.3186,1.3086,1.3056,1.3025,1.2842,1.2712,1.2995,1.2942,1.2828,1.3033,1.3186,1.3221,1.2893,1.2848,1.2894,1.2757,1.2453,1.2158,1.2082,1.2607,1.3059,1.3173,1.3559,1.3899,1.4073,1.367,1.3442,1.3655,1.3171,1.2995,1.3468,1.3106,1.2828,1.2797,1.2644,1.2552,1.2552,1.2521,1.2305,1.1872,1.1892,1.1951,1.2037,1.2556,1.2806,1.2826,1.3083,1.3083,1.2826,1.2783,1.2753,0.9657,0.963,0.976,1.0663,1.131,1.1797,1.2246,0.0,0.0,0.0,0.0,1.3301,0.0,0.0,0.0,0.0,0.0,0.0,0.0,0.0,0.0,0.0,0.0,0.0,0.0,0.0,0.0,0.0,0.0,0.0,0.0,0.0,0.0,0.0,0.0,0.0,1.5784,1.5573,1.5388,1.5231,1.5419,1.5366,1.508,1.5022,1.501,1.504,1.4863,1.4754,1.4686,1.4478,1.427,1.407,1.407,1.395,1.3799,1.386,1.3791,1.3692,1.367,1.3761,1.3881,1.3812,1.3833,1.3893,1.3872,1.3743,1.3614,1.3743,1.3692,1.361,1.364,1.3911,1.4016,1.345,1.3498,1.3626,1.3525,1.3227,1.3019,1.3161,1.3496,1.3839,1.3969,1.4281,1.446,1.4341,1.4013,1.3778,1.3766,1.3481,1.34,1.3712,1.3534,1.3376,1.3316,1.3285,1.3285,1.3285,1.3224,1.3072,1.2797,1.2531,1.2512,1.2755,1.3188,1.3417,1.3368,1.3739,1.3811,1.3557,1.3557,1.3557,1.1485,1.1297,1.1178,1.2234,1.2206,0.0,1.3163,1.3133,1.3035,1.3515,0.0,0.0,0.0,0.0,0.0,0.0,0.0,0.0,0.0,0.0,0.0,0.0,0.0,0.0,0.0,0.0,0.0,0.0,0.0,0.0,0.0,0.0,0.0,0.0,0.0,0.0,1.5102,1.4961,1.4856,0.0,1.5239,1.5379,1.5255,1.5406,1.5536,1.5652,1.541,1.5215,1.5059,1.4893,1.4597,1.4279,1.4279,1.41,1.389,1.401,1.404,1.407,1.4219,1.4309,1.4369,1.4558,1.4647,1.4677,1.4765,1.4706,1.4588,1.4588,1.4558,1.4529,1.433,1.4538,1.4545,1.3633,1.3811,1.4067,1.3738,1.354,1.3542,1.3901,1.4098,1.4258,1.44,1.4792,1.4961,1.4627,1.4389,1.4228,1.4174,1.4118,1.3959,1.3735,1.3929,1.404,1.389,1.398,1.404,1.401,1.389,1.386,1.389,1.3346,1.3223,1.3619,1.3949,1.4122,1.4155,1.4482,1.4497,1.4201,1.4201,1.4201,1.1951,1.2039,1.2075,1.3082,1.3372,1.354,1.3915,1.3903,1.3904,1.4225,0.0,0.0,0.0,0.0,0.0,0.0,0.0,0.0,0.0,0.0,0.0,0.0,0.0,0.0,0.0,0.0,0.0,0.0,0.0,0.0,0.0,0.0,0.0,0.0,0.0,1.5393,1.5942,1.5697,1.5517,0.0,1.5613,1.5693,1.5673,1.5858,1.6028,1.6153,1.6095,1.5923,1.57,1.5671,1.5332,1.4823,1.4823,1.4616,1.4357,1.4387,1.4467,1.4567,1.4686,1.502,1.54,1.5555,1.5671,1.5729,1.5671,1.5497,1.5323,1.5235,1.5118,1.505,1.5001,1.5118,1.51,1.4543,1.4483,1.4477,1.4124,1.3969,1.3973,1.4313,1.4696,1.5068,1.5341,1.5564,1.5565,1.5117,1.4784,1.4837,1.5506,1.498,1.4747,1.5254,1.498,1.4666,1.4359,1.438,1.433,1.416,1.413,1.424,1.4508,1.3782,1.3518,1.375,1.4146,1.4388,1.4479,1.4888,1.5026,1.4955,1.4955,1.4955,1.2395,1.2712,1.2921,1.3784,0.0,1.4008,1.4236,1.4234,1.4294,1.4648,0.0,0.0,0.0,0.0,0.0,0.0,0.0,0.0,0.0,0.0,0.0,0.0,0.0,0.0,0.0,0.0,0.0,0.0,0.0,0.0,0.0,0.0,0.0,0.0,1.5065,1.5054,1.543,1.5235,1.5137,1.5113,1.5353,1.5632,1.5888,1.601,1.6079,1.614,1.6004,1.587,1.5759,1.5685,1.5388,1.4981,1.4888,1.4658,1.4359,1.4336,1.4411,1.46,1.4916,1.5278,1.563,1.6099,1.6275,1.6343,1.6343,1.6257,1.6114,1.5912,1.5845,1.5845,1.5671,1.5787,1.5822,1.5236,1.4982,1.4806,1.4499,1.4372,1.4499,1.5106,1.5426,1.5694,1.6081,1.6187,1.6142,1.5923,1.5594,1.5498,1.5802,1.5311,1.5046,1.5384,1.5162,1.4941,1.4754,1.4745,1.4695,1.4577,1.4586,1.4704,1.4931,1.4743,1.4518,1.4296,1.4719,1.4937,1.4976,1.5583,1.5798,1.563,1.563,1.5594,1.2645,1.3248,1.3739,1.4417,1.4373,0.0,1.4502,1.4451,1.4457,0.0,0.0,0.0,0.0,0.0,0.0,0.0,0.0,0.0,0.0,0.0,0.0,0.0,0.0,0.0,0.0,0.0,0.0,0.0,0.0,0.0,0.0,0.0,1.5096,1.473,1.4616,1.4616,1.4719,1.4593,1.4569,1.4696,1.4979,1.5446,1.6001,1.5947,1.5961,1.6015,1.576,1.5658,1.5654,1.5666,1.5411,1.5042,1.4985,1.4679,1.4286,1.4231,1.4334,1.457,1.5094,1.5386,1.5694,1.6441,1.6733,1.6779,1.6892,1.6892,1.6818,1.6524,1.6542,1.6599,1.6371,1.6513,1.6601,1.599,1.5681,1.5386,1.4884,1.4879,1.5205,1.5981,1.6243,1.6411,1.6658,1.6712,1.6712,1.6599,1.6371,1.6095,1.5846,1.5566,1.5323,1.5205,1.5205,1.5176,1.5117,1.5117,1.5117,1.5147,1.5147,1.5235,1.5439,1.587,1.5811,1.5229,1.5574,1.5758,1.5748,1.6414,1.6603,1.6377,1.6272,1.6167,1.2453,1.3494,1.4469,0.0,1.5119,1.4857,0.0,0.0,1.4565,0.0,0.0,0.0,0.0,0.0,0.0,0.0,0.0,0.0,0.0,0.0,0.0,0.0,0.0,0.0,0.0,0.0,0.0,0.0,0.0,0.0,1.5842,1.5383,1.5143,1.5199,1.5199,1.5199,1.5199,1.5062,1.5017,1.504,1.5188,1.5522,1.5982,1.5707,1.5796,1.6195,1.6241,1.6139,1.5986,1.6497,1.6121,1.531,1.5817,1.5407,1.4557,1.4661,1.4746,1.4898,1.5456,1.586,1.6278,1.6842,1.7195,1.7385,1.7385,1.7323,1.7183,1.6965,1.6927,1.6955,1.7022,1.7217,1.7379,1.7329,1.7295,1.6853,1.5372,1.5591,1.6208,1.6609,1.7208,1.7532,1.7196,1.7207,1.714,1.6655,1.657,1.6467,1.6316,1.6134,1.597,1.597,1.5941,1.5855,1.5614,1.5614,1.5662,1.5758,1.5787,1.596,1.641,1.6758,1.6907,1.6777,1.6846,1.6967,1.7137,1.7233,1.7373,1.7467,1.7003,1.6769,1.2599,1.3624,1.4526,0.0,1.5223,1.5277,1.5468,0.0,0.0,0.0,0.0,0.0,0.0,0.0,0.0,0.0,0.0,0.0,0.0,0.0,0.0,0.0,0.0,0.0,0.0,0.0,0.0,0.0,0.0,1.5904,1.558,1.5496,1.548,1.5582,1.5582,1.5582,1.5582,1.5525,1.5491,1.5491,1.5546,1.5687,1.5889,1.5742,1.581,1.6078,1.5948,1.5898,1.5892,1.6006,1.6005,1.5902,1.5635,1.5498,1.5395,1.4998,1.4985,1.5185,1.561,1.5856,1.6157,1.6941,1.7243,1.733,1.7627,1.7617,1.7518,1.7423,1.7385,1.7412,1.7551,1.7558,1.7554,1.7768,1.7701,1.7446,1.6893,1.6942,1.7099,1.7186,1.7596,1.7826,1.7534,1.7606,1.7567,1.7256,1.7134,1.7004,1.6676,1.642,1.621,1.6114,1.6038,1.5961,1.5923,1.5923,1.6038,1.6285,1.6285,1.6446,1.6814,1.7528,1.7912,1.8012,1.7893,1.7823,1.7855,1.8175,1.8395,1.8496,1.8259,1.7954,1.2313,1.3188,1.4038,1.476,1.5235,1.558,0.0,0.0,0.0,0.0,0.0,0.0,0.0,0.0,0.0,0.0,0.0,0.0,0.0,0.0,0.0,0.0,0.0,0.0,0.0,0.0,0.0,0.0,0.0,1.589,1.5326,1.561,1.5716,1.5547,1.5603,1.5582,1.5449,1.5572,1.5748,1.5991,1.5954,1.5988,1.6022,1.5988,1.6017,1.6125,1.5723,1.5624,1.5717,1.5677,1.5933,1.6284,1.575,1.5771,1.6018,1.5485,1.5325,1.5426,1.5742,1.5928,1.6159,1.7027,1.7332,1.742,1.7939,1.7975,1.7877,1.792,1.7904,1.7897,1.7993,1.7987,1.8052,1.8268,1.8276,1.8276,1.8297,1.808,1.7871,1.7878,1.7997,1.8018,1.7783,1.7909,1.7936,1.7629,1.7534,1.7329,1.6874,1.663,1.6449,1.6343,1.6239,1.6239,1.6371,1.6371,1.6513,1.6797,1.6942,1.7091,1.7307,1.8308,1.8892,1.8984,1.9018,1.8934,1.8773,1.9162,1.9396,1.944,1.9231,1.8954,1.1123,1.1836,0.0,1.464,1.5289,1.5665,0.0,0.0,0.0,0.0,0.0,0.0,0.0,0.0,0.0,0.0,0.0,0.0,0.0,0.0,0.0,0.0,0.0,0.0,0.0,0.0,0.0,0.0,0.0,1.56,1.5322,1.5742,1.5633,1.4885,1.5102,1.4991,1.4493,1.4909,1.5587,1.6457,1.6392,1.6466,1.6659,1.6457,1.6405,1.6451,1.5915,1.5626,1.5573,1.6125,1.6268,1.6183,1.6834,1.6643,1.602,1.6244,1.6017,1.5613,1.5893,1.6242,1.6644,1.7219,1.7647,1.8031,1.8434,1.8464,1.8394,1.8506,1.8464,1.8359,1.8285,1.8797,1.9274,1.9158,1.961,1.9851,1.9021,1.8597,1.848,1.8843,1.8724,1.8425,1.7952,1.8166,1.8123,1.7418,1.7423,1.7329,1.6874,1.679,1.6807,1.6955,1.6955,1.7011,1.7134,1.7134,1.7217,1.744,1.7882,1.8107,1.8147,1.9215,1.982,1.9851,2.0439,2.0613,2.0302,2.0139,2.015,2.0313,1.9616,1.9441,0.0,0.0,0.0,1.2591,1.3791,1.497,1.5175,0.0,0.0,0.0,0.0,0.0,0.0,0.0,0.0,0.0,0.0,0.0,0.0,0.0,0.0,0.0,0.0,0.0,0.0,0.0,0.0,0.0,0.0,0.0,1.5393,1.5561,1.543,1.4883,1.4876,1.497,1.5163,1.534,1.5782,1.65,1.6556,1.6431,1.6139,1.6456,1.6397,1.6048,1.6114,1.6078,1.5959,1.6096,1.6351,1.6664,1.6599,1.6657,1.6811,1.6638,1.6479,1.6318,1.6426,1.6486,1.6673,1.7503,1.7739,1.7832,1.871,1.8774,1.8572,1.8679,1.8691,1.867,1.8732,1.8835,1.8982,1.9365,1.9848,2.0105,1.9813,1.9293,1.8915,1.8883,1.8652,1.8383,1.8084,1.822,1.8259,1.7865,1.7947,1.7947,1.7551,1.7496,1.7523,1.7567,1.7501,1.7501,1.765,1.7661,1.7851,1.8374,1.8567,1.8833,1.9262,1.9814,2.0197,2.04,2.0874,2.1031,2.0903,2.0839,2.0892,2.1051,2.0912,2.0709,0.8885,0.0,0.0,0.0,0.0,1.3742,1.4471,0.0,0.0,0.0,0.0,0.0,0.0,0.0,0.0,0.0,0.0,0.0,0.0,0.0,0.0,0.0,0.0,0.0,0.0,0.0,0.0,0.0,0.0,0.0,1.5346,1.5281,1.502,1.4588,1.4344,1.4594,1.5429,1.5369,1.5793,1.6735,1.6769,1.6539,1.6077,1.6386,1.6389,1.615,1.6228,1.6295,1.6349,1.6154,1.6485,1.7053,1.6628,1.6814,1.7277,1.7036,1.6883,1.6808,1.7007,1.7006,1.7018,1.8067,1.8177,1.8105,1.9048,1.9119,1.8881,1.8919,1.8999,1.9069,1.9057,1.9032,1.9169,1.9838,2.0076,2.0156,2.0182,1.9682,1.9133,1.8919,1.8664,1.841,1.8302,1.8383,1.841,1.8302,1.8383,1.8356,1.8073,1.8034,1.8034,1.8073,1.7991,1.7979,1.8116,1.8116,1.8428,1.9088,1.92,1.9524,2.0222,2.0523,2.085,2.1176,2.1506,2.1733,2.1839,2.1424,2.1237,2.1233,2.1305,2.1186,0.0,0.0,0.0,0.0,0.0,0.0,0.0,0.0,0.0,0.0,0.0,0.0,0.0,0.0,0.0,0.0,0.0,0.0,0.0,0.0,0.0,0.0,0.0,0.0,0.0,0.0,0.0,0.0,0.0,1.5407,1.5216,1.4864,1.4417,1.3914,1.3431,1.3806,1.5057,1.4896,1.5596,1.7173,1.7039,1.6831,1.6565,1.6316,1.6415,1.674,1.6243,1.6301,1.6701,1.6362,1.665,1.7267,1.7088,1.7122,1.7325,1.745,1.7253,1.7016,1.7666,1.7714,1.7692,1.8811,1.9007,1.8884,1.9443,1.9512,1.9368,1.9239,1.9396,1.9544,1.9295,1.9536,1.998,2.0652,2.0397,2.0042,2.0182,1.9682,1.9186,1.904,1.8801,1.8614,1.8614,1.864,1.864,1.8614,1.864,1.856,1.836,1.8333,1.8371,1.8422,1.8422,1.8464,1.8614,1.8625,1.8954,1.9598,1.9836,2.0264,2.0948,2.14,2.1772,2.2113,2.2439,2.2756,2.3083,2.1933,2.1221,2.0933,2.0832,2.0792,0.7477,0.0,0.0,0.0,0.0,0.0,0.0,0.0,0.0,0.0,0.0,0.0,0.0,0.0,0.0,0.0,0.0,0.0,0.0,0.0,0.0,0.0,0.0,0.0,0.0,0.0,0.0,0.0,1.6214,1.5681,1.5292,1.4312,1.3697,1.3546,1.3325,1.3559,1.4305,1.4822,1.555,1.6484,1.6484,1.6284,1.5887,1.6251,1.6211,1.5908,1.6684,1.7027,1.7052,1.6812,1.6837,1.702,1.6999,1.7042,1.7106,1.7333,1.7369,1.7293,1.7529,1.7568,1.766,1.8656,1.8798,1.8725,1.9497,1.9512,1.9275,1.9342,1.9394,1.954,1.9839,2.0214,2.0599,2.0894,2.0673,2.0472,2.061,2.0105,1.9618,1.9604,1.9356,1.9184,1.9184,1.9251,1.9303,1.9198,1.9344,1.937,1.9119,1.9172,1.9212,1.9131,1.9131,1.9131,1.9184,1.967,2.0162,2.0576,2.1157,2.1766,2.2317,2.2237,2.2341,2.2671,2.2647,2.263,2.2681,2.2625,2.2404,2.2058,2.2115,2.222,0.0,0.0,0.0,0.0,0.0,0.0,1.0819,1.1353,0.0,0.0,0.0,0.0,0.0,0.0,0.0,0.0,0.0,0.0,0.0,0.0,0.0,0.0,0.0,0.0,0.0,0.0,0.0,1.6605,1.6138,1.5523,1.4735,1.3973,1.3543,1.3493,1.3455,1.3688,1.4205,1.4756,1.5352,1.5996,1.6054,1.5866,1.5492,1.608,1.6185,1.5972,1.6901,1.7431,1.7591,1.7399,1.7253,1.7136,1.7044,1.7128,1.7316,1.7461,1.7556,1.7658,1.7906,1.7944,1.8039,1.9038,1.9196,1.9138,1.9863,1.9901,1.9668,1.9591,1.9694,1.9952,2.0485,2.0797,2.0995,2.1131,2.097,2.0784,2.0871,2.0535,2.0131,1.985,1.963,1.9587,1.9953,1.987,1.9847,2.0151,2.0065,1.9888,1.9681,1.972,1.972,1.9591,1.9565,1.9677,1.9992,2.0236,2.0693,2.1489,2.1744,2.2128,2.2683,2.2938,2.3077,2.311,2.3478,2.3645,2.3535,2.316,2.2801,2.2467,2.2953,2.3154,0.0,0.0,0.0,0.0,0.0,0.0,1.0694,1.0913,1.1342,0.0,0.0,0.0,0.0,0.0,0.0,0.0,0.0,0.0,0.0,0.0,0.0,0.0,0.0,0.0,0.0,1.7026,1.6834,1.6218,1.586,1.5127,1.3924,1.3838,1.3775,1.3682,1.3758,1.4019,1.444,1.4704,1.5101,1.5655,1.5699,1.5609,1.5442,1.5922,1.629,1.6597,1.7125,1.7667,1.8169,1.8003,1.7767,1.7475,1.7199,1.7337,1.7699,1.7754,1.7814,1.797,1.8479,1.8542,1.8537,1.9552,1.9756,1.9695,2.0263,2.037,2.0269,1.994,2.0131,2.0548,2.1057,2.1229,2.1302,2.1423,2.1251,2.108,2.1057,2.0921,2.0622,2.0003,1.9811,1.9999,2.083,2.0487,2.0399,2.1212,2.0772,2.0283,2.0105,2.0144,2.0105,1.9927,1.9927,2.0206,2.0921,2.0694,2.1069,2.2402,2.2164,2.219,2.2722,2.3627,2.3942,2.3624,2.4636,2.5118,2.5005,2.3612,2.2851,2.2628,2.354,2.3725,0.0,0.0,0.0,0.0,0.0,0.0,0.8906,0.9158,0.9915,0.0,0.0,0.0,0.0,0.0,0.0,0.0,0.0,0.0,0.0,0.0,0.0,0.0,0.0,0.0,0.0,1.7149,1.7156,1.6192,1.5649,1.5063,1.4311,1.4023,1.3957,1.4157,1.3974,1.396,1.409,1.4727,1.5125,1.5306,1.5306,1.5615,1.6178,1.6293,1.6578,1.7037,1.7882,1.8176,1.8042,1.8109,1.7963,1.7679,1.772,1.772,1.772,1.7989,1.8055,1.8016,1.8299,1.8314,1.833,1.8915,1.903,1.9043,1.9782,1.993,1.9876,2.0067,2.0409,2.0784,2.0983,2.135,2.1688,2.1722,2.1674,2.1578,2.1375,2.1044,2.0734,2.0485,2.0549,2.0807,2.1303,2.1053,2.0983,2.1536,2.1356,2.1044,2.0684,2.0921,2.0995,2.0635,2.0696,2.0996,2.1498,2.2101,2.2777,2.3526,2.4063,2.4486,2.4792,2.4828,2.4824,2.4857,2.4965,2.5033,2.5005,2.4326,2.3987,2.3933,2.4299,2.4326,0.0,0.0,0.0,0.9588,0.0,0.0,0.0,0.9549,1.0135,0.0,0.0,0.0,0.0,0.0,0.0,0.0,0.0,0.0,0.0,0.0,0.0,0.0,0.0,0.0,0.0,1.6938,1.6987,1.6028,1.536,1.4925,1.4763,1.4529,1.4417,1.4509,1.4381,1.4254,1.4144,1.4585,1.485,1.4949,1.4982,1.5279,1.5813,1.6385,1.6786,1.705,1.8158,1.8528,1.8352,1.845,1.8386,1.8169,1.8029,1.7975,1.8057,1.8554,1.8571,1.8394,1.8721,1.8617,1.8438,1.8907,1.9138,1.9396,2.0138,2.0493,2.0671,2.0767,2.0995,2.124,2.1361,2.1712,2.202,2.2091,2.2114,2.2044,2.1841,2.1482,2.1296,2.163,2.1567,2.1529,2.1767,2.176,2.1816,2.2062,2.1704,2.1277,2.0945,2.1423,2.1747,2.1621,2.1914,2.2422,2.3081,2.3345,2.3722,2.4406,2.4859,2.5048,2.4954,2.534,2.5619,2.5757,2.5619,2.5591,2.5647,2.5408,2.5105,2.4751,2.5011,2.5092,0.0,0.0,0.0,0.0,0.0,1.0477,0.0,0.0,0.0,1.2324,0.0,0.0,0.0,0.0,0.0,0.0,0.0,0.0,0.0,0.0,0.0,0.0,0.0,0.0,0.0,1.6478,1.6451,1.5858,1.5047,1.4745,1.5104,1.4967,1.4842,1.4763,1.4732,1.462,1.4429,1.4513,1.4625,1.4763,1.4793,1.5005,1.5409,1.6334,1.6887,1.7225,1.8266,1.876,1.8846,1.8874,1.8855,1.875,1.8319,1.826,1.8453,1.9031,1.9038,1.8821,1.9239,1.9044,1.8694,1.9139,1.9669,2.0194,2.0693,2.1226,2.1616,2.1496,2.1544,2.1664,2.1769,2.2044,2.2301,2.237,2.2394,2.237,2.2208,2.1999,2.2,2.2557,2.2526,2.2426,2.2437,2.2549,2.2696,2.2732,2.2259,2.1811,2.1603,2.2185,2.2661,2.2759,2.3212,2.384,2.466,2.4387,2.4488,2.5212,2.5348,2.5277,2.497,2.5745,2.6218,2.6313,2.6179,2.6138,2.626,2.6272,2.5988,2.5425,2.5702,2.5867,0.0,0.0,0.0,0.0,1.1114,0.0,0.0,0.0,1.0852,1.0946,0.0,0.0,0.0,0.0,0.0,0.0,0.0,0.0,0.0,0.0,0.0,0.0,0.0,0.0,0.0,0.0,1.5398,1.5776,1.4792,1.447,1.5149,1.4963,1.4856,1.4967,1.4856,1.4808,1.4839,1.4779,1.4827,1.4967,1.4856,1.5247,1.6091,1.6171,1.6898,1.8144,1.8364,1.8781,1.9321,1.9265,1.9172,1.9026,1.8803,1.8683,1.8692,1.8999,1.9056,1.8993,1.9222,1.9192,1.9089,1.9512,2.0316,2.1128,2.1086,2.1393,2.1746,2.1616,2.1688,2.1769,2.1793,2.2184,2.2532,2.2417,2.2394,2.2324,2.2091,2.237,2.2557,2.2235,2.3146,2.3878,2.3645,2.3389,2.3305,2.3601,2.3666,2.3663,2.359,2.3963,2.418,2.4105,2.4251,2.4575,2.5095,2.5185,2.5502,2.6114,2.6158,2.6277,2.6524,2.6479,2.6418,2.6313,2.6179,2.6111,2.6111,2.6258,2.6258,2.6179,2.6206,2.6435,0.0,0.0,0.0,0.0,0.0,0.0,0.0,0.0,1.1382,0.0,0.0,0.0,0.0,0.0,0.0,0.0,0.0,0.0,0.0,0.0,0.0,0.0,0.0,0.0,0.0,0.0,0.0,0.0,0.0,1.4802,1.5566,1.5507,1.5418,1.5404,1.5314,1.5239,1.5179,1.5149,1.5179,1.5225,1.5254,1.5504,1.5979,1.6621,1.7283,1.7977,1.8679,1.9166,1.9453,1.9468,1.9446,1.9376,1.9195,1.9055,1.8927,1.9522,1.9511,1.923,1.9723,1.9591,1.9332,2.0002,2.0905,2.172,2.1829,2.2103,2.2352,2.2208,2.2231,2.2254,2.2254,2.2477,2.2698,2.2678,2.2746,2.2869,2.3166,2.3129,2.3218,2.3905,2.4074,2.4292,2.4771,2.4529,2.4321,2.4408,2.4426,2.4376,2.4266,2.4617,2.4972,2.5146,2.5389,2.5695,2.6098,2.6255,2.6408,2.6578,2.6671,2.6829,2.7144,2.6907,2.675,2.67,2.6738,2.675,2.675,2.6788,2.6777,2.6715,2.6915,2.7108,1.219,0.0,0.0,0.0,0.0,0.0,0.0,0.0,0.0,0.0,0.0,0.0,0.0,0.0,0.0,0.0,0.0,0.0,0.0,0.0,0.0,0.0,0.0,0.0,0.0,0.0,0.0,0.0,1.4776,1.4771,1.5569,1.5751,1.5784,1.5725,1.5624,1.5536,1.5433,1.5404,1.5404,1.5404,1.5522,1.5653,1.5829,1.686,1.7487,1.7838,1.8857,1.9435,1.9639,1.9687,1.9683,1.9629,1.9578,1.9413,1.9249,1.9849,1.9811,1.9509,2.0038,2.007,1.9996,2.0616,2.1469,2.2323,2.2457,2.2661,2.2834,2.2729,2.2715,2.2758,2.2861,2.2919,2.2983,2.3136,2.3256,2.3411,2.3741,2.3774,2.3984,2.4835,2.4776,2.4861,2.5689,2.5506,2.5232,2.5204,2.5216,2.5232,2.5182,2.5472,2.5822,2.6152,2.6408,2.6659,2.6884,2.7,2.6985,2.6858,2.6974,2.7155,2.7376,2.7207,2.7166,2.7252,2.738,2.7432,2.738,2.7458,2.7384,2.7122,2.7445,2.7673,0.0,0.0,0.0,1.2122,0.0,0.0,0.0,0.0,1.2617,0.0,0.0,0.0,0.0,0.0,0.0,1.2138,0.0,0.0,0.0,0.0,0.0,0.0,0.0,0.0,0.0,0.0,0.0,1.4523,1.3989,1.4005,1.4892,1.5354,1.5668,1.5799,1.561,1.5492,1.5492,1.5433,1.5404,1.5404,1.5463,1.561,1.5829,1.6593,1.7318,1.8031,1.8781,1.9434,1.9988,1.9988,1.9866,1.9726,1.9902,1.9866,1.969,1.9705,1.9741,1.9812,1.995,2.0633,2.1421,2.1309,2.2093,2.3031,2.2762,2.2867,2.3061,2.2926,2.2979,2.3184,2.3571,2.3475,2.3393,2.3772,2.3862,2.3734,2.3244,2.4194,2.4904,2.4096,2.497,2.5978,2.6416,2.613,2.5903,2.5977,2.6363,2.6704,2.6893,2.6933,2.6985,2.7152,2.7167,2.7181,2.7181,2.7181,2.7141,2.7011,2.7115,2.7233,2.7284,2.7376,2.7528,2.7866,2.7986,2.8012,2.7881,2.8134,2.7954,2.7391,2.7724,2.8055,0.0,0.0,1.3428,1.3042,0.0,0.0,0.0,0.0,0.0,0.0,0.0,0.0,0.0,0.0,1.2556,1.1888,1.2426,0.0,0.0,0.0,0.0,0.0,0.0,0.0,0.0,0.0,0.0,1.4222,1.3682,1.3828,0.0,1.5263,1.5611,1.6053,1.5955,1.5884,1.5826,1.5755,1.5741,1.5741,1.5841,1.5955,1.6099,1.7287,1.8023,1.8393,1.9488,2.0105,2.0323,2.027,2.02,2.0098,2.0166,2.0098,1.9993,2.0063,2.0063,2.001,2.0045,2.0711,2.155,2.151,2.2361,2.3319,2.315,2.3216,2.3363,2.3319,2.3599,2.3937,2.412,2.4387,2.4678,2.497,2.5014,2.512,2.5469,2.5748,2.5963,2.6107,2.6348,2.6658,2.7191,2.7103,2.7031,2.7279,2.739,2.7473,2.763,2.7514,2.7488,2.7705,2.7564,2.7499,2.759,2.759,2.769,2.7915,2.7725,2.7685,2.789,2.8465,2.8751,2.8614,2.9007,2.8981,2.851,2.8666,2.8336,2.7554,2.8591,2.8931,1.3571,1.4034,0.0,1.3881,1.4054,0.0,1.2731,0.0,0.0,0.0,0.0,0.0,0.0,0.0,0.0,1.232,1.261,1.261,0.0,1.1995,0.0,0.0,0.0,0.0,0.0,0.0,1.3664,1.3995,1.3716,1.3809,0.0,0.0,1.5719,1.5881,1.6058,1.6109,1.6067,1.6012,1.5984,1.6011,1.6123,1.6357,1.6747,1.7865,1.8593,1.9059,2.0093,2.056,2.0577,2.0509,2.044,2.0339,2.0373,2.0323,2.0254,2.0304,2.0304,2.027,2.0481,2.113,2.1877,2.2064,2.2831,2.3661,2.3581,2.3618,2.3683,2.3683,2.4118,2.4664,2.4843,2.5254,2.5674,2.5961,2.5982,2.6042,2.638,2.6503,2.6665,2.6888,2.7083,2.7321,2.7776,2.7914,2.7983,2.8067,2.8005,2.7965,2.8054,2.7965,2.794,2.8054,2.7915,2.785,2.794,2.794,2.8039,2.8275,2.8073,2.8136,2.8545,2.891,2.919,2.9314,2.9803,2.9722,2.8976,2.9388,2.9012,2.798,2.8994,2.9309]}]]